| time (UTC) | temp F | wind direction | speed MPH | gust MPH | rain 1hr in | rain 24hr in | rain mn in | humidity % | barometer mb |
| 20260510162630 | 88 | 196 | 0.0 | 1.0 | 0.00 | 0.00 | 0.00 | 15 | 1011.2 |
| 20260510162515 | 88 | 195 | 0.0 | 2.0 | 0.00 | 0.00 | 0.00 | 14 | 1011.2 |
| 20260510162425 | 88 | 195 | 0.0 | 2.0 | 0.00 | 0.00 | 0.00 | 14 | 1011.3 |
| 20260510162327 | 88 | 195 | 0.0 | 2.0 | 0.00 | 0.00 | 0.00 | 15 | 1011.3 |
| 20260510162227 | 88 | 196 | 0.0 | 2.0 | 0.00 | 0.00 | 0.00 | 15 | 1011.3 |
| 20260510162138 | 88 | 195 | 0.0 | 2.0 | 0.00 | 0.00 | 0.00 | 15 | 1011.3 |
| 20260510162019 | 88 | 195 | 0.0 | 2.0 | 0.00 | 0.00 | 0.00 | 15 | 1011.3 |
| 20260510161925 | 88 | 196 | 0.0 | 2.0 | 0.00 | 0.00 | 0.00 | 16 | 1011.3 |
| 20260510161827 | 88 | 198 | 0.0 | 2.0 | 0.00 | 0.00 | 0.00 | 18 | 1011.3 |
| 20260510161737 | 87 | 198 | 0.0 | 2.0 | 0.00 | 0.00 | 0.00 | 16 | 1011.3 |
| 20260510161618 | 87 | 159 | 0.0 | 0.0 | 0.00 | 0.00 | 0.00 | 17 | 1011.3 |
| 20260510161521 | 87 | 159 | 0.0 | 0.0 | 0.00 | 0.00 | 0.00 | 17 | 1011.2 |
| 20260510161429 | 87 | 159 | 0.0 | 0.0 | 0.00 | 0.00 | 0.00 | 17 | 1011.2 |
| 20260510161315 | 87 | 159 | 0.0 | 1.0 | 0.00 | 0.00 | 0.00 | 16 | 1011.2 |
| 20260510161218 | 87 | 159 | 0.0 | 1.0 | 0.00 | 0.00 | 0.00 | 17 | 1011.2 |
| 20260510161127 | 87 | 159 | 0.0 | 1.0 | 0.00 | 0.00 | 0.00 | 18 | 1011.2 |
| 20260510161029 | 86 | 159 | 0.0 | 1.0 | 0.00 | 0.00 | 0.00 | 17 | 1011.1 |
| 20260510160931 | 86 | 159 | 0.0 | 1.0 | 0.00 | 0.00 | 0.00 | 17 | 1011.2 |
| 20260510160841 | 86 | 159 | 0.0 | 1.0 | 0.00 | 0.00 | 0.00 | 17 | 1011.2 |
| 20260510160728 | 86 | 159 | 0.0 | 1.0 | 0.00 | 0.00 | 0.00 | 16 | 1011.2 |
| 20260510160629 | 86 | 159 | 0.0 | 1.0 | 0.00 | 0.00 | 0.00 | 16 | 1011.2 |
| 20260510160559 | 86 | 159 | 0.0 | 1.0 | 0.00 | 0.00 | 0.00 | 16 | 1011.2 |
| 20260510160419 | 86 | 159 | 0.0 | 0.0 | 0.00 | 0.00 | 0.00 | 18 | 1011.2 |
| 20260510160320 | 86 | 159 | 0.0 | 0.0 | 0.00 | 0.00 | 0.00 | 19 | 1011.3 |
| 20260510160222 | 86 | 159 | 0.0 | 0.0 | 0.00 | 0.00 | 0.00 | 21 | 1011.1 |
| 20260510160131 | 86 | 159 | 0.0 | 0.0 | 0.00 | 0.00 | 0.00 | 22 | 1011.2 |
| 20260510160029 | 86 | 159 | 0.0 | 0.0 | 0.00 | 0.00 | 0.00 | 21 | 1011.2 |
| 20260510155919 | 85 | 159 | 0.0 | 0.0 | 0.00 | 0.00 | 0.00 | 22 | 1011.2 |
| 20260510155847 | 85 | 159 | 0.0 | 0.0 | 0.00 | 0.00 | 0.00 | 20 | 1011.2 |
| 20260510155727 | 85 | 159 | 0.0 | 0.0 | 0.00 | 0.00 | 0.00 | 20 | 1011.1 |
| 20260510155656 | 85 | 159 | 0.0 | 0.0 | 0.00 | 0.00 | 0.00 | 19 | 1011.1 |
| 20260510155517 | 85 | 159 | 0.0 | 0.0 | 0.00 | 0.00 | 0.00 | 18 | 1011.2 |
| 20260510155422 | 85 | 159 | 0.0 | 0.0 | 0.00 | 0.00 | 0.00 | 18 | 1011.3 |
| 20260510155351 | 85 | 159 | 0.0 | 0.0 | 0.00 | 0.00 | 0.00 | 18 | 1011.3 |
| 20260510155238 | 85 | 159 | 0.0 | 1.0 | 0.00 | 0.00 | 0.00 | 18 | 1011.3 |
| 20260510155119 | 85 | 159 | 0.0 | 1.0 | 0.00 | 0.00 | 0.00 | 18 | 1011.3 |
| 20260510155047 | 84 | 159 | 0.0 | 1.0 | 0.00 | 0.00 | 0.00 | 20 | 1011.2 |
| 20260510154926 | 84 | 159 | 0.0 | 1.0 | 0.00 | 0.00 | 0.00 | 19 | 1011.2 |
| 20260510154833 | 84 | 159 | 0.0 | 1.0 | 0.00 | 0.00 | 0.00 | 19 | 1011.2 |
| 20260510154734 | 84 | 159 | 0.0 | 1.0 | 0.00 | 0.00 | 0.00 | 19 | 1011.2 |
| 20260510154620 | 84 | 159 | 0.0 | 1.0 | 0.00 | 0.00 | 0.00 | 20 | 1011.1 |
| 20260510154521 | 83 | 159 | 0.0 | 1.0 | 0.00 | 0.00 | 0.00 | 23 | 1011.1 |
| 20260510154429 | 83 | 159 | 0.0 | 1.0 | 0.00 | 0.00 | 0.00 | 19 | 1011.2 |
| 20260510154330 | 83 | 166 | 0.0 | 0.0 | 0.00 | 0.00 | 0.00 | 18 | 1011.1 |
| 20260510154240 | 83 | 166 | 0.0 | 0.0 | 0.00 | 0.00 | 0.00 | 18 | 1011.1 |
| 20260510154122 | 83 | 166 | 0.0 | 0.0 | 0.00 | 0.00 | 0.00 | 18 | 1011.1 |
| 20260510154027 | 83 | 166 | 0.0 | 0.0 | 0.00 | 0.00 | 0.00 | 20 | 1011.1 |
| 20260510153937 | 83 | 166 | 0.0 | 0.0 | 0.00 | 0.00 | 0.00 | 18 | 1011.1 |
| 20260510153817 | 83 | 158 | 0.0 | 1.0 | 0.00 | 0.00 | 0.00 | 19 | 1011.2 |
| 20260510153719 | 83 | 158 | 0.0 | 1.0 | 0.00 | 0.00 | 0.00 | 19 | 1011.2 |
| 20260510153621 | 83 | 158 | 0.0 | 1.0 | 0.00 | 0.00 | 0.00 | 22 | 1011.2 |
| 20260510153550 | 83 | 158 | 0.0 | 1.0 | 0.00 | 0.00 | 0.00 | 21 | 1011.2 |
| 20260510153459 | 82 | 158 | 0.0 | 1.0 | 0.00 | 0.00 | 0.00 | 21 | 1011.2 |
| 20260510153343 | 82 | 158 | 0.0 | 1.0 | 0.00 | 0.00 | 0.00 | 21 | 1011.2 |
| 20260510153224 | 82 | 158 | 0.0 | 1.0 | 0.00 | 0.00 | 0.00 | 22 | 1011.3 |
| 20260510153132 | 81 | 158 | 0.0 | 1.0 | 0.00 | 0.00 | 0.00 | 24 | 1011.2 |
| 20260510153035 | 81 | 158 | 0.0 | 1.0 | 0.00 | 0.00 | 0.00 | 23 | 1011.2 |
| 20260510152937 | 81 | 151 | 0.0 | 1.0 | 0.00 | 0.00 | 0.00 | 22 | 1011.3 |
| 20260510152845 | 81 | 151 | 0.0 | 1.0 | 0.00 | 0.00 | 0.00 | 22 | 1011.3 |
| 20260510152731 | 81 | 151 | 0.0 | 2.0 | 0.00 | 0.00 | 0.00 | 23 | 1011.2 |
| 20260510152617 | 81 | 292 | 0.0 | 2.0 | 0.00 | 0.00 | 0.00 | 23 | 1011.2 |
| 20260510152520 | 81 | 292 | 0.0 | 2.0 | 0.00 | 0.00 | 0.00 | 24 | 1011.2 |
| 20260510152448 | 81 | 292 | 0.0 | 2.0 | 0.00 | 0.00 | 0.00 | 24 | 1011.3 |
| 20260510152328 | 81 | 292 | 0.0 | 2.0 | 0.00 | 0.00 | 0.00 | 24 | 1011.2 |
| 20260510152237 | 81 | 292 | 0.0 | 2.0 | 0.00 | 0.00 | 0.00 | 24 | 1011.2 |
| 20260510152120 | 81 | 292 | 0.0 | 2.0 | 0.00 | 0.00 | 0.00 | 25 | 1011.1 |
| 20260510152023 | 80 | 292 | 0.0 | 2.0 | 0.00 | 0.00 | 0.00 | 25 | 1011.2 |
| 20260510151929 | 81 | 293 | 0.0 | 1.0 | 0.00 | 0.00 | 0.00 | 25 | 1011.1 |
| 20260510151839 | 80 | 293 | 0.0 | 1.0 | 0.00 | 0.00 | 0.00 | 25 | 1011.1 |
| 20260510151720 | 80 | 293 | 0.0 | 1.0 | 0.00 | 0.00 | 0.00 | 27 | 1011.2 |
| 20260510151649 | 80 | 293 | 0.0 | 1.0 | 0.00 | 0.00 | 0.00 | 28 | 1011.2 |
| 20260510151530 | 80 | 293 | 0.0 | 1.0 | 0.00 | 0.00 | 0.00 | 28 | 1011.2 |
| 20260510151459 | 80 | 293 | 0.0 | 1.0 | 0.00 | 0.00 | 0.00 | 28 | 1011.2 |
| 20260510151319 | 80 | 293 | 0.0 | 1.0 | 0.00 | 0.00 | 0.00 | 29 | 1011.2 |
| 20260510151230 | 80 | 293 | 0.0 | 1.0 | 0.00 | 0.00 | 0.00 | 28 | 1011.2 |
| 20260510151129 | 79 | 293 | 0.0 | 1.0 | 0.00 | 0.00 | 0.00 | 26 | 1011.3 |
| 20260510151039 | 79 | 293 | 0.0 | 1.0 | 0.00 | 0.00 | 0.00 | 25 | 1011.3 |
| 20260510150920 | 79 | 293 | 0.0 | 1.0 | 0.00 | 0.00 | 0.00 | 26 | 1011.2 |
| 20260510150822 | 79 | 293 | 0.0 | 1.0 | 0.00 | 0.00 | 0.00 | 24 | 1011.2 |
| 20260510150724 | 79 | 293 | 0.0 | 1.0 | 0.00 | 0.00 | 0.00 | 25 | 1011.2 |
| 20260510150634 | 79 | 293 | 0.0 | 1.0 | 0.00 | 0.00 | 0.00 | 26 | 1011.2 |
| 20260510150519 | 79 | 345 | 0.0 | 0.0 | 0.00 | 0.00 | 0.00 | 26 | 1011.1 |
| 20260510150421 | 79 | 345 | 0.0 | 0.0 | 0.00 | 0.00 | 0.00 | 26 | 1011.2 |
| 20260510150328 | 79 | 345 | 0.0 | 0.0 | 0.00 | 0.00 | 0.00 | 25 | 1011.1 |
| 20260510150229 | 79 | 345 | 0.0 | 0.0 | 0.00 | 0.00 | 0.00 | 26 | 1011.1 |
| 20260510150131 | 79 | 344 | 0.0 | 0.0 | 0.00 | 0.00 | 0.00 | 26 | 1011.1 |
| 20260510150031 | 79 | 343 | 0.0 | 0.0 | 0.00 | 0.00 | 0.00 | 26 | 1011.1 |
| 20260510145926 | 78 | 342 | 0.0 | 0.0 | 0.00 | 0.00 | 0.00 | 26 | 1011.0 |
| 20260510145827 | 78 | 342 | 0.0 | 0.0 | 0.00 | 0.00 | 0.00 | 25 | 1011.0 |
| 20260510145737 | 78 | 342 | 0.0 | 0.0 | 0.00 | 0.00 | 0.00 | 25 | 1011.0 |
| 20260510145620 | 78 | 342 | 0.0 | 0.0 | 0.00 | 0.00 | 0.00 | 25 | 1011.0 |
| 20260510145521 | 78 | 342 | 0.0 | 0.0 | 0.00 | 0.00 | 0.00 | 25 | 1011.0 |
| 20260510145430 | 78 | 342 | 0.0 | 0.0 | 0.00 | 0.00 | 0.00 | 25 | 1011.0 |
| 20260510145335 | 78 | 342 | 0.0 | 0.0 | 0.00 | 0.00 | 0.00 | 25 | 1011.0 |
| 20260510145216 | 78 | 342 | 0.0 | 0.0 | 0.00 | 0.00 | 0.00 | 25 | 1011.1 |
| 20260510145124 | 78 | 342 | 0.0 | 0.0 | 0.00 | 0.00 | 0.00 | 25 | 1011.1 |
| 20260510145026 | 78 | 342 | 0.0 | 0.0 | 0.00 | 0.00 | 0.00 | 25 | 1011.0 |
| 20260510144929 | 78 | 342 | 0.0 | 0.0 | 0.00 | 0.00 | 0.00 | 26 | 1011.1 |
| 20260510144837 | 78 | 342 | 0.0 | 0.0 | 0.00 | 0.00 | 0.00 | 25 | 1011.1 |
| 20260510144724 | 78 | 342 | 0.0 | 0.0 | 0.00 | 0.00 | 0.00 | 25 | 1011.0 |
| 20260510144626 | 78 | 342 | 0.0 | 0.0 | 0.00 | 0.00 | 0.00 | 25 | 1011.0 |
| 20260510144533 | 77 | 342 | 0.0 | 0.0 | 0.00 | 0.00 | 0.00 | 25 | 1011.1 |
| 20260510144415 | 77 | 342 | 0.0 | 0.0 | 0.00 | 0.00 | 0.00 | 25 | 1011.1 |
| 20260510144345 | 77 | 342 | 0.0 | 1.0 | 0.00 | 0.00 | 0.00 | 26 | 1011.1 |
| 20260510144237 | 77 | 348 | 0.0 | 1.0 | 0.00 | 0.00 | 0.00 | 26 | 1011.0 |
| 20260510144146 | 77 | 348 | 0.0 | 1.0 | 0.00 | 0.00 | 0.00 | 26 | 1011.0 |
| 20260510143932 | 77 | 348 | 0.0 | 1.0 | 0.00 | 0.00 | 0.00 | 26 | 1011.0 |
| 20260510143833 | 77 | 316 | 0.0 | 1.0 | 0.00 | 0.00 | 0.00 | 25 | 1010.9 |
| 20260510143742 | 77 | 316 | 0.0 | 1.0 | 0.00 | 0.00 | 0.00 | 25 | 1010.9 |
| 20260510143644 | 77 | 320 | 0.0 | 1.0 | 0.00 | 0.00 | 0.00 | 26 | 1010.9 |
| 20260510143524 | 77 | 320 | 0.0 | 1.0 | 0.00 | 0.00 | 0.00 | 26 | 1010.9 |
| 20260510143438 | 77 | 320 | 0.0 | 1.0 | 0.00 | 0.00 | 0.00 | 26 | 1010.9 |
| 20260510143319 | 77 | 208 | 0.0 | 1.0 | 0.00 | 0.00 | 0.00 | 27 | 1010.8 |
| 20260510143221 | 77 | 208 | 0.0 | 0.0 | 0.00 | 0.00 | 0.00 | 26 | 1010.8 |
| 20260510143123 | 77 | 208 | 0.0 | 0.0 | 0.00 | 0.00 | 0.00 | 26 | 1010.8 |
| 20260510143051 | 76 | 167 | 0.0 | 1.0 | 0.00 | 0.00 | 0.00 | 26 | 1010.8 |
| 20260510142942 | 76 | 167 | 0.0 | 1.0 | 0.00 | 0.00 | 0.00 | 26 | 1010.8 |
| 20260510142842 | 77 | 183 | 0.0 | 2.0 | 0.00 | 0.00 | 0.00 | 26 | 1010.8 |
| 20260510142734 | 77 | 183 | 0.0 | 4.0 | 0.00 | 0.00 | 0.00 | 26 | 1010.8 |
| 20260510142656 | 77 | 183 | 0.0 | 4.0 | 0.00 | 0.00 | 0.00 | 26 | 1011.0 |
| 20260510142516 | 77 | 183 | 0.0 | 4.0 | 0.00 | 0.00 | 0.00 | 26 | 1010.9 |
| 20260510142425 | 77 | 190 | 0.0 | 4.0 | 0.00 | 0.00 | 0.00 | 26 | 1010.9 |
| 20260510142328 | 77 | 190 | 0.0 | 4.0 | 0.00 | 0.00 | 0.00 | 26 | 1010.9 |
| 20260510142230 | 78 | 190 | 0.0 | 4.0 | 0.00 | 0.00 | 0.00 | 26 | 1010.8 |
| 20260510142140 | 78 | 190 | 0.0 | 4.0 | 0.00 | 0.00 | 0.00 | 27 | 1010.8 |
| 20260510142025 | 78 | 190 | 1.0 | 4.0 | 0.00 | 0.00 | 0.00 | 27 | 1010.8 |
| 20260510141926 | 78 | 190 | 1.0 | 4.0 | 0.00 | 0.00 | 0.00 | 26 | 1010.9 |
| 20260510141835 | 78 | 190 | 1.0 | 4.0 | 0.00 | 0.00 | 0.00 | 26 | 1010.8 |
| 20260510141717 | 78 | 191 | 0.0 | 1.0 | 0.00 | 0.00 | 0.00 | 24 | 1010.9 |
| 20260510141619 | 78 | 191 | 0.0 | 1.0 | 0.00 | 0.00 | 0.00 | 24 | 1010.8 |
| 20260510141521 | 78 | 191 | 0.0 | 1.0 | 0.00 | 0.00 | 0.00 | 22 | 1010.8 |
| 20260510141432 | 78 | 191 | 0.0 | 1.0 | 0.00 | 0.00 | 0.00 | 25 | 1010.8 |
| 20260510141315 | 77 | 292 | 0.0 | 1.0 | 0.00 | 0.00 | 0.00 | 25 | 1010.8 |
| 20260510141217 | 77 | 292 | 0.0 | 1.0 | 0.00 | 0.00 | 0.00 | 25 | 1010.8 |
| 20260510141127 | 77 | 292 | 0.0 | 1.0 | 0.00 | 0.00 | 0.00 | 27 | 1010.8 |
| 20260510141029 | 77 | 292 | 0.0 | 1.0 | 0.00 | 0.00 | 0.00 | 27 | 1010.8 |
| 20260510140937 | 76 | 292 | 0.0 | 1.0 | 0.00 | 0.00 | 0.00 | 27 | 1010.7 |
| 20260510140836 | 76 | 292 | 0.0 | 1.0 | 0.00 | 0.00 | 0.00 | 26 | 1010.8 |
| 20260510140728 | 76 | 292 | 0.0 | 1.0 | 0.00 | 0.00 | 0.00 | 26 | 1010.7 |
| 20260510140630 | 76 | 262 | 0.0 | 0.0 | 0.00 | 0.00 | 0.00 | 27 | 1010.7 |
| 20260510140531 | 76 | 262 | 0.0 | 0.0 | 0.00 | 0.00 | 0.00 | 29 | 1010.6 |
| 20260510140441 | 75 | 262 | 0.0 | 0.0 | 0.00 | 0.00 | 0.00 | 29 | 1010.6 |
| 20260510140323 | 75 | 262 | 0.0 | 0.0 | 0.00 | 0.00 | 0.00 | 29 | 1010.6 |
| 20260510140254 | 75 | 262 | 0.0 | 0.0 | 0.00 | 0.00 | 0.00 | 30 | 1010.6 |
| 20260510140117 | 75 | 262 | 0.0 | 0.0 | 0.00 | 0.00 | 0.00 | 30 | 1010.6 |
| 20260510140030 | 75 | 262 | 0.0 | 0.0 | 0.00 | 0.00 | 0.00 | 30 | 1010.6 |
| 20260510135921 | 75 | 262 | 0.0 | 0.0 | 0.00 | 0.00 | 0.00 | 28 | 1010.6 |
| 20260510135830 | 74 | 262 | 0.0 | 0.0 | 0.00 | 0.00 | 0.00 | 28 | 1010.6 |
| 20260510135732 | 74 | 262 | 0.0 | 0.0 | 0.00 | 0.00 | 0.00 | 28 | 1010.6 |
| 20260510135635 | 74 | 262 | 0.0 | 0.0 | 0.00 | 0.00 | 0.00 | 30 | 1010.6 |
| 20260510135548 | 74 | 262 | 0.0 | 0.0 | 0.00 | 0.00 | 0.00 | 30 | 1010.6 |
| 20260510135427 | 74 | 262 | 0.0 | 0.0 | 0.00 | 0.00 | 0.00 | 31 | 1010.6 |
| 20260510135337 | 74 | 262 | 0.0 | 0.0 | 0.00 | 0.00 | 0.00 | 29 | 1010.6 |
| 20260510135219 | 73 | 262 | 0.0 | 0.0 | 0.00 | 0.00 | 0.00 | 30 | 1010.5 |
| 20260510135120 | 73 | 262 | 0.0 | 0.0 | 0.00 | 0.00 | 0.00 | 30 | 1010.5 |
| 20260510135029 | 73 | 262 | 0.0 | 0.0 | 0.00 | 0.00 | 0.00 | 31 | 1010.5 |
| 20260510134915 | 73 | 262 | 0.0 | 0.0 | 0.00 | 0.00 | 0.00 | 33 | 1010.5 |
| 20260510134819 | 73 | 262 | 0.0 | 0.0 | 0.00 | 0.00 | 0.00 | 34 | 1010.5 |
| 20260510134720 | 73 | 262 | 0.0 | 0.0 | 0.00 | 0.00 | 0.00 | 35 | 1010.5 |
| 20260510134629 | 73 | 262 | 0.0 | 0.0 | 0.00 | 0.00 | 0.00 | 32 | 1010.6 |
| 20260510134551 | 73 | 262 | 0.0 | 0.0 | 0.00 | 0.00 | 0.00 | 32 | 1010.5 |
| 20260510134440 | 73 | 262 | 0.0 | 0.0 | 0.00 | 0.00 | 0.00 | 34 | 1010.5 |
| 20260510134321 | 72 | 262 | 0.0 | 0.0 | 0.00 | 0.00 | 0.00 | 31 | 1010.5 |
| 20260510134228 | 72 | 262 | 0.0 | 0.0 | 0.00 | 0.00 | 0.00 | 33 | 1010.5 |
| 20260510134129 | 72 | 262 | 0.0 | 0.0 | 0.00 | 0.00 | 0.00 | 34 | 1010.3 |
| 20260510134038 | 72 | 262 | 0.0 | 0.0 | 0.00 | 0.00 | 0.00 | 35 | 1010.3 |
| 20260510133920 | 72 | 262 | 0.0 | 0.0 | 0.00 | 0.00 | 0.00 | 33 | 1010.4 |
| 20260510133820 | 72 | 262 | 0.0 | 0.0 | 0.00 | 0.00 | 0.00 | 31 | 1010.4 |
| 20260510133748 | 72 | 262 | 0.0 | 0.0 | 0.00 | 0.00 | 0.00 | 32 | 1010.4 |
| 20260510133635 | 72 | 262 | 0.0 | 0.0 | 0.00 | 0.00 | 0.00 | 30 | 1010.4 |
| 20260510133521 | 72 | 262 | 0.0 | 0.0 | 0.00 | 0.00 | 0.00 | 30 | 1010.4 |
| 20260510133418 | 72 | 262 | 0.0 | 0.0 | 0.00 | 0.00 | 0.00 | 30 | 1010.3 |
| 20260510133347 | 72 | 262 | 0.0 | 0.0 | 0.00 | 0.00 | 0.00 | 31 | 1010.4 |
| 20260510133227 | 71 | 262 | 0.0 | 1.0 | 0.00 | 0.00 | 0.00 | 30 | 1010.4 |
| 20260510133135 | 71 | 262 | 0.0 | 1.0 | 0.00 | 0.00 | 0.00 | 30 | 1010.4 |
| 20260510133017 | 71 | 263 | 0.0 | 1.0 | 0.00 | 0.00 | 0.00 | 32 | 1010.3 |
| 20260510132923 | 71 | 262 | 0.0 | 1.0 | 0.00 | 0.00 | 0.00 | 32 | 1010.3 |
| 20260510132824 | 71 | 262 | 0.0 | 1.0 | 0.00 | 0.00 | 0.00 | 32 | 1010.4 |
| 20260510132733 | 71 | 262 | 0.0 | 1.0 | 0.00 | 0.00 | 0.00 | 32 | 1010.3 |
| 20260510132653 | 71 | 262 | 0.0 | 1.0 | 0.00 | 0.00 | 0.00 | 32 | 1010.3 |
| 20260510132542 | 71 | 262 | 0.0 | 1.0 | 0.00 | 0.00 | 0.00 | 31 | 1010.3 |
| 20260510132423 | 71 | 262 | 0.0 | 1.0 | 0.00 | 0.00 | 0.00 | 32 | 1010.3 |
| 20260510132333 | 71 | 262 | 0.0 | 0.0 | 0.00 | 0.00 | 0.00 | 32 | 1010.1 |
| 20260510132217 | 71 | 159 | 0.0 | 0.0 | 0.00 | 0.00 | 0.00 | 32 | 1010.1 |
| 20260510132119 | 71 | 154 | 0.0 | 0.0 | 0.00 | 0.00 | 0.00 | 32 | 1010.1 |
| 20260510132048 | 71 | 154 | 0.0 | 0.0 | 0.00 | 0.00 | 0.00 | 32 | 1010.1 |
| 20260510131928 | 71 | 154 | 0.0 | 0.0 | 0.00 | 0.00 | 0.00 | 32 | 1010.1 |
| 20260510131837 | 71 | 154 | 0.0 | 0.0 | 0.00 | 0.00 | 0.00 | 32 | 1010.1 |
| 20260510131718 | 71 | 154 | 0.0 | 0.0 | 0.00 | 0.00 | 0.00 | 32 | 1010.0 |
| 20260510131621 | 71 | 154 | 0.0 | 0.0 | 0.00 | 0.00 | 0.00 | 32 | 1010.0 |
| 20260510131525 | 71 | 154 | 0.0 | 0.0 | 0.00 | 0.00 | 0.00 | 32 | 1010.0 |
| 20260510131434 | 71 | 154 | 0.0 | 0.0 | 0.00 | 0.00 | 0.00 | 32 | 1009.9 |
| 20260510131334 | 71 | 154 | 0.0 | 0.0 | 0.00 | 0.00 | 0.00 | 32 | 1009.9 |
| 20260510131216 | 71 | 154 | 0.0 | 0.0 | 0.00 | 0.00 | 0.00 | 32 | 1009.9 |
| 20260510131125 | 71 | 154 | 0.0 | 0.0 | 0.00 | 0.00 | 0.00 | 34 | 1009.8 |
| 20260510131027 | 71 | 195 | 0.0 | 0.0 | 0.00 | 0.00 | 0.00 | 34 | 1009.8 |
| 20260510130919 | 71 | 193 | 0.0 | 0.0 | 0.00 | 0.00 | 0.00 | 34 | 1009.8 |
| 20260510130820 | 71 | 193 | 0.0 | 0.0 | 0.00 | 0.00 | 0.00 | 34 | 1009.7 |
| 20260510130748 | 71 | 193 | 0.0 | 0.0 | 0.00 | 0.00 | 0.00 | 34 | 1009.7 |
| 20260510130635 | 71 | 193 | 0.0 | 0.0 | 0.00 | 0.00 | 0.00 | 33 | 1009.8 |
| 20260510130517 | 71 | 193 | 0.0 | 0.0 | 0.00 | 0.00 | 0.00 | 33 | 1009.8 |
| 20260510130419 | 71 | 193 | 0.0 | 0.0 | 0.00 | 0.00 | 0.00 | 33 | 1009.7 |
| 20260510130320 | 71 | 193 | 0.0 | 0.0 | 0.00 | 0.00 | 0.00 | 33 | 1009.7 |
| 20260510130230 | 71 | 193 | 0.0 | 0.0 | 0.00 | 0.00 | 0.00 | 33 | 1009.7 |
| 20260510130116 | 71 | 193 | 0.0 | 0.0 | 0.00 | 0.00 | 0.00 | 32 | 1009.8 |
| 20260510130029 | 71 | 193 | 0.0 | 0.0 | 0.00 | 0.00 | 0.00 | 33 | 1009.8 |
| 20260510125926 | 71 | 193 | 0.0 | 0.0 | 0.00 | 0.00 | 0.00 | 33 | 1009.8 |
| 20260510125832 | 71 | 193 | 0.0 | 0.0 | 0.00 | 0.00 | 0.00 | 33 | 1009.7 |
| 20260510125753 | 71 | 193 | 0.0 | 0.0 | 0.00 | 0.00 | 0.00 | 33 | 1009.7 |
| 20260510125642 | 71 | 192 | 0.0 | 0.0 | 0.00 | 0.00 | 0.00 | 33 | 1009.7 |
| 20260510125523 | 71 | 192 | 0.0 | 0.0 | 0.00 | 0.00 | 0.00 | 33 | 1009.6 |
| 20260510125429 | 71 | 192 | 0.0 | 0.0 | 0.00 | 0.00 | 0.00 | 33 | 1009.6 |
| 20260510125359 | 71 | 192 | 0.0 | 0.0 | 0.00 | 0.00 | 0.00 | 33 | 1009.6 |
| 20260510125220 | 71 | 192 | 0.0 | 0.0 | 0.00 | 0.00 | 0.00 | 33 | 1009.8 |
| 20260510125122 | 71 | 192 | 0.0 | 0.0 | 0.00 | 0.00 | 0.00 | 33 | 1009.8 |
| 20260510125032 | 71 | 192 | 0.0 | 0.0 | 0.00 | 0.00 | 0.00 | 33 | 1009.8 |
| 20260510124932 | 71 | 192 | 0.0 | 0.0 | 0.00 | 0.00 | 0.00 | 33 | 1009.8 |
| 20260510124819 | 71 | 192 | 0.0 | 0.0 | 0.00 | 0.00 | 0.00 | 32 | 1009.7 |
| 20260510124722 | 71 | 191 | 0.0 | 0.0 | 0.00 | 0.00 | 0.00 | 33 | 1009.8 |
| 20260510124631 | 71 | 192 | 0.0 | 0.0 | 0.00 | 0.00 | 0.00 | 33 | 1009.7 |
| 20260510124533 | 71 | 192 | 0.0 | 0.0 | 0.00 | 0.00 | 0.00 | 33 | 1009.7 |
| 20260510124434 | 71 | 192 | 0.0 | 0.0 | 0.00 | 0.00 | 0.00 | 33 | 1009.7 |
| 20260510124342 | 71 | 192 | 0.0 | 0.0 | 0.00 | 0.00 | 0.00 | 32 | 1009.8 |
| 20260510124228 | 71 | 192 | 0.0 | 0.0 | 0.00 | 0.00 | 0.00 | 32 | 1009.8 |
| 20260510124130 | 71 | 192 | 0.0 | 0.0 | 0.00 | 0.00 | 0.00 | 32 | 1009.8 |
| 20260510124039 | 71 | 192 | 0.0 | 0.0 | 0.00 | 0.00 | 0.00 | 31 | 1009.8 |
| 20260510123940 | 72 | 192 | 0.0 | 0.0 | 0.00 | 0.00 | 0.00 | 31 | 1009.8 |
| 20260510123826 | 72 | 192 | 0.0 | 0.0 | 0.00 | 0.00 | 0.00 | 31 | 1009.7 |
| 20260510123756 | 72 | 192 | 0.0 | 0.0 | 0.00 | 0.00 | 0.00 | 30 | 1009.7 |
| 20260510123635 | 72 | 192 | 0.0 | 0.0 | 0.00 | 0.00 | 0.00 | 30 | 1009.6 |
| 20260510123439 | 72 | 192 | 0.0 | 0.0 | 0.00 | 0.00 | 0.00 | 29 | 1009.7 |
| 20260510123321 | 72 | 192 | 0.0 | 0.0 | 0.00 | 0.00 | 0.00 | 29 | 1009.7 |
| 20260510123222 | 72 | 192 | 0.0 | 0.0 | 0.00 | 0.00 | 0.00 | 29 | 1009.7 |
| 20260510123123 | 72 | 192 | 0.0 | 0.0 | 0.00 | 0.00 | 0.00 | 29 | 1009.6 |
| 20260510123032 | 72 | 192 | 0.0 | 0.0 | 0.00 | 0.00 | 0.00 | 29 | 1009.8 |
| 20260510122918 | 72 | 192 | 0.0 | 0.0 | 0.00 | 0.00 | 0.00 | 28 | 1009.8 |
| 20260510122820 | 72 | 192 | 0.0 | 0.0 | 0.00 | 0.00 | 0.00 | 28 | 1009.7 |
| 20260510122722 | 73 | 221 | 0.0 | 0.0 | 0.00 | 0.00 | 0.00 | 28 | 1009.7 |
| 20260510122632 | 73 | 221 | 0.0 | 0.0 | 0.00 | 0.00 | 0.00 | 27 | 1009.6 |
| 20260510122533 | 73 | 271 | 0.0 | 0.0 | 0.00 | 0.00 | 0.00 | 27 | 1009.7 |
| 20260510122435 | 73 | 271 | 0.0 | 0.0 | 0.00 | 0.00 | 0.00 | 27 | 1009.7 |
| 20260510122321 | 73 | 245 | 0.0 | 0.0 | 0.00 | 0.00 | 0.00 | 27 | 1009.6 |
| 20260510122229 | 73 | 245 | 0.0 | 0.0 | 0.00 | 0.00 | 0.00 | 27 | 1009.6 |
| 20260510122131 | 73 | 245 | 0.0 | 0.0 | 0.00 | 0.00 | 0.00 | 27 | 1009.6 |
| 20260510122033 | 73 | 245 | 0.0 | 0.0 | 0.00 | 0.00 | 0.00 | 26 | 1009.5 |
| 20260510121942 | 73 | 245 | 0.0 | 0.0 | 0.00 | 0.00 | 0.00 | 26 | 1009.5 |
| 20260510121823 | 73 | 245 | 0.0 | 0.0 | 0.00 | 0.00 | 0.00 | 27 | 1009.5 |
| 20260510121729 | 73 | 245 | 0.0 | 0.0 | 0.00 | 0.00 | 0.00 | 27 | 1009.5 |
| 20260510121630 | 73 | 245 | 0.0 | 0.0 | 0.00 | 0.00 | 0.00 | 26 | 1009.5 |
| 20260510121540 | 73 | 245 | 0.0 | 0.0 | 0.00 | 0.00 | 0.00 | 26 | 1009.5 |
| 20260510121421 | 73 | 245 | 0.0 | 0.0 | 0.00 | 0.00 | 0.00 | 25 | 1009.6 |
| 20260510121323 | 74 | 245 | 0.0 | 0.0 | 0.00 | 0.00 | 0.00 | 24 | 1009.5 |
| 20260510121223 | 74 | 245 | 0.0 | 0.0 | 0.00 | 0.00 | 0.00 | 23 | 1009.6 |
| 20260510121117 | 74 | 245 | 0.0 | 0.0 | 0.00 | 0.00 | 0.00 | 22 | 1009.5 |
| 20260510121039 | 74 | 245 | 0.0 | 0.0 | 0.00 | 0.00 | 0.00 | 21 | 1009.5 |
| 20260510120947 | 74 | 245 | 0.0 | 0.0 | 0.00 | 0.00 | 0.00 | 21 | 1009.5 |
| 20260510120827 | 74 | 245 | 0.0 | 0.0 | 0.00 | 0.00 | 0.00 | 20 | 1009.5 |
| 20260510120737 | 74 | 245 | 0.0 | 0.0 | 0.00 | 0.00 | 0.00 | 20 | 1009.5 |
| 20260510120619 | 74 | 245 | 0.0 | 0.0 | 0.00 | 0.00 | 0.00 | 20 | 1009.5 |
| 20260510120521 | 74 | 245 | 0.0 | 0.0 | 0.00 | 0.00 | 0.00 | 20 | 1009.5 |
| 20260510120427 | 74 | 245 | 0.0 | 0.0 | 0.00 | 0.00 | 0.00 | 20 | 1009.4 |
| 20260510120335 | 74 | 245 | 0.0 | 0.0 | 0.00 | 0.00 | 0.00 | 20 | 1009.5 |
| 20260510120236 | 74 | 245 | 0.0 | 0.0 | 0.00 | 0.00 | 0.00 | 20 | 1009.5 |
| 20260510120117 | 74 | 245 | 0.0 | 0.0 | 0.00 | 0.00 | 0.00 | 20 | 1009.5 |
| 20260510120038 | 74 | 245 | 0.0 | 0.0 | 0.00 | 0.00 | 0.00 | 20 | 1009.5 |
| 20260510115947 | 74 | 245 | 0.0 | 0.0 | 0.00 | 0.00 | 0.00 | 20 | 1009.5 |
| 20260510115839 | 74 | 245 | 0.0 | 0.0 | 0.00 | 0.00 | 0.00 | 20 | 1009.5 |
| 20260510115721 | 74 | 245 | 0.0 | 0.0 | 0.00 | 0.00 | 0.00 | 20 | 1009.4 |
| 20260510115623 | 75 | 245 | 0.0 | 0.0 | 0.00 | 0.00 | 0.00 | 20 | 1009.4 |
| 20260510115526 | 75 | 245 | 0.0 | 0.0 | 0.00 | 0.00 | 0.00 | 20 | 1009.5 |
| 20260510115455 | 75 | 245 | 0.0 | 0.0 | 0.00 | 0.00 | 0.00 | 20 | 1009.3 |
| 20260510115334 | 75 | 245 | 0.0 | 0.0 | 0.00 | 0.00 | 0.00 | 20 | 1009.4 |
| 20260510115219 | 75 | 245 | 0.0 | 0.0 | 0.00 | 0.00 | 0.00 | 19 | 1009.4 |
| 20260510115128 | 75 | 245 | 0.0 | 0.0 | 0.00 | 0.00 | 0.00 | 19 | 1009.4 |
| 20260510115058 | 75 | 245 | 0.0 | 0.0 | 0.00 | 0.00 | 0.00 | 19 | 1009.4 |
| 20260510114916 | 75 | 245 | 0.0 | 0.0 | 0.00 | 0.00 | 0.00 | 19 | 1009.3 |
| 20260510114818 | 75 | 245 | 0.0 | 0.0 | 0.00 | 0.00 | 0.00 | 19 | 1009.3 |
| 20260510114726 | 75 | 245 | 0.0 | 0.0 | 0.00 | 0.00 | 0.00 | 19 | 1009.2 |
| 20260510114629 | 75 | 245 | 0.0 | 0.0 | 0.00 | 0.00 | 0.00 | 19 | 1009.2 |
| 20260510114535 | 75 | 245 | 0.0 | 0.0 | 0.00 | 0.00 | 0.00 | 19 | 1009.2 |
| 20260510114417 | 76 | 245 | 0.0 | 0.0 | 0.00 | 0.00 | 0.00 | 19 | 1009.2 |
| 20260510114327 | 76 | 245 | 0.0 | 0.0 | 0.00 | 0.00 | 0.00 | 18 | 1009.2 |
| 20260510114228 | 76 | 245 | 0.0 | 0.0 | 0.00 | 0.00 | 0.00 | 18 | 1009.2 |
| 20260510114130 | 76 | 245 | 0.0 | 0.0 | 0.00 | 0.00 | 0.00 | 19 | 1009.2 |
| 20260510114040 | 76 | 245 | 0.0 | 0.0 | 0.00 | 0.00 | 0.00 | 18 | 1009.2 |
| 20260510113926 | 76 | 245 | 0.0 | 0.0 | 0.00 | 0.00 | 0.00 | 18 | 1009.2 |
| 20260510113827 | 77 | 245 | 0.0 | 0.0 | 0.00 | 0.00 | 0.00 | 18 | 1009.2 |
| 20260510113729 | 77 | 245 | 0.0 | 0.0 | 0.00 | 0.00 | 0.00 | 17 | 1009.2 |
| 20260510113639 | 77 | 245 | 0.0 | 0.0 | 0.00 | 0.00 | 0.00 | 17 | 1009.2 |
| 20260510113521 | 77 | 245 | 0.0 | 0.0 | 0.00 | 0.00 | 0.00 | 17 | 1009.2 |
| 20260510113424 | 77 | 245 | 0.0 | 0.0 | 0.00 | 0.00 | 0.00 | 17 | 1009.2 |
| 20260510113328 | 77 | 245 | 0.0 | 0.0 | 0.00 | 0.00 | 0.00 | 17 | 1009.1 |
| 20260510113238 | 77 | 245 | 0.0 | 0.0 | 0.00 | 0.00 | 0.00 | 17 | 1009.1 |
| 20260510113119 | 78 | 245 | 0.0 | 0.0 | 0.00 | 0.00 | 0.00 | 17 | 1009.1 |
| 20260510113018 | 78 | 245 | 0.0 | 0.0 | 0.00 | 0.00 | 0.00 | 17 | 1009.1 |
| 20260510112925 | 78 | 245 | 0.0 | 0.0 | 0.00 | 0.00 | 0.00 | 17 | 1009.2 |
| 20260510112826 | 78 | 245 | 0.0 | 0.0 | 0.00 | 0.00 | 0.00 | 17 | 1009.1 |
| 20260510112740 | 78 | 245 | 0.0 | 0.0 | 0.00 | 0.00 | 0.00 | 16 | 1009.1 |
| 20260510112623 | 78 | 245 | 0.0 | 0.0 | 0.00 | 0.00 | 0.00 | 16 | 1009.1 |
| 20260510112526 | 78 | 245 | 0.0 | 0.0 | 0.00 | 0.00 | 0.00 | 16 | 1009.1 |
| 20260510112427 | 78 | 245 | 0.0 | 0.0 | 0.00 | 0.00 | 0.00 | 16 | 1009.1 |
| 20260510112356 | 78 | 245 | 0.0 | 0.0 | 0.00 | 0.00 | 0.00 | 17 | 1009.1 |
| 20260510112217 | 78 | 245 | 0.0 | 0.0 | 0.00 | 0.00 | 0.00 | 16 | 1009.1 |
| 20260510112123 | 79 | 245 | 0.0 | 0.0 | 0.00 | 0.00 | 0.00 | 16 | 1009.1 |
| 20260510112032 | 79 | 245 | 0.0 | 0.0 | 0.00 | 0.00 | 0.00 | 16 | 1009.0 |
| 20260510111934 | 79 | 245 | 0.0 | 0.0 | 0.00 | 0.00 | 0.00 | 16 | 1009.0 |
| 20260510111834 | 79 | 245 | 0.0 | 0.0 | 0.00 | 0.00 | 0.00 | 16 | 1009.0 |
| 20260510111741 | 79 | 245 | 0.0 | 0.0 | 0.00 | 0.00 | 0.00 | 16 | 1009.0 |
| 20260510111623 | 79 | 245 | 0.0 | 0.0 | 0.00 | 0.00 | 0.00 | 16 | 1009.0 |
| 20260510111529 | 79 | 245 | 0.0 | 0.0 | 0.00 | 0.00 | 0.00 | 16 | 1009.0 |
| 20260510111432 | 79 | 245 | 0.0 | 0.0 | 0.00 | 0.00 | 0.00 | 16 | 1008.9 |
| 20260510111341 | 79 | 245 | 0.0 | 0.0 | 0.00 | 0.00 | 0.00 | 16 | 1008.9 |
| 20260510111223 | 79 | 245 | 0.0 | 0.0 | 0.00 | 0.00 | 0.00 | 16 | 1009.0 |
| 20260510111125 | 79 | 245 | 0.0 | 0.0 | 0.00 | 0.00 | 0.00 | 16 | 1009.0 |
| 20260510111026 | 79 | 245 | 0.0 | 0.0 | 0.00 | 0.00 | 0.00 | 16 | 1009.0 |
| 20260510110830 | 79 | 245 | 0.0 | 0.0 | 0.00 | 0.00 | 0.00 | 16 | 1009.0 |
| 20260510110751 | 79 | 245 | 0.0 | 0.0 | 0.00 | 0.00 | 0.00 | 16 | 1009.0 |
| 20260510110618 | 79 | 245 | 0.0 | 0.0 | 0.00 | 0.00 | 0.00 | 16 | 1008.9 |
| 20260510110547 | 80 | 245 | 0.0 | 0.0 | 0.00 | 0.00 | 0.00 | 16 | 1009.0 |
| 20260510110448 | 80 | 245 | 0.0 | 0.0 | 0.00 | 0.00 | 0.00 | 16 | 1008.9 |
| 20260510110356 | 80 | 245 | 0.0 | 0.0 | 0.00 | 0.00 | 0.00 | 16 | 1009.0 |
| 20260510110216 | 80 | 245 | 0.0 | 0.0 | 0.00 | 0.00 | 0.00 | 16 | 1008.9 |
| 20260510110148 | 80 | 245 | 0.0 | 0.0 | 0.00 | 0.00 | 0.00 | 16 | 1008.9 |
| 20260510110046 | 80 | 245 | 0.0 | 0.0 | 0.00 | 0.00 | 0.00 | 16 | 1008.9 |
| 20260510105932 | 80 | 245 | 0.0 | 0.0 | 0.00 | 0.00 | 0.00 | 16 | 1008.9 |
| 20260510105834 | 80 | 245 | 0.0 | 0.0 | 0.00 | 0.00 | 0.00 | 16 | 1008.9 |
| 20260510105741 | 80 | 245 | 0.0 | 0.0 | 0.00 | 0.00 | 0.00 | 16 | 1008.9 |
| 20260510105623 | 80 | 245 | 0.0 | 0.0 | 0.00 | 0.00 | 0.00 | 16 | 1008.9 |
| 20260510105551 | 80 | 245 | 0.0 | 0.0 | 0.00 | 0.00 | 0.00 | 16 | 1008.9 |
| 20260510105418 | 79 | 245 | 0.0 | 0.0 | 0.00 | 0.00 | 0.00 | 16 | 1008.9 |
| 20260510105339 | 79 | 245 | 0.0 | 0.0 | 0.00 | 0.00 | 0.00 | 16 | 1008.8 |
| 20260510105227 | 79 | 245 | 0.0 | 0.0 | 0.00 | 0.00 | 0.00 | 16 | 1008.8 |
| 20260510105156 | 79 | 245 | 0.0 | 0.0 | 0.00 | 0.00 | 0.00 | 16 | 1008.8 |
| 20260510105017 | 79 | 245 | 0.0 | 0.0 | 0.00 | 0.00 | 0.00 | 16 | 1008.9 |
| 20260510104937 | 79 | 245 | 0.0 | 0.0 | 0.00 | 0.00 | 0.00 | 16 | 1008.8 |
| 20260510104826 | 79 | 245 | 0.0 | 0.0 | 0.00 | 0.00 | 0.00 | 16 | 1008.9 |
| 20260510104726 | 79 | 245 | 0.0 | 0.0 | 0.00 | 0.00 | 0.00 | 17 | 1008.8 |
| 20260510104640 | 79 | 245 | 0.0 | 0.0 | 0.00 | 0.00 | 0.00 | 17 | 1008.8 |
| 20260510104541 | 78 | 245 | 0.0 | 0.0 | 0.00 | 0.00 | 0.00 | 17 | 1008.8 |
| 20260510104420 | 78 | 245 | 0.0 | 0.0 | 0.00 | 0.00 | 0.00 | 17 | 1008.8 |
| 20260510104329 | 78 | 245 | 0.0 | 0.0 | 0.00 | 0.00 | 0.00 | 17 | 1008.8 |
| 20260510104232 | 78 | 245 | 0.0 | 0.0 | 0.00 | 0.00 | 0.00 | 17 | 1008.9 |
| 20260510104134 | 78 | 245 | 0.0 | 0.0 | 0.00 | 0.00 | 0.00 | 17 | 1008.9 |
| 20260510104043 | 78 | 245 | 0.0 | 0.0 | 0.00 | 0.00 | 0.00 | 18 | 1008.9 |
| 20260510103928 | 78 | 245 | 0.0 | 0.0 | 0.00 | 0.00 | 0.00 | 18 | 1008.9 |
| 20260510103829 | 78 | 245 | 0.0 | 0.0 | 0.00 | 0.00 | 0.00 | 18 | 1008.9 |
| 20260510103739 | 78 | 245 | 0.0 | 0.0 | 0.00 | 0.00 | 0.00 | 18 | 1008.9 |
| 20260510103621 | 78 | 245 | 0.0 | 0.0 | 0.00 | 0.00 | 0.00 | 18 | 1008.9 |
| 20260510103551 | 78 | 245 | 0.0 | 0.0 | 0.00 | 0.00 | 0.00 | 18 | 1008.9 |
| 20260510103431 | 78 | 245 | 0.0 | 0.0 | 0.00 | 0.00 | 0.00 | 19 | 1008.8 |
| 20260510103317 | 77 | 245 | 0.0 | 0.0 | 0.00 | 0.00 | 0.00 | 19 | 1009.0 |
| 20260510103246 | 77 | 245 | 0.0 | 0.0 | 0.00 | 0.00 | 0.00 | 19 | 1009.0 |
| 20260510103127 | 78 | 245 | 0.0 | 0.0 | 0.00 | 0.00 | 0.00 | 19 | 1008.9 |
| 20260510103029 | 77 | 245 | 0.0 | 0.0 | 0.00 | 0.00 | 0.00 | 19 | 1009.0 |
| 20260510102829 | 78 | 245 | 0.0 | 0.0 | 0.00 | 0.00 | 0.00 | 19 | 1008.9 |
| 20260510102736 | 78 | 245 | 0.0 | 0.0 | 0.00 | 0.00 | 0.00 | 19 | 1008.9 |
| 20260510102704 | 78 | 245 | 0.0 | 0.0 | 0.00 | 0.00 | 0.00 | 19 | 1008.9 |
| 20260510102524 | 78 | 245 | 0.0 | 0.0 | 0.00 | 0.00 | 0.00 | 19 | 1008.9 |
| 20260510102444 | 78 | 245 | 0.0 | 0.0 | 0.00 | 0.00 | 0.00 | 19 | 1008.9 |
| 20260510102333 | 78 | 245 | 0.0 | 0.0 | 0.00 | 0.00 | 0.00 | 19 | 1008.9 |
| 20260510102215 | 78 | 245 | 0.0 | 0.0 | 0.00 | 0.00 | 0.00 | 18 | 1008.8 |
| 20260510102117 | 78 | 245 | 0.0 | 0.0 | 0.00 | 0.00 | 0.00 | 18 | 1008.8 |
| 20260510102023 | 78 | 245 | 0.0 | 0.0 | 0.00 | 0.00 | 0.00 | 18 | 1008.8 |
| 20260510101932 | 78 | 245 | 0.0 | 0.0 | 0.00 | 0.00 | 0.00 | 18 | 1008.8 |
| 20260510101834 | 78 | 245 | 0.0 | 0.0 | 0.00 | 0.00 | 0.00 | 18 | 1008.7 |
| 20260510101803 | 78 | 245 | 0.0 | 0.0 | 0.00 | 0.00 | 0.00 | 18 | 1008.7 |
| 20260510101621 | 78 | 245 | 0.0 | 0.0 | 0.00 | 0.00 | 0.00 | 18 | 1008.8 |
| 20260510101550 | 78 | 245 | 0.0 | 0.0 | 0.00 | 0.00 | 0.00 | 19 | 1008.8 |
| 20260510101431 | 78 | 245 | 0.0 | 0.0 | 0.00 | 0.00 | 0.00 | 19 | 1008.7 |
| 20260510101317 | 78 | 245 | 0.0 | 0.0 | 0.00 | 0.00 | 0.00 | 19 | 1008.8 |
| 20260510101226 | 78 | 245 | 0.0 | 0.0 | 0.00 | 0.00 | 0.00 | 18 | 1008.7 |
| 20260510101148 | 78 | 244 | 0.0 | 0.0 | 0.00 | 0.00 | 0.00 | 18 | 1008.7 |
| 20260510101055 | 78 | 244 | 0.0 | 0.0 | 0.00 | 0.00 | 0.00 | 18 | 1008.7 |
| 20260510100916 | 78 | 244 | 0.0 | 0.0 | 0.00 | 0.00 | 0.00 | 18 | 1008.7 |
| 20260510100817 | 78 | 244 | 0.0 | 0.0 | 0.00 | 0.00 | 0.00 | 18 | 1008.7 |
| 20260510100725 | 78 | 244 | 0.0 | 0.0 | 0.00 | 0.00 | 0.00 | 18 | 1008.7 |
| 20260510100654 | 78 | 244 | 0.0 | 0.0 | 0.00 | 0.00 | 0.00 | 18 | 1008.8 |
| 20260510100538 | 78 | 245 | 0.0 | 0.0 | 0.00 | 0.00 | 0.00 | 18 | 1008.7 |
| 20260510100418 | 78 | 245 | 0.0 | 0.0 | 0.00 | 0.00 | 0.00 | 18 | 1008.8 |
| 20260510100327 | 78 | 245 | 0.0 | 0.0 | 0.00 | 0.00 | 0.00 | 18 | 1008.7 |
| 20260510100226 | 78 | 244 | 0.0 | 0.0 | 0.00 | 0.00 | 0.00 | 18 | 1008.6 |
| 20260510100137 | 78 | 245 | 0.0 | 0.0 | 0.00 | 0.00 | 0.00 | 18 | 1008.6 |
| 20260510100029 | 78 | 244 | 0.0 | 0.0 | 0.00 | 0.00 | 0.00 | 18 | 1008.7 |
| 20260510095925 | 78 | 245 | 0.0 | 0.0 | 0.00 | 0.00 | 0.00 | 18 | 1008.6 |
| 20260510095826 | 78 | 245 | 0.0 | 0.0 | 0.00 | 0.00 | 0.00 | 18 | 1008.6 |
| 20260510095757 | 78 | 245 | 0.0 | 0.0 | 0.00 | 0.00 | 0.00 | 18 | 1008.6 |
| 20260510095617 | 78 | 245 | 0.0 | 0.0 | 0.00 | 0.00 | 0.00 | 18 | 1008.6 |
| 20260510095519 | 78 | 245 | 0.0 | 0.0 | 0.00 | 0.00 | 0.00 | 19 | 1008.6 |
| 20260510095426 | 78 | 245 | 0.0 | 0.0 | 0.00 | 0.00 | 0.00 | 19 | 1008.6 |
| 20260510095335 | 78 | 244 | 0.0 | 0.0 | 0.00 | 0.00 | 0.00 | 19 | 1008.6 |
| 20260510095219 | 78 | 244 | 0.0 | 0.0 | 0.00 | 0.00 | 0.00 | 19 | 1008.6 |
| 20260510095120 | 78 | 245 | 0.0 | 0.0 | 0.00 | 0.00 | 0.00 | 19 | 1008.7 |
| 20260510095030 | 78 | 245 | 0.0 | 0.0 | 0.00 | 0.00 | 0.00 | 19 | 1008.6 |
| 20260510094933 | 78 | 245 | 0.0 | 0.0 | 0.00 | 0.00 | 0.00 | 19 | 1008.6 |
| 20260510094815 | 78 | 244 | 0.0 | 0.0 | 0.00 | 0.00 | 0.00 | 19 | 1008.6 |
| 20260510094716 | 78 | 245 | 0.0 | 0.0 | 0.00 | 0.00 | 0.00 | 19 | 1008.6 |
| 20260510094629 | 78 | 245 | 0.0 | 0.0 | 0.00 | 0.00 | 0.00 | 19 | 1008.6 |
| 20260510094530 | 78 | 245 | 0.0 | 0.0 | 0.00 | 0.00 | 0.00 | 19 | 1008.6 |
| 20260510094431 | 78 | 245 | 0.0 | 0.0 | 0.00 | 0.00 | 0.00 | 20 | 1008.6 |
| 20260510094341 | 78 | 245 | 0.0 | 0.0 | 0.00 | 0.00 | 0.00 | 19 | 1008.6 |
| 20260510094223 | 78 | 244 | 0.0 | 0.0 | 0.00 | 0.00 | 0.00 | 19 | 1008.5 |
| 20260510094125 | 78 | 245 | 0.0 | 0.0 | 0.00 | 0.00 | 0.00 | 19 | 1008.5 |
| 20260510094058 | 78 | 244 | 0.0 | 0.0 | 0.00 | 0.00 | 0.00 | 18 | 1008.5 |
| 20260510093917 | 78 | 244 | 0.0 | 0.0 | 0.00 | 0.00 | 0.00 | 18 | 1008.5 |
| 20260510093819 | 78 | 245 | 0.0 | 0.0 | 0.00 | 0.00 | 0.00 | 19 | 1008.5 |
| 20260510093721 | 78 | 245 | 0.0 | 0.0 | 0.00 | 0.00 | 0.00 | 19 | 1008.4 |
| 20260510093631 | 78 | 244 | 0.0 | 0.0 | 0.00 | 0.00 | 0.00 | 18 | 1008.5 |
| 20260510093533 | 78 | 244 | 0.0 | 0.0 | 0.00 | 0.00 | 0.00 | 18 | 1008.4 |
| 20260510093445 | 79 | 244 | 0.0 | 0.0 | 0.00 | 0.00 | 0.00 | 18 | 1008.4 |
| 20260510093326 | 79 | 244 | 0.0 | 0.0 | 0.00 | 0.00 | 0.00 | 18 | 1008.4 |
| 20260510093227 | 79 | 244 | 0.0 | 0.0 | 0.00 | 0.00 | 0.00 | 18 | 1008.4 |
| 20260510093137 | 79 | 244 | 0.0 | 0.0 | 0.00 | 0.00 | 0.00 | 18 | 1008.4 |
| 20260510093017 | 79 | 244 | 0.0 | 0.0 | 0.00 | 0.00 | 0.00 | 17 | 1008.4 |
| 20260510092918 | 79 | 244 | 0.0 | 0.0 | 0.00 | 0.00 | 0.00 | 17 | 1008.4 |
| 20260510092826 | 79 | 244 | 0.0 | 0.0 | 0.00 | 0.00 | 0.00 | 18 | 1008.4 |
| 20260510092752 | 79 | 244 | 0.0 | 0.0 | 0.00 | 0.00 | 0.00 | 18 | 1008.4 |
| 20260510092639 | 79 | 244 | 0.0 | 0.0 | 0.00 | 0.00 | 0.00 | 18 | 1008.4 |
| 20260510092520 | 79 | 244 | 0.0 | 0.0 | 0.00 | 0.00 | 0.00 | 17 | 1008.4 |
| 20260510092421 | 79 | 244 | 0.0 | 0.0 | 0.00 | 0.00 | 0.00 | 17 | 1008.4 |
| 20260510092330 | 79 | 244 | 0.0 | 0.0 | 0.00 | 0.00 | 0.00 | 17 | 1008.4 |
| 20260510092232 | 79 | 244 | 0.0 | 0.0 | 0.00 | 0.00 | 0.00 | 17 | 1008.3 |
| 20260510092202 | 79 | 244 | 0.0 | 0.0 | 0.00 | 0.00 | 0.00 | 17 | 1008.3 |
| 20260510092027 | 79 | 244 | 0.0 | 0.0 | 0.00 | 0.00 | 0.00 | 17 | 1008.3 |
| 20260510091956 | 79 | 244 | 0.0 | 0.0 | 0.00 | 0.00 | 0.00 | 17 | 1008.3 |
| 20260510091816 | 79 | 244 | 0.0 | 0.0 | 0.00 | 0.00 | 0.00 | 17 | 1008.2 |
| 20260510091719 | 79 | 244 | 0.0 | 0.0 | 0.00 | 0.00 | 0.00 | 17 | 1008.3 |
| 20260510091620 | 80 | 244 | 0.0 | 0.0 | 0.00 | 0.00 | 0.00 | 18 | 1008.3 |
| 20260510091425 | 80 | 244 | 0.0 | 0.0 | 0.00 | 0.00 | 0.00 | 17 | 1008.2 |
| 20260510091327 | 80 | 244 | 0.0 | 0.0 | 0.00 | 0.00 | 0.00 | 16 | 1008.2 |
| 20260510091229 | 80 | 245 | 0.0 | 0.0 | 0.00 | 0.00 | 0.00 | 16 | 1008.3 |
| 20260510091139 | 80 | 244 | 0.0 | 0.0 | 0.00 | 0.00 | 0.00 | 16 | 1008.3 |
| 20260510091021 | 80 | 244 | 0.0 | 0.0 | 0.00 | 0.00 | 0.00 | 16 | 1008.1 |
| 20260510090923 | 81 | 244 | 0.0 | 0.0 | 0.00 | 0.00 | 0.00 | 16 | 1008.2 |
| 20260510090828 | 81 | 245 | 0.0 | 0.0 | 0.00 | 0.00 | 0.00 | 16 | 1008.1 |
| 20260510090738 | 81 | 244 | 0.0 | 0.0 | 0.00 | 0.00 | 0.00 | 16 | 1008.1 |
| 20260510090620 | 81 | 245 | 0.0 | 0.0 | 0.00 | 0.00 | 0.00 | 15 | 1008.1 |
| 20260510090521 | 82 | 245 | 0.0 | 0.0 | 0.00 | 0.00 | 0.00 | 16 | 1008.1 |
| 20260510090423 | 82 | 245 | 0.0 | 0.0 | 0.00 | 0.00 | 0.00 | 15 | 1008.1 |
| 20260510090332 | 82 | 245 | 0.0 | 0.0 | 0.00 | 0.00 | 0.00 | 15 | 1008.1 |
| 20260510090218 | 82 | 244 | 0.0 | 0.0 | 0.00 | 0.00 | 0.00 | 14 | 1008.1 |
| 20260510090140 | 82 | 245 | 0.0 | 0.0 | 0.00 | 0.00 | 0.00 | 14 | 1008.1 |
| 20260510090040 | 83 | 245 | 0.0 | 0.0 | 0.00 | 0.00 | 0.00 | 14 | 1008.1 |
| 20260510085958 | 83 | 244 | 0.0 | 0.0 | 0.00 | 0.00 | 0.00 | 14 | 1008.0 |
| 20260510085819 | 83 | 245 | 0.0 | 0.0 | 0.00 | 0.00 | 0.00 | 14 | 1008.0 |
| 20260510085720 | 83 | 245 | 0.0 | 0.0 | 0.00 | 0.00 | 0.00 | 14 | 1008.0 |
| 20260510085626 | 83 | 245 | 0.0 | 0.0 | 0.00 | 0.00 | 0.00 | 14 | 1008.0 |
| 20260510085535 | 83 | 245 | 0.0 | 0.0 | 0.00 | 0.00 | 0.00 | 14 | 1008.0 |
| 20260510085417 | 83 | 245 | 0.0 | 0.0 | 0.00 | 0.00 | 0.00 | 14 | 1007.9 |
| 20260510085320 | 83 | 245 | 0.0 | 0.0 | 0.00 | 0.00 | 0.00 | 14 | 1008.0 |
| 20260510085248 | 83 | 244 | 0.0 | 0.0 | 0.00 | 0.00 | 0.00 | 14 | 1008.0 |
| 20260510085159 | 83 | 245 | 0.0 | 0.0 | 0.00 | 0.00 | 0.00 | 14 | 1008.0 |
| 20260510085020 | 83 | 244 | 0.0 | 0.0 | 0.00 | 0.00 | 0.00 | 14 | 1007.9 |
| 20260510084925 | 83 | 244 | 0.0 | 0.0 | 0.00 | 0.00 | 0.00 | 14 | 1008.0 |
| 20260510084827 | 83 | 244 | 0.0 | 0.0 | 0.00 | 0.00 | 0.00 | 14 | 1007.9 |
| 20260510084736 | 83 | 245 | 0.0 | 0.0 | 0.00 | 0.00 | 0.00 | 14 | 1007.9 |
| 20260510084619 | 83 | 244 | 0.0 | 0.0 | 0.00 | 0.00 | 0.00 | 14 | 1007.9 |
| 20260510084521 | 83 | 245 | 0.0 | 0.0 | 0.00 | 0.00 | 0.00 | 14 | 1008.0 |
| 20260510084424 | 83 | 245 | 0.0 | 0.0 | 0.00 | 0.00 | 0.00 | 14 | 1007.9 |
| 20260510084315 | 83 | 245 | 0.0 | 0.0 | 0.00 | 0.00 | 0.00 | 14 | 1007.9 |
| 20260510084218 | 83 | 245 | 0.0 | 0.0 | 0.00 | 0.00 | 0.00 | 14 | 1007.9 |
| 20260510084121 | 83 | 245 | 0.0 | 0.0 | 0.00 | 0.00 | 0.00 | 14 | 1007.9 |
| 20260510084029 | 83 | 245 | 0.0 | 0.0 | 0.00 | 0.00 | 0.00 | 14 | 1007.9 |
| 20260510083930 | 83 | 245 | 0.0 | 0.0 | 0.00 | 0.00 | 0.00 | 14 | 1007.9 |
| 20260510083839 | 83 | 245 | 0.0 | 0.0 | 0.00 | 0.00 | 0.00 | 14 | 1007.9 |
| 20260510083725 | 83 | 244 | 0.0 | 0.0 | 0.00 | 0.00 | 0.00 | 14 | 1007.9 |
| 20260510083627 | 83 | 244 | 0.0 | 0.0 | 0.00 | 0.00 | 0.00 | 14 | 1007.9 |
| 20260510083527 | 83 | 245 | 0.0 | 0.0 | 0.00 | 0.00 | 0.00 | 14 | 1007.9 |
| 20260510083436 | 83 | 245 | 0.0 | 0.0 | 0.00 | 0.00 | 0.00 | 14 | 1007.9 |
| 20260510083337 | 83 | 244 | 0.0 | 0.0 | 0.00 | 0.00 | 0.00 | 14 | 1007.9 |
| 20260510083244 | 83 | 244 | 0.0 | 0.0 | 0.00 | 0.00 | 0.00 | 14 | 1007.9 |
| 20260510083126 | 83 | 245 | 0.0 | 0.0 | 0.00 | 0.00 | 0.00 | 14 | 1007.8 |
| 20260510083038 | 83 | 245 | 0.0 | 0.0 | 0.00 | 0.00 | 0.00 | 14 | 1007.9 |
| 20260510082919 | 83 | 245 | 0.0 | 0.0 | 0.00 | 0.00 | 0.00 | 14 | 1007.8 |
| 20260510082820 | 83 | 245 | 0.0 | 0.0 | 0.00 | 0.00 | 0.00 | 15 | 1007.9 |
| 20260510082748 | 83 | 245 | 0.0 | 0.0 | 0.00 | 0.00 | 0.00 | 15 | 1007.9 |
| 20260510082628 | 83 | 244 | 0.0 | 0.0 | 0.00 | 0.00 | 0.00 | 15 | 1007.9 |
| 20260510082537 | 83 | 245 | 0.0 | 0.0 | 0.00 | 0.00 | 0.00 | 14 | 1007.9 |
| 20260510082420 | 83 | 245 | 0.0 | 0.0 | 0.00 | 0.00 | 0.00 | 14 | 1008.0 |
| 20260510082325 | 83 | 245 | 0.0 | 0.0 | 0.00 | 0.00 | 0.00 | 14 | 1007.9 |
| 20260510082255 | 83 | 244 | 0.0 | 0.0 | 0.00 | 0.00 | 0.00 | 14 | 1008.0 |
| 20260510082115 | 83 | 245 | 0.0 | 0.0 | 0.00 | 0.00 | 0.00 | 14 | 1008.0 |
| 20260510082038 | 83 | 245 | 0.0 | 0.0 | 0.00 | 0.00 | 0.00 | 14 | 1008.0 |
| 20260510081925 | 83 | 245 | 0.0 | 0.0 | 0.00 | 0.00 | 0.00 | 14 | 1008.0 |
| 20260510081833 | 83 | 245 | 0.0 | 0.0 | 0.00 | 0.00 | 0.00 | 14 | 1008.0 |
| 20260510081733 | 83 | 245 | 0.0 | 0.0 | 0.00 | 0.00 | 0.00 | 14 | 1008.0 |
| 20260510081619 | 83 | 245 | 0.0 | 0.0 | 0.00 | 0.00 | 0.00 | 14 | 1008.0 |
| 20260510081548 | 83 | 245 | 0.0 | 0.0 | 0.00 | 0.00 | 0.00 | 14 | 1008.1 |
| 20260510081429 | 83 | 245 | 0.0 | 0.0 | 0.00 | 0.00 | 0.00 | 14 | 1008.0 |
| 20260510081330 | 83 | 245 | 0.0 | 0.0 | 0.00 | 0.00 | 0.00 | 14 | 1008.0 |
| 20260510081240 | 83 | 245 | 0.0 | 0.0 | 0.00 | 0.00 | 0.00 | 14 | 1008.0 |
| 20260510081121 | 83 | 245 | 0.0 | 0.0 | 0.00 | 0.00 | 0.00 | 14 | 1008.1 |
| 20260510081044 | 83 | 245 | 0.0 | 0.0 | 0.00 | 0.00 | 0.00 | 14 | 1008.2 |
| 20260510080936 | 83 | 245 | 0.0 | 0.0 | 0.00 | 0.00 | 0.00 | 14 | 1008.2 |
| 20260510080818 | 83 | 245 | 0.0 | 0.0 | 0.00 | 0.00 | 0.00 | 14 | 1008.0 |
| 20260510080720 | 83 | 245 | 0.0 | 0.0 | 0.00 | 0.00 | 0.00 | 14 | 1008.0 |
| 20260510080623 | 83 | 245 | 0.0 | 0.0 | 0.00 | 0.00 | 0.00 | 14 | 1008.0 |
| 20260510080532 | 84 | 245 | 0.0 | 0.0 | 0.00 | 0.00 | 0.00 | 14 | 1007.9 |
| 20260510080418 | 84 | 245 | 0.0 | 0.0 | 0.00 | 0.00 | 0.00 | 14 | 1008.0 |
| 20260510080320 | 84 | 245 | 0.0 | 0.0 | 0.00 | 0.00 | 0.00 | 14 | 1008.0 |
| 20260510080229 | 84 | 245 | 0.0 | 0.0 | 0.00 | 0.00 | 0.00 | 14 | 1008.0 |
| 20260510080129 | 84 | 245 | 0.0 | 0.0 | 0.00 | 0.00 | 0.00 | 14 | 1008.0 |
| 20260510080050 | 84 | 245 | 0.0 | 0.0 | 0.00 | 0.00 | 0.00 | 14 | 1008.0 |
| 20260510075934 | 84 | 245 | 0.0 | 0.0 | 0.00 | 0.00 | 0.00 | 14 | 1008.0 |
| 20260510075817 | 84 | 245 | 0.0 | 0.0 | 0.00 | 0.00 | 0.00 | 14 | 1008.0 |
| 20260510075723 | 84 | 245 | 0.0 | 0.0 | 0.00 | 0.00 | 0.00 | 14 | 1008.0 |
| 20260510075632 | 84 | 245 | 0.0 | 0.0 | 0.00 | 0.00 | 0.00 | 13 | 1008.0 |
| 20260510075534 | 84 | 245 | 0.0 | 0.0 | 0.00 | 0.00 | 0.00 | 14 | 1008.0 |
| 20260510075416 | 84 | 245 | 0.0 | 0.0 | 0.00 | 0.00 | 0.00 | 14 | 1008.0 |
| 20260510075317 | 84 | 245 | 0.0 | 0.0 | 0.00 | 0.00 | 0.00 | 13 | 1008.1 |
| 20260510075226 | 84 | 245 | 0.0 | 0.0 | 0.00 | 0.00 | 0.00 | 13 | 1008.1 |
| 20260510075132 | 84 | 245 | 0.0 | 0.0 | 0.00 | 0.00 | 0.00 | 13 | 1008.1 |
| 20260510075041 | 84 | 245 | 0.0 | 0.0 | 0.00 | 0.00 | 0.00 | 13 | 1008.1 |
| 20260510074942 | 84 | 245 | 0.0 | 0.0 | 0.00 | 0.00 | 0.00 | 13 | 1008.1 |
| 20260510074849 | 84 | 245 | 0.0 | 0.0 | 0.00 | 0.00 | 0.00 | 13 | 1008.1 |
| 20260510074730 | 84 | 245 | 0.0 | 0.0 | 0.00 | 0.00 | 0.00 | 13 | 1008.1 |
| 20260510074632 | 85 | 245 | 0.0 | 0.0 | 0.00 | 0.00 | 0.00 | 13 | 1008.1 |
| 20260510074517 | 85 | 245 | 0.0 | 0.0 | 0.00 | 0.00 | 0.00 | 13 | 1008.1 |
| 20260510074446 | 85 | 245 | 0.0 | 0.0 | 0.00 | 0.00 | 0.00 | 13 | 1008.1 |
| 20260510074333 | 85 | 245 | 0.0 | 0.0 | 0.00 | 0.00 | 0.00 | 13 | 1008.1 |
| 20260510074234 | 85 | 245 | 0.0 | 0.0 | 0.00 | 0.00 | 0.00 | 13 | 1008.1 |
| 20260510074117 | 85 | 245 | 0.0 | 0.0 | 0.00 | 0.00 | 0.00 | 13 | 1008.1 |
| 20260510074020 | 85 | 245 | 0.0 | 0.0 | 0.00 | 0.00 | 0.00 | 13 | 1008.1 |
| 20260510073948 | 85 | 245 | 0.0 | 0.0 | 0.00 | 0.00 | 0.00 | 13 | 1008.1 |
| 20260510073837 | 85 | 245 | 0.0 | 0.0 | 0.00 | 0.00 | 0.00 | 13 | 1008.1 |
| 20260510073722 | 85 | 245 | 0.0 | 0.0 | 0.00 | 0.00 | 0.00 | 13 | 1008.1 |
| 20260510073651 | 85 | 245 | 0.0 | 0.0 | 0.00 | 0.00 | 0.00 | 13 | 1008.1 |
| 20260510073532 | 85 | 245 | 0.0 | 0.0 | 0.00 | 0.00 | 0.00 | 13 | 1008.1 |
| 20260510073434 | 85 | 245 | 0.0 | 0.0 | 0.00 | 0.00 | 0.00 | 13 | 1008.1 |
| 20260510073343 | 85 | 245 | 0.0 | 0.0 | 0.00 | 0.00 | 0.00 | 13 | 1008.2 |
| 20260510073224 | 85 | 245 | 0.0 | 0.0 | 0.00 | 0.00 | 0.00 | 13 | 1008.2 |
| 20260510073126 | 85 | 245 | 0.0 | 0.0 | 0.00 | 0.00 | 0.00 | 13 | 1008.2 |
| 20260510073018 | 85 | 245 | 0.0 | 0.0 | 0.00 | 0.00 | 0.00 | 13 | 1008.1 |
| 20260510072919 | 85 | 245 | 0.0 | 0.0 | 0.00 | 0.00 | 0.00 | 13 | 1008.3 |
| 20260510072828 | 85 | 244 | 0.0 | 0.0 | 0.00 | 0.00 | 0.00 | 13 | 1008.2 |
| 20260510072730 | 85 | 245 | 0.0 | 0.0 | 0.00 | 0.00 | 0.00 | 13 | 1008.2 |
| 20260510072631 | 85 | 245 | 0.0 | 0.0 | 0.00 | 0.00 | 0.00 | 13 | 1008.1 |
| 20260510072540 | 85 | 245 | 0.0 | 0.0 | 0.00 | 0.00 | 0.00 | 13 | 1008.1 |
| 20260510072425 | 85 | 245 | 0.0 | 0.0 | 0.00 | 0.00 | 0.00 | 13 | 1008.2 |
| 20260510072326 | 85 | 245 | 0.0 | 0.0 | 0.00 | 0.00 | 0.00 | 13 | 1008.1 |
| 20260510072234 | 85 | 245 | 0.0 | 0.0 | 0.00 | 0.00 | 0.00 | 13 | 1008.2 |
| 20260510072155 | 85 | 245 | 0.0 | 0.0 | 0.00 | 0.00 | 0.00 | 14 | 1008.2 |
| 20260510072043 | 85 | 245 | 0.0 | 0.0 | 0.00 | 0.00 | 0.00 | 14 | 1008.2 |
| 20260510071924 | 85 | 245 | 0.0 | 0.0 | 0.00 | 0.00 | 0.00 | 14 | 1008.2 |
| 20260510071826 | 85 | 245 | 0.0 | 0.0 | 0.00 | 0.00 | 0.00 | 14 | 1008.1 |
| 20260510071740 | 85 | 245 | 0.0 | 0.0 | 0.00 | 0.00 | 0.00 | 14 | 1008.1 |
| 20260510071622 | 85 | 245 | 0.0 | 0.0 | 0.00 | 0.00 | 0.00 | 14 | 1008.1 |
| 20260510071544 | 85 | 245 | 0.0 | 0.0 | 0.00 | 0.00 | 0.00 | 14 | 1008.1 |
| 20260510071432 | 85 | 245 | 0.0 | 0.0 | 0.00 | 0.00 | 0.00 | 14 | 1008.1 |
| 20260510071335 | 85 | 245 | 0.0 | 0.0 | 0.00 | 0.00 | 0.00 | 14 | 1008.1 |
| 20260510071237 | 85 | 245 | 0.0 | 0.0 | 0.00 | 0.00 | 0.00 | 14 | 1008.1 |
| 20260510071125 | 85 | 245 | 0.0 | 0.0 | 0.00 | 0.00 | 0.00 | 14 | 1008.0 |
| 20260510071030 | 85 | 245 | 0.0 | 0.0 | 0.00 | 0.00 | 0.00 | 14 | 1008.1 |
| 20260510070931 | 85 | 245 | 0.0 | 0.0 | 0.00 | 0.00 | 0.00 | 14 | 1008.0 |
| 20260510070840 | 85 | 245 | 0.0 | 0.0 | 0.00 | 0.00 | 0.00 | 14 | 1008.0 |
| 20260510070721 | 85 | 245 | 0.0 | 0.0 | 0.00 | 0.00 | 0.00 | 14 | 1008.1 |
| 20260510070650 | 85 | 245 | 0.0 | 0.0 | 0.00 | 0.00 | 0.00 | 14 | 1008.0 |
| 20260510070531 | 85 | 245 | 0.0 | 0.0 | 0.00 | 0.00 | 0.00 | 14 | 1008.0 |
| 20260510070417 | 85 | 245 | 0.0 | 0.0 | 0.00 | 0.00 | 0.00 | 14 | 1008.0 |
| 20260510070327 | 85 | 245 | 0.0 | 0.0 | 0.00 | 0.00 | 0.00 | 14 | 1008.0 |
| 20260510070248 | 85 | 245 | 0.0 | 0.0 | 0.00 | 0.00 | 0.00 | 14 | 1008.1 |
| 20260510070138 | 85 | 245 | 0.0 | 0.0 | 0.00 | 0.00 | 0.00 | 14 | 1008.1 |
| 20260510070031 | 85 | 245 | 0.0 | 0.0 | 0.00 | 0.00 | 0.00 | 14 | 1008.0 |
| 20260510065921 | 85 | 245 | 0.0 | 0.0 | 0.00 | 0.00 | 0.00 | 14 | 1008.0 |
| 20260510065849 | 85 | 245 | 0.0 | 0.0 | 0.00 | 0.00 | 0.00 | 14 | 1008.0 |
| 20260510065735 | 85 | 245 | 0.0 | 0.0 | 0.00 | 0.00 | 0.00 | 14 | 1008.0 |
| 20260510065632 | 85 | 245 | 0.0 | 0.0 | 0.00 | 0.00 | 0.00 | 14 | 1008.0 |
| 20260510065534 | 85 | 245 | 0.0 | 0.0 | 0.00 | 0.00 | 0.00 | 15 | 1008.0 |
| 20260510065415 | 85 | 244 | 0.0 | 0.0 | 0.00 | 0.00 | 0.00 | 15 | 1008.0 |
| 20260510065317 | 85 | 244 | 0.0 | 0.0 | 0.00 | 0.00 | 0.00 | 15 | 1007.9 |
| 20260510065226 | 85 | 245 | 0.0 | 0.0 | 0.00 | 0.00 | 0.00 | 15 | 1007.9 |
| 20260510065133 | 85 | 245 | 0.0 | 0.0 | 0.00 | 0.00 | 0.00 | 15 | 1007.9 |
| 20260510065034 | 85 | 245 | 0.0 | 0.0 | 0.00 | 0.00 | 0.00 | 15 | 1007.9 |
| 20260510064921 | 85 | 245 | 0.0 | 0.0 | 0.00 | 0.00 | 0.00 | 15 | 1007.9 |
| 20260510064824 | 85 | 245 | 0.0 | 0.0 | 0.00 | 0.00 | 0.00 | 14 | 1007.9 |
| 20260510064725 | 85 | 245 | 0.0 | 0.0 | 0.00 | 0.00 | 0.00 | 14 | 1007.9 |
| 20260510064636 | 85 | 245 | 0.0 | 0.0 | 0.00 | 0.00 | 0.00 | 15 | 1007.9 |
| 20260510064538 | 85 | 245 | 0.0 | 0.0 | 0.00 | 0.00 | 0.00 | 14 | 1008.0 |
| 20260510064450 | 85 | 245 | 0.0 | 0.0 | 0.00 | 0.00 | 0.00 | 14 | 1008.0 |
| 20260510064331 | 85 | 245 | 0.0 | 0.0 | 0.00 | 0.00 | 0.00 | 14 | 1008.0 |
| 20260510064241 | 85 | 245 | 0.0 | 0.0 | 0.00 | 0.00 | 0.00 | 14 | 1008.0 |
| 20260510064121 | 85 | 245 | 0.0 | 0.0 | 0.00 | 0.00 | 0.00 | 14 | 1007.9 |
| 20260510064022 | 85 | 245 | 0.0 | 0.0 | 0.00 | 0.00 | 0.00 | 14 | 1008.0 |
| 20260510063930 | 85 | 245 | 0.0 | 0.0 | 0.00 | 0.00 | 0.00 | 14 | 1007.9 |
| 20260510063832 | 85 | 245 | 0.0 | 0.0 | 0.00 | 0.00 | 0.00 | 14 | 1008.0 |
| 20260510063724 | 85 | 245 | 0.0 | 0.0 | 0.00 | 0.00 | 0.00 | 14 | 1007.9 |
| 20260510063646 | 85 | 245 | 0.0 | 0.0 | 0.00 | 0.00 | 0.00 | 14 | 1007.9 |
| 20260510063535 | 85 | 245 | 0.0 | 0.0 | 0.00 | 0.00 | 0.00 | 15 | 1007.9 |
| 20260510063416 | 85 | 245 | 0.0 | 0.0 | 0.00 | 0.00 | 0.00 | 15 | 1007.9 |
| 20260510063318 | 85 | 245 | 0.0 | 0.0 | 0.00 | 0.00 | 0.00 | 15 | 1008.0 |
| 20260510063219 | 85 | 245 | 0.0 | 0.0 | 0.00 | 0.00 | 0.00 | 15 | 1008.0 |
| 20260510063129 | 85 | 245 | 0.0 | 0.0 | 0.00 | 0.00 | 0.00 | 15 | 1008.1 |
| 20260510063034 | 85 | 245 | 0.0 | 0.0 | 0.00 | 0.00 | 0.00 | 15 | 1008.0 |
| 20260510062916 | 85 | 245 | 0.0 | 0.0 | 0.00 | 0.00 | 0.00 | 15 | 1008.0 |
| 20260510062845 | 85 | 245 | 0.0 | 0.0 | 0.00 | 0.00 | 0.00 | 15 | 1007.9 |
| 20260510062726 | 85 | 245 | 0.0 | 0.0 | 0.00 | 0.00 | 0.00 | 15 | 1007.9 |
| 20260510062656 | 85 | 245 | 0.0 | 0.0 | 0.00 | 0.00 | 0.00 | 15 | 1007.8 |
| 20260510062517 | 85 | 245 | 0.0 | 0.0 | 0.00 | 0.00 | 0.00 | 15 | 1007.8 |
| 20260510062423 | 85 | 245 | 0.0 | 0.0 | 0.00 | 0.00 | 0.00 | 15 | 1007.8 |
| 20260510062330 | 85 | 245 | 0.0 | 0.0 | 0.00 | 0.00 | 0.00 | 15 | 1007.8 |
| 20260510062252 | 85 | 245 | 0.0 | 0.0 | 0.00 | 0.00 | 0.00 | 15 | 1007.8 |
| 20260510062140 | 85 | 245 | 0.0 | 0.0 | 0.00 | 0.00 | 0.00 | 15 | 1007.8 |
| 20260510062022 | 85 | 245 | 0.0 | 0.0 | 0.00 | 0.00 | 0.00 | 16 | 1007.8 |
| 20260510061923 | 85 | 245 | 0.0 | 0.0 | 0.00 | 0.00 | 0.00 | 16 | 1007.8 |
| 20260510061833 | 85 | 245 | 0.0 | 0.0 | 0.00 | 0.00 | 0.00 | 16 | 1007.8 |
| 20260510061717 | 85 | 245 | 0.0 | 0.0 | 0.00 | 0.00 | 0.00 | 16 | 1007.9 |
| 20260510061646 | 85 | 245 | 0.0 | 0.0 | 0.00 | 0.00 | 0.00 | 16 | 1007.9 |
| 20260510061526 | 85 | 245 | 0.0 | 0.0 | 0.00 | 0.00 | 0.00 | 16 | 1007.9 |
| 20260510061435 | 85 | 245 | 0.0 | 0.0 | 0.00 | 0.00 | 0.00 | 16 | 1007.9 |
| 20260510061317 | 85 | 245 | 0.0 | 0.0 | 0.00 | 0.00 | 0.00 | 15 | 1007.8 |
| 20260510061219 | 86 | 245 | 0.0 | 0.0 | 0.00 | 0.00 | 0.00 | 15 | 1007.9 |
| 20260510061121 | 86 | 245 | 0.0 | 0.0 | 0.00 | 0.00 | 0.00 | 15 | 1007.9 |
| 20260510061034 | 86 | 245 | 0.0 | 0.0 | 0.00 | 0.00 | 0.00 | 15 | 1007.9 |
| 20260510060916 | 86 | 245 | 0.0 | 0.0 | 0.00 | 0.00 | 0.00 | 15 | 1008.0 |
| 20260510060818 | 86 | 245 | 0.0 | 0.0 | 0.00 | 0.00 | 0.00 | 15 | 1007.9 |
| 20260510060747 | 86 | 244 | 0.0 | 0.0 | 0.00 | 0.00 | 0.00 | 15 | 1007.9 |
| 20260510060628 | 86 | 244 | 0.0 | 0.0 | 0.00 | 0.00 | 0.00 | 15 | 1007.9 |
| 20260510060528 | 86 | 244 | 0.0 | 0.0 | 0.00 | 0.00 | 0.00 | 15 | 1007.9 |
| 20260510060441 | 86 | 244 | 0.0 | 0.0 | 0.00 | 0.00 | 0.00 | 15 | 1007.9 |
| 20260510060323 | 86 | 244 | 0.0 | 0.0 | 0.00 | 0.00 | 0.00 | 15 | 1007.9 |
| 20260510060225 | 86 | 244 | 0.0 | 0.0 | 0.00 | 0.00 | 0.00 | 15 | 1007.9 |
| 20260510060125 | 87 | 244 | 0.0 | 0.0 | 0.00 | 0.00 | 0.00 | 15 | 1007.9 |
| 20260510060027 | 87 | 244 | 0.0 | 0.0 | 0.00 | 0.00 | 0.00 | 15 | 1008.0 |
| 20260510055917 | 87 | 244 | 0.0 | 0.0 | 0.00 | 0.00 | 0.00 | 15 | 1007.9 |
| 20260510055823 | 87 | 244 | 0.0 | 0.0 | 0.00 | 0.00 | 0.00 | 15 | 1007.9 |
| 20260510055733 | 87 | 244 | 0.0 | 0.0 | 0.00 | 0.00 | 0.00 | 15 | 1007.9 |
| 20260510055633 | 87 | 244 | 0.0 | 0.0 | 0.00 | 0.00 | 0.00 | 15 | 1007.8 |
| 20260510055515 | 87 | 244 | 0.0 | 0.0 | 0.00 | 0.00 | 0.00 | 15 | 1007.9 |
| 20260510055424 | 87 | 244 | 0.0 | 0.0 | 0.00 | 0.00 | 0.00 | 15 | 1007.9 |
| 20260510055333 | 87 | 244 | 0.0 | 0.0 | 0.00 | 0.00 | 0.00 | 14 | 1007.9 |
| 20260510055218 | 87 | 244 | 0.0 | 0.0 | 0.00 | 0.00 | 0.00 | 14 | 1007.9 |
| 20260510055121 | 87 | 244 | 0.0 | 0.0 | 0.00 | 0.00 | 0.00 | 14 | 1007.9 |
| 20260510055023 | 87 | 244 | 0.0 | 0.0 | 0.00 | 0.00 | 0.00 | 14 | 1007.9 |
| 20260510054932 | 87 | 244 | 0.0 | 0.0 | 0.00 | 0.00 | 0.00 | 14 | 1007.9 |
| 20260510054833 | 87 | 243 | 0.0 | 0.0 | 0.00 | 0.00 | 0.00 | 14 | 1007.8 |
| 20260510054743 | 87 | 243 | 0.0 | 0.0 | 0.00 | 0.00 | 0.00 | 14 | 1007.8 |
| 20260510054622 | 87 | 243 | 0.0 | 1.0 | 0.00 | 0.00 | 0.00 | 14 | 1007.8 |
| 20260510054529 | 87 | 243 | 0.0 | 1.0 | 0.00 | 0.00 | 0.00 | 14 | 1007.8 |
| 20260510054430 | 87 | 243 | 0.0 | 1.0 | 0.00 | 0.00 | 0.00 | 14 | 1007.8 |
| 20260510054340 | 87 | 243 | 0.0 | 1.0 | 0.00 | 0.00 | 0.00 | 14 | 1007.8 |
| 20260510054221 | 87 | 243 | 0.0 | 1.0 | 0.00 | 0.00 | 0.00 | 14 | 1007.7 |
| 20260510054142 | 88 | 243 | 0.0 | 1.0 | 0.00 | 0.00 | 0.00 | 14 | 1007.7 |
| 20260510054051 | 87 | 243 | 0.0 | 1.0 | 0.00 | 0.00 | 0.00 | 14 | 1007.7 |
| 20260510053939 | 87 | 243 | 0.0 | 1.0 | 0.00 | 0.00 | 0.00 | 14 | 1007.7 |
| 20260510053824 | 87 | 243 | 0.0 | 1.0 | 0.00 | 0.00 | 0.00 | 14 | 1007.7 |
| 20260510053725 | 87 | 243 | 0.0 | 0.0 | 0.00 | 0.00 | 0.00 | 14 | 1007.6 |
| 20260510053635 | 87 | 243 | 0.0 | 0.0 | 0.00 | 0.00 | 0.00 | 14 | 1007.6 |
| 20260510053517 | 87 | 243 | 0.0 | 0.0 | 0.00 | 0.00 | 0.00 | 14 | 1007.6 |
| 20260510053419 | 87 | 243 | 0.0 | 0.0 | 0.00 | 0.00 | 0.00 | 14 | 1007.6 |
| 20260510053346 | 87 | 243 | 0.0 | 0.0 | 0.00 | 0.00 | 0.00 | 14 | 1007.6 |
| 20260510053232 | 87 | 243 | 0.0 | 0.0 | 0.00 | 0.00 | 0.00 | 14 | 1007.6 |
| 20260510053132 | 87 | 243 | 0.0 | 0.0 | 0.00 | 0.00 | 0.00 | 14 | 1007.7 |
| 20260510053042 | 87 | 243 | 0.0 | 0.0 | 0.00 | 0.00 | 0.00 | 14 | 1007.7 |
| 20260510052922 | 87 | 243 | 0.0 | 0.0 | 0.00 | 0.00 | 0.00 | 15 | 1007.7 |
| 20260510052845 | 87 | 243 | 0.0 | 0.0 | 0.00 | 0.00 | 0.00 | 15 | 1007.6 |
| 20260510052733 | 87 | 243 | 0.0 | 0.0 | 0.00 | 0.00 | 0.00 | 15 | 1007.5 |
| 20260510052620 | 88 | 243 | 0.0 | 0.0 | 0.00 | 0.00 | 0.00 | 15 | 1007.6 |
| 20260510052549 | 88 | 243 | 0.0 | 0.0 | 0.00 | 0.00 | 0.00 | 15 | 1007.5 |
| 20260510052431 | 88 | 243 | 0.0 | 0.0 | 0.00 | 0.00 | 0.00 | 15 | 1007.5 |
| 20260510052333 | 88 | 243 | 0.0 | 0.0 | 0.00 | 0.00 | 0.00 | 15 | 1007.5 |
| 20260510052216 | 87 | 243 | 0.0 | 0.0 | 0.00 | 0.00 | 0.00 | 15 | 1007.6 |
| 20260510052125 | 88 | 243 | 0.0 | 0.0 | 0.00 | 0.00 | 0.00 | 15 | 1007.6 |
| 20260510052026 | 88 | 243 | 0.0 | 0.0 | 0.00 | 0.00 | 0.00 | 15 | 1007.6 |
| 20260510052001 | 88 | 243 | 0.0 | 0.0 | 0.00 | 0.00 | 0.00 | 15 | 1007.6 |
| 20260510051822 | 88 | 243 | 0.0 | 0.0 | 0.00 | 0.00 | 0.00 | 15 | 1007.6 |
| 20260510051725 | 88 | 243 | 0.0 | 0.0 | 0.00 | 0.00 | 0.00 | 15 | 1007.6 |
| 20260510051627 | 88 | 243 | 0.0 | 0.0 | 0.00 | 0.00 | 0.00 | 15 | 1007.5 |
| 20260510051536 | 88 | 243 | 0.0 | 0.0 | 0.00 | 0.00 | 0.00 | 15 | 1007.5 |
| 20260510051418 | 88 | 243 | 0.0 | 0.0 | 0.00 | 0.00 | 0.00 | 15 | 1007.5 |
| 20260510051324 | 88 | 243 | 0.0 | 0.0 | 0.00 | 0.00 | 0.00 | 15 | 1007.5 |
| 20260510051234 | 88 | 243 | 0.0 | 0.0 | 0.00 | 0.00 | 0.00 | 15 | 1007.5 |
| 20260510051134 | 88 | 243 | 0.0 | 0.0 | 0.00 | 0.00 | 0.00 | 15 | 1007.5 |
| 20260510051017 | 88 | 242 | 0.0 | 0.0 | 0.00 | 0.00 | 0.00 | 15 | 1007.5 |
| 20260510050946 | 88 | 242 | 0.0 | 0.0 | 0.00 | 0.00 | 0.00 | 15 | 1007.6 |
| 20260510050827 | 88 | 242 | 0.0 | 0.0 | 0.00 | 0.00 | 0.00 | 15 | 1007.6 |
| 20260510050755 | 88 | 242 | 0.0 | 0.0 | 0.00 | 0.00 | 0.00 | 15 | 1007.5 |
| 20260510050619 | 88 | 242 | 0.0 | 0.0 | 0.00 | 0.00 | 0.00 | 15 | 1007.5 |
| 20260510050542 | 88 | 242 | 0.0 | 0.0 | 0.00 | 0.00 | 0.00 | 15 | 1007.4 |
| 20260510050429 | 88 | 242 | 0.0 | 0.0 | 0.00 | 0.00 | 0.00 | 15 | 1007.5 |
| 20260510050331 | 88 | 242 | 0.0 | 0.0 | 0.00 | 0.00 | 0.00 | 15 | 1007.5 |
| 20260510050240 | 88 | 242 | 0.0 | 0.0 | 0.00 | 0.00 | 0.00 | 15 | 1007.5 |
| 20260510050122 | 88 | 242 | 0.0 | 0.0 | 0.00 | 0.00 | 0.00 | 15 | 1007.3 |
| 20260510050041 | 88 | 242 | 0.0 | 0.0 | 0.00 | 0.00 | 0.00 | 15 | 1007.3 |
| 20260510045933 | 88 | 242 | 0.0 | 0.0 | 0.00 | 0.00 | 0.00 | 15 | 1007.4 |
| 20260510045817 | 88 | 242 | 0.0 | 0.0 | 0.00 | 0.00 | 0.00 | 15 | 1007.4 |
| 20260510045718 | 88 | 242 | 0.0 | 0.0 | 0.00 | 0.00 | 0.00 | 15 | 1007.5 |
| 20260510045620 | 88 | 242 | 0.0 | 0.0 | 0.00 | 0.00 | 0.00 | 15 | 1007.3 |
| 20260510045528 | 88 | 242 | 0.0 | 0.0 | 0.00 | 0.00 | 0.00 | 15 | 1007.3 |
| 20260510045435 | 88 | 242 | 0.0 | 0.0 | 0.00 | 0.00 | 0.00 | 15 | 1007.4 |
| 20260510045320 | 88 | 242 | 0.0 | 0.0 | 0.00 | 0.00 | 0.00 | 15 | 1007.3 |
| 20260510045222 | 88 | 242 | 0.0 | 0.0 | 0.00 | 0.00 | 0.00 | 15 | 1007.3 |
| 20260510045131 | 88 | 242 | 0.0 | 0.0 | 0.00 | 0.00 | 0.00 | 15 | 1007.3 |
| 20260510045034 | 88 | 242 | 0.0 | 0.0 | 0.00 | 0.00 | 0.00 | 15 | 1007.2 |
| 20260510044916 | 88 | 241 | 0.0 | 0.0 | 0.00 | 0.00 | 0.00 | 15 | 1007.3 |
| 20260510044818 | 88 | 241 | 0.0 | 0.0 | 0.00 | 0.00 | 0.00 | 15 | 1007.3 |
| 20260510044731 | 88 | 241 | 0.0 | 0.0 | 0.00 | 0.00 | 0.00 | 15 | 1007.3 |
| 20260510044632 | 88 | 241 | 0.0 | 0.0 | 0.00 | 0.00 | 0.00 | 15 | 1007.2 |
| 20260510044604 | 88 | 241 | 0.0 | 0.0 | 0.00 | 0.00 | 0.00 | 15 | 1007.2 |
| 20260510044425 | 88 | 241 | 0.0 | 0.0 | 0.00 | 0.00 | 0.00 | 15 | 1007.2 |
| 20260510044327 | 88 | 241 | 0.0 | 0.0 | 0.00 | 0.00 | 0.00 | 15 | 1007.3 |
| 20260510044229 | 88 | 241 | 0.0 | 0.0 | 0.00 | 0.00 | 0.00 | 15 | 1007.2 |
| 20260510044142 | 88 | 241 | 0.0 | 0.0 | 0.00 | 0.00 | 0.00 | 15 | 1007.2 |
| 20260510044042 | 88 | 241 | 0.0 | 0.0 | 0.00 | 0.00 | 0.00 | 15 | 1007.2 |
| 20260510043930 | 88 | 240 | 0.0 | 0.0 | 0.00 | 0.00 | 0.00 | 15 | 1007.2 |
| 20260510043833 | 89 | 240 | 0.0 | 0.0 | 0.00 | 0.00 | 0.00 | 15 | 1007.2 |
| 20260510043742 | 89 | 240 | 0.0 | 0.0 | 0.00 | 0.00 | 0.00 | 15 | 1007.2 |
| 20260510043624 | 89 | 240 | 0.0 | 0.0 | 0.00 | 0.00 | 0.00 | 15 | 1007.2 |
| 20260510043524 | 89 | 240 | 0.0 | 0.0 | 0.00 | 0.00 | 0.00 | 15 | 1007.3 |
| 20260510043438 | 89 | 240 | 0.0 | 0.0 | 0.00 | 0.00 | 0.00 | 15 | 1007.2 |
| 20260510043339 | 89 | 240 | 0.0 | 0.0 | 0.00 | 0.00 | 0.00 | 15 | 1007.2 |
| 20260510043228 | 89 | 240 | 0.0 | 0.0 | 0.00 | 0.00 | 0.00 | 15 | 1007.2 |
| 20260510043130 | 89 | 240 | 0.0 | 0.0 | 0.00 | 0.00 | 0.00 | 15 | 1007.2 |
| 20260510043030 | 89 | 240 | 0.0 | 0.0 | 0.00 | 0.00 | 0.00 | 15 | 1007.2 |
| 20260510042940 | 89 | 240 | 0.0 | 0.0 | 0.00 | 0.00 | 0.00 | 15 | 1007.2 |
| 20260510042820 | 89 | 240 | 0.0 | 0.0 | 0.00 | 0.00 | 0.00 | 14 | 1007.1 |
| 20260510042744 | 89 | 239 | 0.0 | 0.0 | 0.00 | 0.00 | 0.00 | 14 | 1007.1 |
| 20260510042652 | 90 | 239 | 0.0 | 0.0 | 0.00 | 0.00 | 0.00 | 15 | 1007.0 |
| 20260510042519 | 90 | 239 | 0.0 | 0.0 | 0.00 | 0.00 | 0.00 | 14 | 1007.0 |
| 20260510042420 | 90 | 239 | 0.0 | 0.0 | 0.00 | 0.00 | 0.00 | 14 | 1007.0 |
| 20260510042323 | 90 | 239 | 0.0 | 0.0 | 0.00 | 0.00 | 0.00 | 14 | 1007.1 |
| 20260510042231 | 90 | 239 | 0.0 | 0.0 | 0.00 | 0.00 | 0.00 | 14 | 1007.0 |
| 20260510042133 | 90 | 239 | 0.0 | 0.0 | 0.00 | 0.00 | 0.00 | 14 | 1007.0 |
| 20260510042018 | 90 | 239 | 0.0 | 0.0 | 0.00 | 0.00 | 0.00 | 14 | 1007.0 |
| 20260510041927 | 90 | 239 | 0.0 | 0.0 | 0.00 | 0.00 | 0.00 | 14 | 1007.0 |
| 20260510041848 | 90 | 238 | 0.0 | 0.0 | 0.00 | 0.00 | 0.00 | 14 | 1007.0 |
| 20260510041756 | 90 | 238 | 0.0 | 0.0 | 0.00 | 0.00 | 0.00 | 14 | 1006.9 |
| 20260510041704 | 90 | 238 | 0.0 | 0.0 | 0.00 | 0.00 | 0.00 | 14 | 1006.9 |
| 20260510041523 | 90 | 238 | 0.0 | 0.0 | 0.00 | 0.00 | 0.00 | 14 | 1006.9 |
| 20260510041433 | 90 | 238 | 0.0 | 0.0 | 0.00 | 0.00 | 0.00 | 14 | 1007.0 |
| 20260510041334 | 90 | 238 | 0.0 | 0.0 | 0.00 | 0.00 | 0.00 | 14 | 1006.9 |
| 20260510041240 | 90 | 237 | 0.0 | 0.0 | 0.00 | 0.00 | 0.00 | 14 | 1006.9 |
| 20260510041128 | 90 | 237 | 0.0 | 0.0 | 0.00 | 0.00 | 0.00 | 14 | 1006.9 |
| 20260510041030 | 90 | 236 | 0.0 | 0.0 | 0.00 | 0.00 | 0.00 | 14 | 1006.8 |
| 20260510040933 | 90 | 236 | 0.0 | 0.0 | 0.00 | 0.00 | 0.00 | 14 | 1006.9 |
| 20260510040816 | 90 | 236 | 0.0 | 0.0 | 0.00 | 0.00 | 0.00 | 14 | 1006.9 |
| 20260510040725 | 90 | 235 | 0.0 | 0.0 | 0.00 | 0.00 | 0.00 | 14 | 1006.8 |
| 20260510040630 | 91 | 235 | 0.0 | 0.0 | 0.00 | 0.00 | 0.00 | 14 | 1006.9 |
| 20260510040539 | 91 | 235 | 0.0 | 0.0 | 0.00 | 0.00 | 0.00 | 14 | 1006.9 |
| 20260510040421 | 91 | 234 | 0.0 | 0.0 | 0.00 | 0.00 | 0.00 | 14 | 1006.9 |
| 20260510040342 | 91 | 234 | 0.0 | 0.0 | 0.00 | 0.00 | 0.00 | 13 | 1006.9 |
| 20260510040230 | 91 | 234 | 0.0 | 0.0 | 0.00 | 0.00 | 0.00 | 13 | 1006.8 |
| 20260510040131 | 91 | 234 | 0.0 | 0.0 | 0.00 | 0.00 | 0.00 | 13 | 1006.9 |
| 20260510040052 | 91 | 234 | 0.0 | 0.0 | 0.00 | 0.00 | 0.00 | 13 | 1006.9 |
| 20260510035926 | 91 | 234 | 0.0 | 0.0 | 0.00 | 0.00 | 0.00 | 13 | 1006.8 |
| 20260510035829 | 91 | 234 | 0.0 | 0.0 | 0.00 | 0.00 | 0.00 | 13 | 1006.7 |
| 20260510035758 | 91 | 233 | 0.0 | 0.0 | 0.00 | 0.00 | 0.00 | 13 | 1006.7 |
| 20260510035639 | 91 | 233 | 0.0 | 0.0 | 0.00 | 0.00 | 0.00 | 13 | 1006.8 |
| 20260510035519 | 91 | 233 | 0.0 | 0.0 | 0.00 | 0.00 | 0.00 | 13 | 1006.8 |
| 20260510035448 | 91 | 233 | 0.0 | 0.0 | 0.00 | 0.00 | 0.00 | 13 | 1006.7 |
| 20260510035337 | 91 | 233 | 0.0 | 0.0 | 0.00 | 0.00 | 0.00 | 13 | 1006.7 |
| 20260510035221 | 91 | 233 | 0.0 | 0.0 | 0.00 | 0.00 | 0.00 | 13 | 1006.7 |
| 20260510035123 | 91 | 232 | 0.0 | 0.0 | 0.00 | 0.00 | 0.00 | 13 | 1006.8 |
| 20260510035025 | 91 | 232 | 0.0 | 0.0 | 0.00 | 0.00 | 0.00 | 13 | 1006.7 |
| 20260510034933 | 91 | 231 | 0.0 | 0.0 | 0.00 | 0.00 | 0.00 | 13 | 1006.7 |
| 20260510034856 | 91 | 231 | 0.0 | 0.0 | 0.00 | 0.00 | 0.00 | 13 | 1006.6 |
| 20260510034716 | 91 | 231 | 0.0 | 0.0 | 0.00 | 0.00 | 0.00 | 13 | 1006.6 |
| 20260510034625 | 91 | 231 | 0.0 | 0.0 | 0.00 | 0.00 | 0.00 | 13 | 1006.6 |
| 20260510034558 | 91 | 231 | 0.0 | 0.0 | 0.00 | 0.00 | 0.00 | 13 | 1006.7 |
| 20260510034418 | 91 | 231 | 0.0 | 0.0 | 0.00 | 0.00 | 0.00 | 13 | 1006.7 |
| 20260510034347 | 92 | 231 | 0.0 | 0.0 | 0.00 | 0.00 | 0.00 | 13 | 1006.7 |
| 20260510034227 | 92 | 231 | 0.0 | 0.0 | 0.00 | 0.00 | 0.00 | 13 | 1006.7 |
| 20260510034129 | 92 | 231 | 0.0 | 0.0 | 0.00 | 0.00 | 0.00 | 13 | 1006.6 |
| 20260510034016 | 92 | 231 | 0.0 | 0.0 | 0.00 | 0.00 | 0.00 | 13 | 1006.6 |
| 20260510033919 | 92 | 231 | 0.0 | 0.0 | 0.00 | 0.00 | 0.00 | 13 | 1006.6 |
| 20260510033823 | 92 | 231 | 0.0 | 0.0 | 0.00 | 0.00 | 0.00 | 13 | 1006.7 |
| 20260510033752 | 92 | 231 | 0.0 | 0.0 | 0.00 | 0.00 | 0.00 | 13 | 1006.6 |
| 20260510033701 | 92 | 231 | 0.0 | 0.0 | 0.00 | 0.00 | 0.00 | 13 | 1006.6 |
| 20260510033522 | 92 | 231 | 0.0 | 0.0 | 0.00 | 0.00 | 0.00 | 13 | 1006.6 |
| 20260510033423 | 92 | 231 | 0.0 | 0.0 | 0.00 | 0.00 | 0.00 | 13 | 1006.5 |
| 20260510033325 | 92 | 231 | 0.0 | 0.0 | 0.00 | 0.00 | 0.00 | 13 | 1006.6 |
| 20260510033233 | 92 | 231 | 0.0 | 0.0 | 0.00 | 0.00 | 0.00 | 13 | 1006.5 |
| 20260510033119 | 92 | 231 | 0.0 | 0.0 | 0.00 | 0.00 | 0.00 | 13 | 1006.5 |
| 20260510033021 | 92 | 231 | 0.0 | 0.0 | 0.00 | 0.00 | 0.00 | 13 | 1006.5 |
| 20260510032923 | 92 | 231 | 0.0 | 0.0 | 0.00 | 0.00 | 0.00 | 13 | 1006.5 |
| 20260510032832 | 92 | 231 | 0.0 | 0.0 | 0.00 | 0.00 | 0.00 | 13 | 1006.5 |
| 20260510032735 | 92 | 231 | 0.0 | 0.0 | 0.00 | 0.00 | 0.00 | 13 | 1006.4 |
| 20260510032644 | 92 | 231 | 0.0 | 0.0 | 0.00 | 0.00 | 0.00 | 13 | 1006.4 |
| 20260510032529 | 92 | 231 | 0.0 | 0.0 | 0.00 | 0.00 | 0.00 | 13 | 1006.4 |
| 20260510032457 | 92 | 231 | 0.0 | 0.0 | 0.00 | 0.00 | 0.00 | 13 | 1006.4 |
| 20260510032317 | 92 | 231 | 0.0 | 0.0 | 0.00 | 0.00 | 0.00 | 13 | 1006.4 |
| 20260510032219 | 92 | 231 | 0.0 | 0.0 | 0.00 | 0.00 | 0.00 | 13 | 1006.3 |
| 20260510032121 | 92 | 231 | 0.0 | 0.0 | 0.00 | 0.00 | 0.00 | 12 | 1006.3 |
| 20260510032030 | 92 | 231 | 0.0 | 0.0 | 0.00 | 0.00 | 0.00 | 13 | 1006.3 |
| 20260510031916 | 92 | 231 | 0.0 | 0.0 | 0.00 | 0.00 | 0.00 | 13 | 1006.3 |
| 20260510031818 | 93 | 231 | 0.0 | 0.0 | 0.00 | 0.00 | 0.00 | 13 | 1006.3 |
| 20260510031718 | 93 | 231 | 0.0 | 0.0 | 0.00 | 0.00 | 0.00 | 12 | 1006.3 |
| 20260510031627 | 93 | 231 | 0.0 | 0.0 | 0.00 | 0.00 | 0.00 | 12 | 1006.2 |
| 20260510031528 | 93 | 231 | 0.0 | 0.0 | 0.00 | 0.00 | 0.00 | 12 | 1006.2 |
| 20260510031457 | 93 | 231 | 0.0 | 0.0 | 0.00 | 0.00 | 0.00 | 12 | 1006.2 |
| 20260510031322 | 93 | 231 | 0.0 | 0.0 | 0.00 | 0.00 | 0.00 | 12 | 1006.2 |
| 20260510031250 | 93 | 231 | 0.0 | 0.0 | 0.00 | 0.00 | 0.00 | 12 | 1006.2 |
| 20260510031131 | 93 | 231 | 0.0 | 0.0 | 0.00 | 0.00 | 0.00 | 12 | 1006.3 |
| 20260510031033 | 93 | 231 | 0.0 | 0.0 | 0.00 | 0.00 | 0.00 | 12 | 1006.2 |
| 20260510030919 | 93 | 231 | 0.0 | 0.0 | 0.00 | 0.00 | 0.00 | 12 | 1006.2 |
| 20260510030841 | 93 | 231 | 0.0 | 0.0 | 0.00 | 0.00 | 0.00 | 12 | 1006.2 |
| 20260510030729 | 93 | 231 | 0.0 | 0.0 | 0.00 | 0.00 | 0.00 | 12 | 1006.2 |
| 20260510030616 | 93 | 231 | 0.0 | 0.0 | 0.00 | 0.00 | 0.00 | 12 | 1006.2 |
| 20260510030516 | 94 | 231 | 0.0 | 0.0 | 0.00 | 0.00 | 0.00 | 12 | 1006.2 |
| 20260510030426 | 94 | 231 | 0.0 | 0.0 | 0.00 | 0.00 | 0.00 | 12 | 1006.2 |
| 20260510030329 | 94 | 231 | 0.0 | 0.0 | 0.00 | 0.00 | 0.00 | 12 | 1006.2 |
| 20260510030230 | 94 | 231 | 0.0 | 0.0 | 0.00 | 0.00 | 0.00 | 12 | 1006.2 |
| 20260510030138 | 94 | 231 | 0.0 | 0.0 | 0.00 | 0.00 | 0.00 | 12 | 1006.2 |
| 20260510030031 | 94 | 231 | 0.0 | 0.0 | 0.00 | 0.00 | 0.00 | 12 | 1006.3 |
| 20260510025948 | 94 | 231 | 0.0 | 0.0 | 0.00 | 0.00 | 0.00 | 12 | 1006.3 |
| 20260510025900 | 94 | 231 | 0.0 | 0.0 | 0.00 | 0.00 | 0.00 | 12 | 1006.3 |
| 20260510025740 | 94 | 231 | 0.0 | 0.0 | 0.00 | 0.00 | 0.00 | 11 | 1006.2 |
| 20260510025630 | 94 | 231 | 0.0 | 0.0 | 0.00 | 0.00 | 0.00 | 11 | 1006.2 |
| 20260510025532 | 94 | 231 | 0.0 | 0.0 | 0.00 | 0.00 | 0.00 | 12 | 1006.1 |
| 20260510025434 | 94 | 231 | 0.0 | 0.0 | 0.00 | 0.00 | 0.00 | 11 | 1006.1 |
| 20260510025344 | 94 | 231 | 0.0 | 0.0 | 0.00 | 0.00 | 0.00 | 11 | 1006.2 |
| 20260510025224 | 94 | 231 | 0.0 | 0.0 | 0.00 | 0.00 | 0.00 | 11 | 1006.1 |
| 20260510025130 | 94 | 231 | 0.0 | 0.0 | 0.00 | 0.00 | 0.00 | 11 | 1006.1 |
| 20260510025040 | 94 | 231 | 0.0 | 0.0 | 0.00 | 0.00 | 0.00 | 11 | 1006.1 |
| 20260510024921 | 95 | 231 | 0.0 | 0.0 | 0.00 | 0.00 | 0.00 | 11 | 1006.1 |
| 20260510024822 | 95 | 231 | 0.0 | 0.0 | 0.00 | 0.00 | 0.00 | 11 | 1006.0 |
| 20260510024730 | 95 | 231 | 0.0 | 0.0 | 0.00 | 0.00 | 0.00 | 11 | 1005.9 |
| 20260510024632 | 95 | 231 | 0.0 | 0.0 | 0.00 | 0.00 | 0.00 | 11 | 1006.0 |
| 20260510024519 | 95 | 231 | 0.0 | 0.0 | 0.00 | 0.00 | 0.00 | 11 | 1006.0 |
| 20260510024421 | 95 | 231 | 0.0 | 0.0 | 0.00 | 0.00 | 0.00 | 11 | 1005.9 |
| 20260510024329 | 95 | 231 | 0.0 | 0.0 | 0.00 | 0.00 | 0.00 | 11 | 1005.9 |
| 20260510024230 | 95 | 231 | 0.0 | 0.0 | 0.00 | 0.00 | 0.00 | 11 | 1005.9 |
| 20260510024140 | 95 | 231 | 0.0 | 0.0 | 0.00 | 0.00 | 0.00 | 11 | 1005.9 |
| 20260510024047 | 95 | 231 | 0.0 | 0.0 | 0.00 | 0.00 | 0.00 | 11 | 1006.0 |
| 20260510023929 | 95 | 231 | 0.0 | 0.0 | 0.00 | 0.00 | 0.00 | 10 | 1005.9 |
| 20260510023834 | 96 | 231 | 0.0 | 0.0 | 0.00 | 0.00 | 0.00 | 11 | 1005.9 |
| 20260510023715 | 96 | 231 | 0.0 | 0.0 | 0.00 | 0.00 | 0.00 | 10 | 1005.8 |
| 20260510023624 | 96 | 231 | 0.0 | 0.0 | 0.00 | 0.00 | 0.00 | 10 | 1005.9 |
| 20260510023526 | 96 | 231 | 0.0 | 0.0 | 0.00 | 0.00 | 0.00 | 10 | 1005.9 |
| 20260510023429 | 96 | 231 | 0.0 | 0.0 | 0.00 | 0.00 | 0.00 | 10 | 1005.9 |
| 20260510023337 | 96 | 231 | 0.0 | 0.0 | 0.00 | 0.00 | 0.00 | 10 | 1005.9 |
| 20260510023221 | 96 | 231 | 0.0 | 0.0 | 0.00 | 0.00 | 0.00 | 10 | 1005.9 |
| 20260510023123 | 96 | 231 | 0.0 | 0.0 | 0.00 | 0.00 | 0.00 | 10 | 1005.9 |
| 20260510023033 | 96 | 231 | 0.0 | 0.0 | 0.00 | 0.00 | 0.00 | 10 | 1005.8 |
| 20260510022934 | 96 | 231 | 0.0 | 0.0 | 0.00 | 0.00 | 0.00 | 10 | 1005.8 |
| 20260510022816 | 96 | 231 | 0.0 | 0.0 | 0.00 | 0.00 | 0.00 | 10 | 1005.8 |
| 20260510022727 | 96 | 231 | 0.0 | 0.0 | 0.00 | 0.00 | 0.00 | 10 | 1005.8 |
| 20260510022632 | 96 | 231 | 0.0 | 0.0 | 0.00 | 0.00 | 0.00 | 10 | 1005.7 |
| 20260510022602 | 97 | 231 | 0.0 | 0.0 | 0.00 | 0.00 | 0.00 | 10 | 1005.7 |
| 20260510022421 | 97 | 231 | 0.0 | 0.0 | 0.00 | 0.00 | 0.00 | 10 | 1005.7 |
| 20260510022343 | 97 | 231 | 0.0 | 0.0 | 0.00 | 0.00 | 0.00 | 10 | 1005.7 |
| 20260510022232 | 97 | 231 | 0.0 | 0.0 | 0.00 | 0.00 | 0.00 | 10 | 1005.6 |
| 20260510022133 | 97 | 231 | 0.0 | 0.0 | 0.00 | 0.00 | 0.00 | 10 | 1005.7 |
| 20260510022103 | 97 | 231 | 0.0 | 0.0 | 0.00 | 0.00 | 0.00 | 10 | 1005.7 |
| 20260510021928 | 97 | 231 | 0.0 | 0.0 | 0.00 | 0.00 | 0.00 | 10 | 1005.7 |
| 20260510021850 | 97 | 231 | 0.0 | 0.0 | 0.00 | 0.00 | 0.00 | 10 | 1005.6 |
| 20260510021737 | 97 | 231 | 0.0 | 0.0 | 0.00 | 0.00 | 0.00 | 10 | 1005.7 |
| 20260510021618 | 97 | 231 | 0.0 | 2.0 | 0.00 | 0.00 | 0.00 | 10 | 1005.7 |
| 20260510021540 | 97 | 231 | 0.0 | 4.0 | 0.00 | 0.00 | 0.00 | 10 | 1005.6 |
| 20260510021425 | 97 | 231 | 0.0 | 4.0 | 0.00 | 0.00 | 0.00 | 10 | 1005.7 |
| 20260510021327 | 97 | 231 | 0.0 | 4.0 | 0.00 | 0.00 | 0.00 | 10 | 1005.7 |
| 20260510021220 | 98 | 231 | 0.0 | 5.0 | 0.00 | 0.00 | 0.00 | 10 | 1005.6 |
| 20260510021122 | 98 | 230 | 0.0 | 5.0 | 0.00 | 0.00 | 0.00 | 10 | 1005.7 |
| 20260510021030 | 98 | 229 | 0.0 | 6.0 | 0.00 | 0.00 | 0.00 | 10 | 1005.8 |
| 20260510020931 | 98 | 229 | 0.0 | 6.0 | 0.00 | 0.00 | 0.00 | 10 | 1005.7 |
| 20260510020900 | 98 | 227 | 1.0 | 7.0 | 0.00 | 0.00 | 0.00 | 10 | 1005.7 |
| 20260510020721 | 98 | 226 | 1.0 | 7.0 | 0.00 | 0.00 | 0.00 | 9 | 1005.7 |
| 20260510020620 | 98 | 224 | 0.0 | 7.0 | 0.00 | 0.00 | 0.00 | 9 | 1005.8 |
| 20260510020529 | 98 | 222 | 0.0 | 7.0 | 0.00 | 0.00 | 0.00 | 9 | 1005.7 |
| 20260510020416 | 98 | 255 | 0.0 | 7.0 | 0.00 | 0.00 | 0.00 | 9 | 1005.7 |
| 20260510020338 | 98 | 254 | 1.0 | 7.0 | 0.00 | 0.00 | 0.00 | 9 | 1005.8 |
| 20260510020227 | 99 | 254 | 2.0 | 7.0 | 0.00 | 0.00 | 0.00 | 9 | 1005.7 |
| 20260510020149 | 99 | 254 | 4.0 | 7.0 | 0.00 | 0.00 | 0.00 | 9 | 1005.7 |
| 20260510020027 | 99 | 254 | 3.0 | 7.0 | 0.00 | 0.00 | 0.00 | 9 | 1005.6 |
| 20260510015916 | 99 | 251 | 2.0 | 6.0 | 0.00 | 0.00 | 0.00 | 9 | 1005.7 |
| 20260510015824 | 99 | 250 | 2.0 | 6.0 | 0.00 | 0.00 | 0.00 | 9 | 1005.7 |
| 20260510015750 | 99 | 250 | 0.0 | 3.0 | 0.00 | 0.00 | 0.00 | 9 | 1005.7 |
| 20260510015637 | 99 | 250 | 0.0 | 3.0 | 0.00 | 0.00 | 0.00 | 9 | 1005.6 |
| 20260510015519 | 99 | 250 | 0.0 | 3.0 | 0.00 | 0.00 | 0.00 | 9 | 1005.7 |
| 20260510015427 | 99 | 250 | 0.0 | 3.0 | 0.00 | 0.00 | 0.00 | 9 | 1005.6 |
| 20260510015329 | 99 | 243 | 0.0 | 3.0 | 0.00 | 0.00 | 0.00 | 9 | 1005.6 |
| 20260510015237 | 99 | 243 | 0.0 | 5.0 | 0.00 | 0.00 | 0.00 | 9 | 1005.6 |
| 20260510015139 | 99 | 244 | 0.0 | 10.0 | 0.00 | 0.00 | 0.00 | 9 | 1005.6 |
| 20260510015023 | 99 | 244 | 0.0 | 10.0 | 0.00 | 0.00 | 0.00 | 9 | 1005.7 |
| 20260510014932 | 99 | 244 | 0.0 | 10.0 | 0.00 | 0.00 | 0.00 | 9 | 1005.6 |
| 20260510014834 | 99 | 262 | 0.0 | 10.0 | 0.00 | 0.00 | 0.00 | 9 | 1005.6 |
| 20260510014716 | 99 | 252 | 0.0 | 10.0 | 0.00 | 0.00 | 0.00 | 8 | 1005.6 |
| 20260510014617 | 99 | 249 | 1.0 | 10.0 | 0.00 | 0.00 | 0.00 | 8 | 1005.5 |
| 20260510014527 | 99 | 249 | 3.0 | 10.0 | 0.00 | 0.00 | 0.00 | 8 | 1005.6 |
| 20260510014434 | 100 | 198 | 3.0 | 10.0 | 0.00 | 0.00 | 0.00 | 8 | 1005.6 |
| 20260510014335 | 100 | 252 | 0.0 | 10.0 | 0.00 | 0.00 | 0.00 | 8 | 1005.5 |
| 20260510014216 | 100 | 254 | 0.0 | 10.0 | 0.00 | 0.00 | 0.00 | 8 | 1005.5 |
| 20260510014126 | 100 | 236 | 1.0 | 10.0 | 0.00 | 0.00 | 0.00 | 8 | 1005.6 |
| 20260510014026 | 100 | 233 | 2.0 | 10.0 | 0.00 | 0.00 | 0.00 | 8 | 1005.5 |
| 20260510013927 | 100 | 304 | 3.0 | 10.0 | 0.00 | 0.00 | 0.00 | 8 | 1005.5 |
| 20260510013821 | 100 | 304 | 1.0 | 10.0 | 0.00 | 0.00 | 0.00 | 8 | 1005.6 |
| 20260510013724 | 100 | 240 | 3.0 | 10.0 | 0.00 | 0.00 | 0.00 | 8 | 1005.5 |
| 20260510013653 | 100 | 267 | 5.0 | 10.0 | 0.00 | 0.00 | 0.00 | 8 | 1005.7 |
| 20260510013532 | 100 | 261 | 4.0 | 10.0 | 0.00 | 0.00 | 0.00 | 8 | 1005.7 |
| 20260510013439 | 100 | 257 | 4.0 | 9.0 | 0.00 | 0.00 | 0.00 | 8 | 1005.7 |
| 20260510013319 | 100 | 255 | 3.0 | 9.0 | 0.00 | 0.00 | 0.00 | 8 | 1005.7 |
| 20260510013220 | 101 | 259 | 4.0 | 8.0 | 0.00 | 0.00 | 0.00 | 8 | 1005.6 |
| 20260510013149 | 101 | 250 | 4.0 | 8.0 | 0.00 | 0.00 | 0.00 | 8 | 1005.7 |
| 20260510013035 | 101 | 252 | 3.0 | 7.0 | 0.00 | 0.00 | 0.00 | 8 | 1005.7 |
| 20260510012943 | 101 | 254 | 1.0 | 6.0 | 0.00 | 0.00 | 0.00 | 8 | 1005.7 |
| 20260510012826 | 101 | 254 | 1.0 | 6.0 | 0.00 | 0.00 | 0.00 | 8 | 1005.7 |
| 20260510012726 | 101 | 251 | 2.0 | 6.0 | 0.00 | 0.00 | 0.00 | 8 | 1005.7 |
| 20260510012635 | 101 | 250 | 3.0 | 7.0 | 0.00 | 0.00 | 0.00 | 8 | 1005.6 |
| 20260510012537 | 101 | 251 | 2.0 | 9.0 | 0.00 | 0.00 | 0.00 | 8 | 1005.6 |
| 20260510012429 | 101 | 271 | 1.0 | 9.0 | 0.00 | 0.00 | 0.00 | 7 | 1005.7 |
| 20260510012332 | 101 | 283 | 0.0 | 9.0 | 0.00 | 0.00 | 0.00 | 8 | 1005.6 |
| 20260510012233 | 101 | 248 | 0.0 | 9.0 | 0.00 | 0.00 | 0.00 | 8 | 1005.6 |
| 20260510012142 | 101 | 229 | 0.0 | 9.0 | 0.00 | 0.00 | 0.00 | 8 | 1005.6 |
| 20260510012025 | 101 | 268 | 0.0 | 9.0 | 0.00 | 0.00 | 0.00 | 8 | 1005.6 |
| 20260510011946 | 101 | 258 | 3.0 | 9.0 | 0.00 | 0.00 | 0.00 | 8 | 1005.5 |
| 20260510011833 | 101 | 256 | 5.0 | 9.0 | 0.00 | 0.00 | 0.00 | 8 | 1005.6 |
| 20260510011719 | 101 | 243 | 3.0 | 9.0 | 0.00 | 0.00 | 0.00 | 8 | 1005.6 |
| 20260510011620 | 101 | 264 | 1.0 | 7.0 | 0.00 | 0.00 | 0.00 | 8 | 1005.5 |
| 20260510011524 | 101 | 237 | 2.0 | 7.0 | 0.00 | 0.00 | 0.00 | 8 | 1005.6 |
| 20260510011432 | 101 | 262 | 1.0 | 7.0 | 0.00 | 0.00 | 0.00 | 8 | 1005.6 |
| 20260510011353 | 102 | 256 | 0.0 | 7.0 | 0.00 | 0.00 | 0.00 | 8 | 1005.6 |
| 20260510011241 | 102 | 255 | 0.0 | 10.0 | 0.00 | 0.00 | 0.00 | 8 | 1005.6 |
| 20260510011126 | 102 | 238 | 0.0 | 10.0 | 0.00 | 0.00 | 0.00 | 8 | 1005.6 |
| 20260510011032 | 102 | 222 | 0.0 | 10.0 | 0.00 | 0.00 | 0.00 | 8 | 1005.6 |
| 20260510010935 | 102 | 280 | 1.0 | 10.0 | 0.00 | 0.00 | 0.00 | 8 | 1005.5 |
| 20260510010816 | 102 | 280 | 2.0 | 10.0 | 0.00 | 0.00 | 0.00 | 8 | 1005.5 |
| 20260510010718 | 102 | 269 | 1.0 | 10.0 | 0.00 | 0.00 | 0.00 | 8 | 1005.6 |
| 20260510010646 | 102 | 255 | 1.0 | 10.0 | 0.00 | 0.00 | 0.00 | 8 | 1005.5 |
| 20260510010527 | 102 | 258 | 2.0 | 10.0 | 0.00 | 0.00 | 0.00 | 7 | 1005.6 |
| 20260510010441 | 102 | 255 | 4.0 | 10.0 | 0.00 | 0.00 | 0.00 | 8 | 1005.6 |
| 20260510010321 | 102 | 252 | 5.0 | 10.0 | 0.00 | 0.00 | 0.00 | 7 | 1005.6 |
| 20260510010250 | 102 | 235 | 4.0 | 12.0 | 0.00 | 0.00 | 0.00 | 8 | 1005.7 |
| 20260510010130 | 102 | 259 | 1.0 | 12.0 | 0.00 | 0.00 | 0.00 | 8 | 1005.6 |
| 20260510010052 | 102 | 251 | 1.0 | 12.0 | 0.00 | 0.00 | 0.00 | 7 | 1005.6 |
| 20260510005921 | 102 | 236 | 3.0 | 12.0 | 0.00 | 0.00 | 0.00 | 8 | 1005.6 |
| 20260510005827 | 102 | 269 | 3.0 | 12.0 | 0.00 | 0.00 | 0.00 | 7 | 1005.7 |
| 20260510005734 | 102 | 256 | 2.0 | 12.0 | 0.00 | 0.00 | 0.00 | 7 | 1005.7 |
| 20260510005643 | 102 | 273 | 2.0 | 12.0 | 0.00 | 0.00 | 0.00 | 7 | 1005.7 |
| 20260510005524 | 102 | 276 | 4.0 | 12.0 | 0.00 | 0.00 | 0.00 | 7 | 1005.6 |
| 20260510005425 | 102 | 264 | 4.0 | 13.0 | 0.00 | 0.00 | 0.00 | 7 | 1005.6 |
| 20260510005327 | 102 | 245 | 4.0 | 13.0 | 0.00 | 0.00 | 0.00 | 7 | 1005.6 |
| 20260510005236 | 102 | 266 | 4.0 | 13.0 | 0.00 | 0.00 | 0.00 | 7 | 1005.6 |
| 20260510005121 | 102 | 274 | 4.0 | 13.0 | 0.00 | 0.00 | 0.00 | 8 | 1005.6 |
| 20260510005023 | 103 | 277 | 3.0 | 13.0 | 0.00 | 0.00 | 0.00 | 7 | 1005.5 |
| 20260510004951 | 103 | 264 | 2.0 | 13.0 | 0.00 | 0.00 | 0.00 | 7 | 1005.6 |
| 20260510004833 | 103 | 258 | 4.0 | 13.0 | 0.00 | 0.00 | 0.00 | 7 | 1005.6 |
| 20260510004716 | 103 | 279 | 6.0 | 13.0 | 0.00 | 0.00 | 0.00 | 7 | 1005.7 |
| 20260510004644 | 103 | 296 | 4.0 | 12.0 | 0.00 | 0.00 | 0.00 | 7 | 1005.6 |
| 20260510004526 | 103 | 288 | 3.0 | 10.0 | 0.00 | 0.00 | 0.00 | 7 | 1005.6 |
| 20260510004431 | 103 | 245 | 3.0 | 10.0 | 0.00 | 0.00 | 0.00 | 7 | 1005.5 |
| 20260510004340 | 103 | 244 | 2.0 | 8.0 | 0.00 | 0.00 | 0.00 | 7 | 1005.5 |
| 20260510004220 | 103 | 255 | 0.0 | 6.0 | 0.00 | 0.00 | 0.00 | 7 | 1005.6 |
| 20260510004129 | 103 | 272 | 0.0 | 12.0 | 0.00 | 0.00 | 0.00 | 8 | 1005.6 |
| 20260510004031 | 103 | 262 | 0.0 | 12.0 | 0.00 | 0.00 | 0.00 | 8 | 1005.6 |
| 20260510003932 | 103 | 264 | 0.0 | 12.0 | 0.00 | 0.00 | 0.00 | 8 | 1005.6 |
| 20260510003818 | 103 | 247 | 1.0 | 12.0 | 0.00 | 0.00 | 0.00 | 8 | 1005.6 |
| 20260510003727 | 103 | 265 | 1.0 | 12.0 | 0.00 | 0.00 | 0.00 | 7 | 1005.5 |
| 20260510003628 | 103 | 271 | 2.0 | 12.0 | 0.00 | 0.00 | 0.00 | 8 | 1005.5 |
| 20260510003530 | 103 | 282 | 1.0 | 12.0 | 0.00 | 0.00 | 0.00 | 8 | 1005.6 |
| 20260510003440 | 103 | 283 | 3.0 | 12.0 | 0.00 | 0.00 | 0.00 | 8 | 1005.6 |
| 20260510003322 | 103 | 293 | 2.0 | 12.0 | 0.00 | 0.00 | 0.00 | 7 | 1005.6 |
| 20260510003228 | 103 | 282 | 0.0 | 9.0 | 0.00 | 0.00 | 0.00 | 8 | 1005.6 |
| 20260510003128 | 103 | 255 | 0.0 | 9.0 | 0.00 | 0.00 | 0.00 | 8 | 1005.5 |
| 20260510003038 | 103 | 242 | 2.0 | 9.0 | 0.00 | 0.00 | 0.00 | 7 | 1005.5 |
| 20260510002920 | 103 | 245 | 2.0 | 9.0 | 0.00 | 0.00 | 0.00 | 8 | 1005.6 |
| 20260510002842 | 103 | 266 | 1.0 | 8.0 | 0.00 | 0.00 | 0.00 | 7 | 1005.5 |
| 20260510002750 | 103 | 246 | 1.0 | 8.0 | 0.00 | 0.00 | 0.00 | 8 | 1005.7 |
| 20260510002616 | 104 | 255 | 0.0 | 8.0 | 0.00 | 0.00 | 0.00 | 8 | 1005.6 |
| 20260510002525 | 104 | 269 | 1.0 | 9.0 | 0.00 | 0.00 | 0.00 | 8 | 1005.6 |
| 20260510002427 | 104 | 257 | 1.0 | 9.0 | 0.00 | 0.00 | 0.00 | 8 | 1005.6 |
| 20260510002334 | 104 | 288 | 0.0 | 12.0 | 0.00 | 0.00 | 0.00 | 8 | 1005.6 |
| 20260510002216 | 103 | 258 | 0.0 | 12.0 | 0.00 | 0.00 | 0.00 | 8 | 1005.6 |
| 20260510002118 | 103 | 309 | 0.0 | 12.0 | 0.00 | 0.00 | 0.00 | 8 | 1005.7 |
| 20260510002021 | 103 | 236 | 0.0 | 12.0 | 0.00 | 0.00 | 0.00 | 8 | 1005.6 |
| 20260510001934 | 103 | 233 | 0.0 | 12.0 | 0.00 | 0.00 | 0.00 | 8 | 1005.7 |
| 20260510001836 | 103 | 224 | 0.0 | 12.0 | 0.00 | 0.00 | 0.00 | 8 | 1005.7 |
| 20260510001716 | 103 | 235 | 2.0 | 12.0 | 0.00 | 0.00 | 0.00 | 8 | 1005.6 |
| 20260510001645 | 103 | 238 | 5.0 | 12.0 | 0.00 | 0.00 | 0.00 | 7 | 1005.6 |
| 20260510001526 | 103 | 243 | 4.0 | 12.0 | 0.00 | 0.00 | 0.00 | 7 | 1005.7 |
| 20260510001435 | 103 | 262 | 2.0 | 10.0 | 0.00 | 0.00 | 0.00 | 8 | 1005.7 |
| 20260510001320 | 103 | 239 | 2.0 | 9.0 | 0.00 | 0.00 | 0.00 | 8 | 1005.7 |
| 20260510001223 | 104 | 251 | 2.0 | 9.0 | 0.00 | 0.00 | 0.00 | 8 | 1005.6 |
| 20260510001132 | 104 | 251 | 0.0 | 9.0 | 0.00 | 0.00 | 0.00 | 8 | 1005.6 |
| 20260510001034 | 103 | 268 | 0.0 | 9.0 | 0.00 | 0.00 | 0.00 | 8 | 1005.7 |
| 20260510000917 | 103 | 273 | 0.0 | 9.0 | 0.00 | 0.00 | 0.00 | 8 | 1005.7 |
| 20260510000846 | 104 | 248 | 0.0 | 9.0 | 0.00 | 0.00 | 0.00 | 8 | 1005.7 |
| 20260510000747 | 104 | 278 | 1.0 | 9.0 | 0.00 | 0.00 | 0.00 | 8 | 1005.7 |
| 20260510000640 | 104 | 278 | 2.0 | 9.0 | 0.00 | 0.00 | 0.00 | 8 | 1005.7 |
| 20260510000522 | 104 | 278 | 2.0 | 8.0 | 0.00 | 0.00 | 0.00 | 8 | 1005.6 |
| 20260510000425 | 104 | 278 | 2.0 | 8.0 | 0.00 | 0.00 | 0.00 | 8 | 1005.7 |
| 20260510000333 | 104 | 278 | 2.0 | 8.0 | 0.00 | 0.00 | 0.00 | 8 | 1005.7 |
| 20260510000234 | 104 | 278 | 0.0 | 8.0 | 0.00 | 0.00 | 0.00 | 8 | 1005.7 |
| 20260510000116 | 104 | 276 | 2.0 | 8.0 | 0.00 | 0.00 | 0.00 | 8 | 1005.7 |
| 20260509235920 | 104 | 276 | 4.0 | 8.0 | 0.00 | 0.00 | 0.00 | 8 | 1005.7 |
| 20260509235823 | 104 | 276 | 2.0 | 8.0 | 0.00 | 0.00 | 0.00 | 8 | 1005.7 |
| 20260509235725 | 104 | 276 | 0.0 | 3.0 | 0.00 | 0.00 | 0.00 | 8 | 1005.7 |
| 20260509235634 | 104 | 323 | 0.0 | 2.0 | 0.00 | 0.00 | 0.00 | 8 | 1005.7 |
| 20260509235536 | 104 | 327 | 0.0 | 2.0 | 0.00 | 0.00 | 0.00 | 8 | 1005.7 |
| 20260509235421 | 104 | 327 | 0.0 | 2.0 | 0.00 | 0.00 | 0.00 | 8 | 1005.8 |
| 20260509235330 | 104 | 328 | 0.0 | 2.0 | 0.00 | 0.00 | 0.00 | 8 | 1005.7 |
| 20260509235302 | 104 | 328 | 0.0 | 2.0 | 0.00 | 0.00 | 0.00 | 8 | 1005.7 |
| 20260509235141 | 104 | 328 | 0.0 | 2.0 | 0.00 | 0.00 | 0.00 | 8 | 1005.8 |
| 20260509235022 | 104 | 329 | 0.0 | 2.0 | 0.00 | 0.00 | 0.00 | 8 | 1005.9 |
| 20260509234952 | 104 | 333 | 0.0 | 1.0 | 0.00 | 0.00 | 0.00 | 8 | 1005.8 |
| 20260509234853 | 104 | 338 | 0.0 | 1.0 | 0.00 | 0.00 | 0.00 | 8 | 1005.8 |
| 20260509234719 | 104 | 338 | 0.0 | 1.0 | 0.00 | 0.00 | 0.00 | 8 | 1005.8 |
| 20260509234628 | 105 | 338 | 0.0 | 1.0 | 0.00 | 0.00 | 0.00 | 8 | 1005.8 |
| 20260509234531 | 105 | 343 | 0.0 | 0.0 | 0.00 | 0.00 | 0.00 | 8 | 1005.8 |
| 20260509234432 | 105 | 344 | 0.0 | 6.0 | 0.00 | 0.00 | 0.00 | 8 | 1005.9 |
| 20260509234342 | 104 | 344 | 0.0 | 6.0 | 0.00 | 0.00 | 0.00 | 8 | 1005.9 |
| 20260509234244 | 104 | 300 | 0.0 | 6.0 | 0.00 | 0.00 | 0.00 | 8 | 1005.8 |
| 20260509234152 | 104 | 293 | 0.0 | 6.0 | 0.00 | 0.00 | 0.00 | 8 | 1005.9 |
| 20260509234037 | 104 | 293 | 0.0 | 6.0 | 0.00 | 0.00 | 0.00 | 8 | 1005.8 |
| 20260509233915 | 104 | 293 | 0.0 | 6.0 | 0.00 | 0.00 | 0.00 | 9 | 1005.9 |
| 20260509233845 | 104 | 293 | 0.0 | 6.0 | 0.00 | 0.00 | 0.00 | 8 | 1005.8 |
| 20260509233732 | 104 | 296 | 1.0 | 6.0 | 0.00 | 0.00 | 0.00 | 9 | 1005.9 |
| 20260509233634 | 104 | 337 | 1.0 | 6.0 | 0.00 | 0.00 | 0.00 | 8 | 1005.9 |
| 20260509233535 | 104 | 268 | 0.0 | 3.0 | 0.00 | 0.00 | 0.00 | 8 | 1005.9 |
| 20260509233416 | 104 | 277 | 0.0 | 3.0 | 0.00 | 0.00 | 0.00 | 8 | 1005.9 |
| 20260509233329 | 103 | 271 | 0.0 | 3.0 | 0.00 | 0.00 | 0.00 | 8 | 1005.9 |
| 20260509233250 | 103 | 245 | 0.0 | 3.0 | 0.00 | 0.00 | 0.00 | 8 | 1005.9 |
| 20260509233139 | 103 | 243 | 0.0 | 3.0 | 0.00 | 0.00 | 0.00 | 8 | 1005.9 |
| 20260509233020 | 104 | 249 | 0.0 | 3.0 | 0.00 | 0.00 | 0.00 | 8 | 1006.0 |
| 20260509232922 | 104 | 251 | 0.0 | 3.0 | 0.00 | 0.00 | 0.00 | 8 | 1006.0 |
| 20260509232822 | 105 | 254 | 0.0 | 3.0 | 0.00 | 0.00 | 0.00 | 8 | 1006.0 |
| 20260509232734 | 105 | 253 | 0.0 | 2.0 | 0.00 | 0.00 | 0.00 | 8 | 1005.9 |
| 20260509232618 | 105 | 254 | 0.0 | 2.0 | 0.00 | 0.00 | 0.00 | 8 | 1005.9 |
| 20260509232520 | 105 | 260 | 0.0 | 2.0 | 0.00 | 0.00 | 0.00 | 8 | 1005.9 |
| 20260509232422 | 104 | 262 | 0.0 | 2.0 | 0.00 | 0.00 | 0.00 | 9 | 1005.9 |
| 20260509232350 | 104 | 260 | 0.0 | 1.0 | 0.00 | 0.00 | 0.00 | 9 | 1005.9 |
| 20260509232232 | 104 | 216 | 0.0 | 1.0 | 0.00 | 0.00 | 0.00 | 8 | 1005.9 |
| 20260509232125 | 104 | 221 | 0.0 | 1.0 | 0.00 | 0.00 | 0.00 | 8 | 1006.0 |
| 20260509232047 | 105 | 221 | 0.0 | 1.0 | 0.00 | 0.00 | 0.00 | 8 | 1006.0 |
| 20260509231934 | 105 | 248 | 0.0 | 0.0 | 0.00 | 0.00 | 0.00 | 8 | 1005.9 |
| 20260509231815 | 105 | 238 | 0.0 | 0.0 | 0.00 | 0.00 | 0.00 | 9 | 1005.9 |
| 20260509231716 | 105 | 259 | 0.0 | 0.0 | 0.00 | 0.00 | 0.00 | 8 | 1005.9 |
| 20260509231625 | 105 | 208 | 0.0 | 0.0 | 0.00 | 0.00 | 0.00 | 9 | 1005.9 |
| 20260509231525 | 105 | 195 | 0.0 | 0.0 | 0.00 | 0.00 | 0.00 | 9 | 1005.9 |
| 20260509231435 | 105 | 191 | 0.0 | 1.0 | 0.00 | 0.00 | 0.00 | 8 | 1005.9 |
| 20260509231341 | 105 | 285 | 0.0 | 1.0 | 0.00 | 0.00 | 0.00 | 8 | 1006.0 |
| 20260509231228 | 105 | 250 | 0.0 | 1.0 | 0.00 | 0.00 | 0.00 | 8 | 1005.9 |
| 20260509231130 | 105 | 333 | 0.0 | 1.0 | 0.00 | 0.00 | 0.00 | 8 | 1005.9 |
| 20260509231030 | 105 | 334 | 0.0 | 3.0 | 0.00 | 0.00 | 0.00 | 9 | 1005.9 |
| 20260509230939 | 105 | 334 | 0.0 | 3.0 | 0.00 | 0.00 | 0.00 | 10 | 1005.9 |
| 20260509230821 | 105 | 304 | 0.0 | 3.0 | 0.00 | 0.00 | 0.00 | 9 | 1006.0 |
| 20260509230727 | 105 | 276 | 0.0 | 3.0 | 0.00 | 0.00 | 0.00 | 8 | 1006.1 |
| 20260509230636 | 105 | 261 | 0.0 | 3.0 | 0.00 | 0.00 | 0.00 | 8 | 1006.1 |
| 20260509230536 | 105 | 262 | 0.0 | 3.0 | 0.00 | 0.00 | 0.00 | 9 | 1006.2 |
| 20260509230422 | 105 | 257 | 0.0 | 3.0 | 0.00 | 0.00 | 0.00 | 8 | 1006.2 |
| 20260509230324 | 105 | 252 | 0.0 | 3.0 | 0.00 | 0.00 | 0.00 | 8 | 1006.1 |
| 20260509230253 | 105 | 271 | 0.0 | 3.0 | 0.00 | 0.00 | 0.00 | 8 | 1006.0 |
| 20260509230134 | 105 | 283 | 0.0 | 1.0 | 0.00 | 0.00 | 0.00 | 8 | 1006.1 |
| 20260509230029 | 105 | 274 | 0.0 | 0.0 | 0.00 | 0.00 | 0.00 | 9 | 1006.1 |
| 20260509225925 | 105 | 267 | 0.0 | 0.0 | 0.00 | 0.00 | 0.00 | 9 | 1006.1 |
| 20260509225826 | 105 | 264 | 0.0 | 0.0 | 0.00 | 0.00 | 0.00 | 9 | 1006.0 |
| 20260509225735 | 104 | 264 | 0.0 | 1.0 | 0.00 | 0.00 | 0.00 | 8 | 1006.0 |
| 20260509225615 | 104 | 264 | 0.0 | 1.0 | 0.00 | 0.00 | 0.00 | 8 | 1006.0 |
| 20260509225516 | 104 | 264 | 0.0 | 1.0 | 0.00 | 0.00 | 0.00 | 9 | 1006.1 |
| 20260509225425 | 104 | 259 | 0.0 | 1.0 | 0.00 | 0.00 | 0.00 | 9 | 1006.1 |
| 20260509225331 | 104 | 258 | 0.0 | 1.0 | 0.00 | 0.00 | 0.00 | 9 | 1006.1 |
| 20260509225239 | 105 | 257 | 0.0 | 1.0 | 0.00 | 0.00 | 0.00 | 8 | 1006.1 |
| 20260509225120 | 105 | 240 | 0.0 | 1.0 | 0.00 | 0.00 | 0.00 | 8 | 1006.2 |
| 20260509225022 | 105 | 240 | 0.0 | 1.0 | 0.00 | 0.00 | 0.00 | 8 | 1006.2 |
| 20260509224923 | 106 | 219 | 0.0 | 1.0 | 0.00 | 0.00 | 0.00 | 8 | 1006.2 |
| 20260509224833 | 106 | 215 | 0.0 | 1.0 | 0.00 | 0.00 | 0.00 | 8 | 1006.2 |
| 20260509224718 | 106 | 271 | 0.0 | 0.0 | 0.00 | 0.00 | 0.00 | 9 | 1006.2 |
| 20260509224625 | 105 | 277 | 0.0 | 0.0 | 0.00 | 0.00 | 0.00 | 8 | 1006.2 |
| 20260509224527 | 105 | 267 | 0.0 | 0.0 | 0.00 | 0.00 | 0.00 | 9 | 1006.2 |
| 20260509224428 | 105 | 264 | 0.0 | 0.0 | 0.00 | 0.00 | 0.00 | 9 | 1006.2 |
| 20260509224337 | 105 | 259 | 0.0 | 0.0 | 0.00 | 0.00 | 0.00 | 8 | 1006.3 |
| 20260509224218 | 105 | 219 | 0.0 | 0.0 | 0.00 | 0.00 | 0.00 | 9 | 1006.3 |
| 20260509224120 | 105 | 225 | 0.0 | 0.0 | 0.00 | 0.00 | 0.00 | 9 | 1006.3 |
| 20260509224032 | 104 | 293 | 0.0 | 0.0 | 0.00 | 0.00 | 0.00 | 8 | 1006.3 |
| 20260509223934 | 105 | 275 | 0.0 | 0.0 | 0.00 | 0.00 | 0.00 | 8 | 1006.3 |
| 20260509223816 | 104 | 269 | 0.0 | 4.0 | 0.00 | 0.00 | 0.00 | 9 | 1006.4 |
| 20260509223745 | 104 | 271 | 0.0 | 4.0 | 0.00 | 0.00 | 0.00 | 9 | 1006.4 |
| 20260509223626 | 104 | 281 | 0.0 | 4.0 | 0.00 | 0.00 | 0.00 | 9 | 1006.3 |
| 20260509223528 | 104 | 255 | 0.0 | 4.0 | 0.00 | 0.00 | 0.00 | 8 | 1006.4 |
| 20260509223437 | 104 | 258 | 0.0 | 4.0 | 0.00 | 0.00 | 0.00 | 8 | 1006.4 |
| 20260509223322 | 104 | 259 | 0.0 | 4.0 | 0.00 | 0.00 | 0.00 | 8 | 1006.4 |
| 20260509223230 | 104 | 259 | 0.0 | 4.0 | 0.00 | 0.00 | 0.00 | 8 | 1006.4 |
| 20260509223132 | 104 | 262 | 0.0 | 4.0 | 0.00 | 0.00 | 0.00 | 8 | 1006.5 |
| 20260509223101 | 104 | 238 | 0.0 | 4.0 | 0.00 | 0.00 | 0.00 | 9 | 1006.5 |
| 20260509222922 | 104 | 260 | 0.0 | 1.0 | 0.00 | 0.00 | 0.00 | 9 | 1006.5 |
| 20260509222824 | 104 | 231 | 0.0 | 1.0 | 0.00 | 0.00 | 0.00 | 9 | 1006.5 |
| 20260509222728 | 104 | 229 | 0.0 | 1.0 | 0.00 | 0.00 | 0.00 | 8 | 1006.4 |
| 20260509222638 | 104 | 206 | 0.0 | 1.0 | 0.00 | 0.00 | 0.00 | 8 | 1006.4 |
| 20260509222518 | 105 | 250 | 0.0 | 1.0 | 0.00 | 0.00 | 0.00 | 8 | 1006.5 |
| 20260509222441 | 105 | 260 | 0.0 | 1.0 | 0.00 | 0.00 | 0.00 | 8 | 1006.5 |
| 20260509222329 | 105 | 276 | 0.0 | 1.0 | 0.00 | 0.00 | 0.00 | 8 | 1006.5 |
| 20260509222230 | 105 | 248 | 0.0 | 0.0 | 0.00 | 0.00 | 0.00 | 9 | 1006.5 |
| 20260509222116 | 104 | 243 | 0.0 | 1.0 | 0.00 | 0.00 | 0.00 | 9 | 1006.5 |
| 20260509222025 | 104 | 243 | 0.0 | 1.0 | 0.00 | 0.00 | 0.00 | 9 | 1006.5 |
| 20260509221934 | 104 | 238 | 0.0 | 1.0 | 0.00 | 0.00 | 0.00 | 9 | 1006.5 |
| 20260509221815 | 104 | 240 | 0.0 | 1.0 | 0.00 | 0.00 | 0.00 | 9 | 1006.5 |
| 20260509221718 | 104 | 240 | 0.0 | 1.0 | 0.00 | 0.00 | 0.00 | 9 | 1006.7 |
| 20260509221621 | 104 | 240 | 0.0 | 1.0 | 0.00 | 0.00 | 0.00 | 9 | 1006.7 |
| 20260509221549 | 104 | 240 | 0.0 | 1.0 | 0.00 | 0.00 | 0.00 | 9 | 1006.7 |
| 20260509221442 | 105 | 240 | 0.0 | 1.0 | 0.00 | 0.00 | 0.00 | 9 | 1006.7 |
| 20260509221323 | 105 | 238 | 0.0 | 1.0 | 0.00 | 0.00 | 0.00 | 9 | 1006.7 |
| 20260509221226 | 105 | 300 | 0.0 | 1.0 | 0.00 | 0.00 | 0.00 | 9 | 1006.7 |
| 20260509221128 | 105 | 304 | 0.0 | 1.0 | 0.00 | 0.00 | 0.00 | 9 | 1006.8 |
| 20260509221038 | 105 | 281 | 0.0 | 1.0 | 0.00 | 0.00 | 0.00 | 9 | 1006.8 |
| 20260509220918 | 105 | 249 | 0.0 | 1.0 | 0.00 | 0.00 | 0.00 | 9 | 1006.7 |
| 20260509220850 | 105 | 246 | 0.0 | 1.0 | 0.00 | 0.00 | 0.00 | 9 | 1006.7 |
| 20260509220731 | 105 | 262 | 0.0 | 1.0 | 0.00 | 0.00 | 0.00 | 9 | 1006.7 |
| 20260509220701 | 105 | 262 | 0.0 | 1.0 | 0.00 | 0.00 | 0.00 | 9 | 1006.7 |
| 20260509220521 | 105 | 344 | 0.0 | 0.0 | 0.00 | 0.00 | 0.00 | 10 | 1006.9 |
| 20260509220424 | 105 | 268 | 0.0 | 0.0 | 0.00 | 0.00 | 0.00 | 10 | 1006.9 |
| 20260509220326 | 105 | 268 | 0.0 | 0.0 | 0.00 | 0.00 | 0.00 | 10 | 1006.8 |
| 20260509220219 | 105 | 268 | 0.0 | 0.0 | 0.00 | 0.00 | 0.00 | 10 | 1006.9 |
| 20260509220120 | 105 | 268 | 0.0 | 0.0 | 0.00 | 0.00 | 0.00 | 10 | 1006.9 |
| 20260509220032 | 105 | 268 | 0.0 | 0.0 | 0.00 | 0.00 | 0.00 | 10 | 1007.0 |
| 20260509215930 | 105 | 293 | 0.0 | 1.0 | 0.00 | 0.00 | 0.00 | 10 | 1006.9 |
| 20260509215901 | 105 | 293 | 0.0 | 1.0 | 0.00 | 0.00 | 0.00 | 11 | 1006.9 |
| 20260509215719 | 105 | 288 | 0.0 | 7.0 | 0.00 | 0.00 | 0.00 | 10 | 1007.0 |
| 20260509215647 | 104 | 288 | 0.0 | 7.0 | 0.00 | 0.00 | 0.00 | 10 | 1007.1 |
| 20260509215528 | 104 | 288 | 0.0 | 7.0 | 0.00 | 0.00 | 0.00 | 10 | 1007.1 |
| 20260509215502 | 104 | 286 | 0.0 | 7.0 | 0.00 | 0.00 | 0.00 | 10 | 1007.1 |
| 20260509215322 | 104 | 245 | 0.0 | 7.0 | 0.00 | 0.00 | 0.00 | 10 | 1007.1 |
| 20260509215224 | 104 | 238 | 0.0 | 7.0 | 0.00 | 0.00 | 0.00 | 10 | 1007.2 |
| 20260509215153 | 104 | 245 | 0.0 | 7.0 | 0.00 | 0.00 | 0.00 | 10 | 1007.2 |
| 20260509215033 | 105 | 235 | 1.0 | 7.0 | 0.00 | 0.00 | 0.00 | 10 | 1007.2 |
| 20260509214935 | 105 | 266 | 1.0 | 7.0 | 0.00 | 0.00 | 0.00 | 10 | 1007.2 |
| 20260509214821 | 105 | 261 | 0.0 | 1.0 | 0.00 | 0.00 | 0.00 | 10 | 1007.3 |
| 20260509214728 | 105 | 259 | 0.0 | 1.0 | 0.00 | 0.00 | 0.00 | 10 | 1007.3 |
| 20260509214639 | 105 | 259 | 0.0 | 1.0 | 0.00 | 0.00 | 0.00 | 10 | 1007.3 |
| 20260509214541 | 104 | 219 | 0.0 | 1.0 | 0.00 | 0.00 | 0.00 | 10 | 1007.3 |
| 20260509214443 | 104 | 224 | 0.0 | 1.0 | 0.00 | 0.00 | 0.00 | 10 | 1007.3 |
| 20260509214350 | 104 | 219 | 0.0 | 1.0 | 0.00 | 0.00 | 0.00 | 11 | 1007.3 |
| 20260509214257 | 104 | 249 | 0.0 | 0.0 | 0.00 | 0.00 | 0.00 | 10 | 1007.3 |
| 20260509214118 | 105 | 248 | 0.0 | 0.0 | 0.00 | 0.00 | 0.00 | 10 | 1007.4 |
| 20260509214024 | 105 | 253 | 0.0 | 0.0 | 0.00 | 0.00 | 0.00 | 9 | 1007.4 |
| 20260509213926 | 105 | 213 | 0.0 | 1.0 | 0.00 | 0.00 | 0.00 | 10 | 1007.5 |
| 20260509213835 | 105 | 223 | 0.0 | 1.0 | 0.00 | 0.00 | 0.00 | 10 | 1007.5 |
| 20260509213717 | 104 | 281 | 0.0 | 1.0 | 0.00 | 0.00 | 0.00 | 10 | 1007.6 |
| 20260509213619 | 104 | 235 | 0.0 | 1.0 | 0.00 | 0.00 | 0.00 | 10 | 1007.5 |
| 20260509213521 | 104 | 224 | 0.0 | 1.0 | 0.00 | 0.00 | 0.00 | 10 | 1007.5 |
| 20260509213431 | 104 | 301 | 0.0 | 1.0 | 0.00 | 0.00 | 0.00 | 10 | 1007.4 |
| 20260509213331 | 104 | 238 | 0.0 | 1.0 | 0.00 | 0.00 | 0.00 | 10 | 1007.5 |
| 20260509213301 | 104 | 232 | 0.0 | 1.0 | 0.00 | 0.00 | 0.00 | 11 | 1007.5 |
| 20260509213121 | 104 | 227 | 0.0 | 1.0 | 0.00 | 0.00 | 0.00 | 10 | 1007.5 |
| 20260509213022 | 104 | 227 | 0.0 | 1.0 | 0.00 | 0.00 | 0.00 | 11 | 1007.6 |
| 20260509212932 | 104 | 224 | 0.0 | 1.0 | 0.00 | 0.00 | 0.00 | 11 | 1007.6 |
| 20260509212817 | 103 | 256 | 0.0 | 1.0 | 0.00 | 0.00 | 0.00 | 10 | 1007.6 |
| 20260509212716 | 103 | 262 | 0.0 | 1.0 | 0.00 | 0.00 | 0.00 | 10 | 1007.6 |
| 20260509212626 | 104 | 262 | 0.0 | 1.0 | 0.00 | 0.00 | 0.00 | 10 | 1007.7 |
| 20260509212527 | 104 | 262 | 0.0 | 1.0 | 0.00 | 0.00 | 0.00 | 10 | 1007.6 |
| 20260509212429 | 104 | 267 | 0.0 | 0.0 | 0.00 | 0.00 | 0.00 | 10 | 1007.7 |
| 20260509212339 | 104 | 268 | 0.0 | 0.0 | 0.00 | 0.00 | 0.00 | 10 | 1007.7 |
| 20260509212224 | 104 | 268 | 0.0 | 1.0 | 0.00 | 0.00 | 0.00 | 10 | 1007.7 |
| 20260509212127 | 104 | 268 | 0.0 | 1.0 | 0.00 | 0.00 | 0.00 | 10 | 1007.8 |
| 20260509212028 | 104 | 241 | 0.0 | 1.0 | 0.00 | 0.00 | 0.00 | 10 | 1007.7 |
| 20260509211916 | 104 | 242 | 0.0 | 1.0 | 0.00 | 0.00 | 0.00 | 9 | 1007.7 |
| 20260509211818 | 104 | 242 | 0.0 | 1.0 | 0.00 | 0.00 | 0.00 | 11 | 1007.7 |
| 20260509211719 | 104 | 244 | 0.0 | 1.0 | 0.00 | 0.00 | 0.00 | 11 | 1007.7 |
| 20260509211627 | 103 | 255 | 0.0 | 1.0 | 0.00 | 0.00 | 0.00 | 10 | 1007.8 |
| 20260509211532 | 103 | 256 | 0.0 | 1.0 | 0.00 | 0.00 | 0.00 | 10 | 1007.8 |
| 20260509211443 | 103 | 247 | 0.0 | 1.0 | 0.00 | 0.00 | 0.00 | 11 | 1007.8 |
| 20260509211325 | 103 | 252 | 0.0 | 1.0 | 0.00 | 0.00 | 0.00 | 9 | 1007.9 |
| 20260509211225 | 103 | 251 | 0.0 | 1.0 | 0.00 | 0.00 | 0.00 | 9 | 1008.0 |
| 20260509211127 | 103 | 272 | 0.0 | 1.0 | 0.00 | 0.00 | 0.00 | 10 | 1008.0 |
| 20260509211036 | 103 | 275 | 0.0 | 1.0 | 0.00 | 0.00 | 0.00 | 10 | 1008.0 |
| 20260509210922 | 103 | 230 | 0.0 | 1.0 | 0.00 | 0.00 | 0.00 | 10 | 1008.0 |
| 20260509210824 | 103 | 252 | 0.0 | 1.0 | 0.00 | 0.00 | 0.00 | 9 | 1008.0 |
| 20260509210727 | 103 | 252 | 0.0 | 1.0 | 0.00 | 0.00 | 0.00 | 9 | 1008.0 |
| 20260509210656 | 103 | 253 | 0.0 | 1.0 | 0.00 | 0.00 | 0.00 | 10 | 1008.0 |
| 20260509210516 | 103 | 253 | 0.0 | 1.0 | 0.00 | 0.00 | 0.00 | 9 | 1008.0 |
| 20260509210419 | 103 | 255 | 0.0 | 1.0 | 0.00 | 0.00 | 0.00 | 9 | 1008.0 |
| 20260509210331 | 103 | 259 | 0.0 | 1.0 | 0.00 | 0.00 | 0.00 | 9 | 1008.0 |
| 20260509210232 | 104 | 249 | 0.0 | 1.0 | 0.00 | 0.00 | 0.00 | 9 | 1008.1 |
| 20260509210115 | 104 | 269 | 0.0 | 1.0 | 0.00 | 0.00 | 0.00 | 9 | 1008.0 |
| 20260509210034 | 104 | 270 | 0.0 | 1.0 | 0.00 | 0.00 | 0.00 | 8 | 1008.1 |
| 20260509205930 | 105 | 269 | 0.0 | 1.0 | 0.00 | 0.00 | 0.00 | 9 | 1008.2 |
| 20260509205832 | 105 | 270 | 0.0 | 1.0 | 0.00 | 0.00 | 0.00 | 9 | 1008.2 |
| 20260509205717 | 104 | 273 | 0.0 | 1.0 | 0.00 | 0.00 | 0.00 | 9 | 1008.1 |
| 20260509205647 | 104 | 272 | 0.0 | 1.0 | 0.00 | 0.00 | 0.00 | 9 | 1008.1 |
| 20260509205528 | 104 | 246 | 0.0 | 1.0 | 0.00 | 0.00 | 0.00 | 8 | 1008.2 |
| 20260509205438 | 103 | 262 | 0.0 | 1.0 | 0.00 | 0.00 | 0.00 | 8 | 1008.2 |
| 20260509205338 | 103 | 262 | 0.0 | 1.0 | 0.00 | 0.00 | 0.00 | 8 | 1008.2 |
| 20260509205221 | 103 | 257 | 0.0 | 1.0 | 0.00 | 0.00 | 0.00 | 8 | 1008.2 |
| 20260509205122 | 103 | 165 | 0.0 | 1.0 | 0.00 | 0.00 | 0.00 | 9 | 1008.3 |
| 20260509205055 | 103 | 165 | 0.0 | 1.0 | 0.00 | 0.00 | 0.00 | 8 | 1008.4 |
| 20260509204916 | 104 | 165 | 0.0 | 1.0 | 0.00 | 0.00 | 0.00 | 8 | 1008.4 |
| 20260509204819 | 104 | 165 | 0.0 | 1.0 | 0.00 | 0.00 | 0.00 | 8 | 1008.4 |
| 20260509204727 | 104 | 146 | 0.0 | 1.0 | 0.00 | 0.00 | 0.00 | 9 | 1008.4 |
| 20260509204656 | 104 | 146 | 0.0 | 1.0 | 0.00 | 0.00 | 0.00 | 8 | 1008.4 |
| 20260509204516 | 103 | 145 | 0.0 | 1.0 | 0.00 | 0.00 | 0.00 | 9 | 1008.4 |
| 20260509204416 | 103 | 145 | 0.0 | 0.0 | 0.00 | 0.00 | 0.00 | 8 | 1008.4 |
| 20260509204349 | 103 | 143 | 0.0 | 0.0 | 0.00 | 0.00 | 0.00 | 8 | 1008.4 |
| 20260509204230 | 103 | 143 | 0.0 | 0.0 | 0.00 | 0.00 | 0.00 | 8 | 1008.4 |
| 20260509204138 | 103 | 200 | 0.0 | 0.0 | 0.00 | 0.00 | 0.00 | 8 | 1008.4 |
| 20260509204019 | 104 | 200 | 0.0 | 0.0 | 0.00 | 0.00 | 0.00 | 8 | 1008.4 |
| 20260509203921 | 104 | 200 | 0.0 | 0.0 | 0.00 | 0.00 | 0.00 | 8 | 1008.5 |
| 20260509203850 | 104 | 201 | 0.0 | 0.0 | 0.00 | 0.00 | 0.00 | 8 | 1008.5 |
| 20260509203736 | 104 | 202 | 0.0 | 0.0 | 0.00 | 0.00 | 0.00 | 10 | 1008.5 |
| 20260509203616 | 104 | 202 | 0.0 | 0.0 | 0.00 | 0.00 | 0.00 | 9 | 1008.5 |
| 20260509203521 | 104 | 202 | 0.0 | 0.0 | 0.00 | 0.00 | 0.00 | 10 | 1008.4 |
| 20260509203431 | 103 | 202 | 0.0 | 1.0 | 0.00 | 0.00 | 0.00 | 9 | 1008.6 |
| 20260509203334 | 103 | 202 | 0.0 | 1.0 | 0.00 | 0.00 | 0.00 | 9 | 1008.6 |
| 20260509203216 | 103 | 202 | 0.0 | 1.0 | 0.00 | 0.00 | 0.00 | 9 | 1008.6 |
| 20260509203145 | 103 | 203 | 0.0 | 1.0 | 0.00 | 0.00 | 0.00 | 9 | 1008.6 |
| 20260509203026 | 103 | 203 | 0.0 | 1.0 | 0.00 | 0.00 | 0.00 | 9 | 1008.6 |
| 20260509202940 | 103 | 203 | 0.0 | 1.0 | 0.00 | 0.00 | 0.00 | 9 | 1008.6 |
| 20260509202842 | 103 | 203 | 0.0 | 1.0 | 0.00 | 0.00 | 0.00 | 8 | 1008.7 |
| 20260509202722 | 103 | 203 | 0.0 | 7.0 | 0.00 | 0.00 | 0.00 | 8 | 1008.7 |
| 20260509202651 | 103 | 203 | 0.0 | 7.0 | 0.00 | 0.00 | 0.00 | 9 | 1008.7 |
| 20260509202531 | 103 | 203 | 0.0 | 7.0 | 0.00 | 0.00 | 0.00 | 10 | 1008.6 |
| 20260509202441 | 103 | 204 | 0.0 | 7.0 | 0.00 | 0.00 | 0.00 | 9 | 1008.6 |
| 20260509202342 | 103 | 205 | 0.0 | 7.0 | 0.00 | 0.00 | 0.00 | 10 | 1008.7 |
| 20260509202226 | 103 | 207 | 0.0 | 7.0 | 0.00 | 0.00 | 0.00 | 9 | 1008.6 |
| 20260509202123 | 103 | 283 | 0.0 | 7.0 | 0.00 | 0.00 | 0.00 | 9 | 1008.7 |
| 20260509202025 | 103 | 223 | 1.0 | 7.0 | 0.00 | 0.00 | 0.00 | 9 | 1008.6 |
| 20260509201927 | 103 | 210 | 1.0 | 7.0 | 0.00 | 0.00 | 0.00 | 10 | 1008.7 |
| 20260509201835 | 103 | 269 | 0.0 | 2.0 | 0.00 | 0.00 | 0.00 | 9 | 1008.7 |
| 20260509201717 | 103 | 269 | 0.0 | 2.0 | 0.00 | 0.00 | 0.00 | 9 | 1008.7 |
| 20260509201639 | 103 | 269 | 0.0 | 2.0 | 0.00 | 0.00 | 0.00 | 9 | 1008.7 |
| 20260509201529 | 104 | 269 | 0.0 | 2.0 | 0.00 | 0.00 | 0.00 | 10 | 1008.7 |
| 20260509201438 | 104 | 236 | 0.0 | 3.0 | 0.00 | 0.00 | 0.00 | 10 | 1008.7 |
| 20260509201321 | 103 | 348 | 0.0 | 3.0 | 0.00 | 0.00 | 0.00 | 11 | 1008.7 |
| 20260509201241 | 103 | 349 | 0.0 | 3.0 | 0.00 | 0.00 | 0.00 | 10 | 1008.7 |
| 20260509201128 | 103 | 245 | 0.0 | 3.0 | 0.00 | 0.00 | 0.00 | 9 | 1008.7 |
| 20260509201057 | 103 | 245 | 0.0 | 3.0 | 0.00 | 0.00 | 0.00 | 10 | 1008.8 |
| 20260509200917 | 103 | 291 | 0.0 | 3.0 | 0.00 | 0.00 | 0.00 | 11 | 1008.8 |
| 20260509200819 | 103 | 290 | 0.0 | 3.0 | 0.00 | 0.00 | 0.00 | 10 | 1008.8 |
| 20260509200731 | 103 | 290 | 0.0 | 3.0 | 0.00 | 0.00 | 0.00 | 10 | 1008.9 |
| 20260509200633 | 103 | 290 | 0.0 | 3.0 | 0.00 | 0.00 | 0.00 | 10 | 1008.9 |
| 20260509200535 | 103 | 290 | 0.0 | 0.0 | 0.00 | 0.00 | 0.00 | 11 | 1008.9 |
| 20260509200443 | 102 | 290 | 0.0 | 0.0 | 0.00 | 0.00 | 0.00 | 10 | 1008.9 |
| 20260509200325 | 102 | 276 | 0.0 | 0.0 | 0.00 | 0.00 | 0.00 | 11 | 1009.0 |
| 20260509200232 | 103 | 276 | 0.0 | 0.0 | 0.00 | 0.00 | 0.00 | 9 | 1008.9 |
| 20260509200119 | 103 | 276 | 0.0 | 0.0 | 0.00 | 0.00 | 0.00 | 10 | 1009.0 |
| 20260509200032 | 103 | 276 | 0.0 | 0.0 | 0.00 | 0.00 | 0.00 | 11 | 1009.1 |
| 20260509195929 | 103 | 277 | 0.0 | 0.0 | 0.00 | 0.00 | 0.00 | 11 | 1009.0 |
| 20260509195830 | 103 | 279 | 0.0 | 0.0 | 0.00 | 0.00 | 0.00 | 11 | 1009.0 |
| 20260509195739 | 103 | 279 | 0.0 | 0.0 | 0.00 | 0.00 | 0.00 | 11 | 1009.0 |
| 20260509195620 | 102 | 278 | 0.0 | 0.0 | 0.00 | 0.00 | 0.00 | 11 | 1009.0 |
| 20260509195527 | 102 | 278 | 0.0 | 0.0 | 0.00 | 0.00 | 0.00 | 11 | 1009.0 |
| 20260509195447 | 102 | 278 | 0.0 | 1.0 | 0.00 | 0.00 | 0.00 | 12 | 1009.1 |
| 20260509195338 | 102 | 265 | 0.0 | 1.0 | 0.00 | 0.00 | 0.00 | 13 | 1009.1 |
| 20260509195220 | 102 | 259 | 0.0 | 1.0 | 0.00 | 0.00 | 0.00 | 11 | 1009.1 |
| 20260509195121 | 102 | 258 | 0.0 | 1.0 | 0.00 | 0.00 | 0.00 | 13 | 1009.1 |
| 20260509195031 | 102 | 258 | 0.0 | 1.0 | 0.00 | 0.00 | 0.00 | 13 | 1009.1 |
| 20260509194930 | 102 | 258 | 0.0 | 1.0 | 0.00 | 0.00 | 0.00 | 11 | 1009.2 |
| 20260509194840 | 102 | 257 | 0.0 | 1.0 | 0.00 | 0.00 | 0.00 | 12 | 1009.2 |
| 20260509194726 | 102 | 258 | 0.0 | 1.0 | 0.00 | 0.00 | 0.00 | 12 | 1009.2 |
| 20260509194628 | 101 | 256 | 0.0 | 1.0 | 0.00 | 0.00 | 0.00 | 11 | 1009.2 |
| 20260509194530 | 101 | 257 | 0.0 | 0.0 | 0.00 | 0.00 | 0.00 | 12 | 1009.4 |
| 20260509194416 | 101 | 279 | 0.0 | 1.0 | 0.00 | 0.00 | 0.00 | 12 | 1009.2 |
| 20260509194318 | 101 | 279 | 0.0 | 1.0 | 0.00 | 0.00 | 0.00 | 15 | 1009.2 |
| 20260509194219 | 100 | 279 | 0.0 | 1.0 | 0.00 | 0.00 | 0.00 | 11 | 1009.3 |
| 20260509194127 | 101 | 279 | 0.0 | 1.0 | 0.00 | 0.00 | 0.00 | 12 | 1009.4 |
| 20260509194100 | 100 | 279 | 0.0 | 1.0 | 0.00 | 0.00 | 0.00 | 12 | 1009.4 |
| 20260509193920 | 101 | 279 | 0.0 | 1.0 | 0.00 | 0.00 | 0.00 | 12 | 1009.4 |
| 20260509193822 | 101 | 279 | 0.0 | 1.0 | 0.00 | 0.00 | 0.00 | 14 | 1009.4 |
| 20260509193724 | 101 | 279 | 0.0 | 1.0 | 0.00 | 0.00 | 0.00 | 13 | 1009.4 |
| 20260509193633 | 100 | 272 | 0.0 | 1.0 | 0.00 | 0.00 | 0.00 | 13 | 1009.4 |
| 20260509193535 | 100 | 212 | 0.0 | 1.0 | 0.00 | 0.00 | 0.00 | 14 | 1009.3 |
| 20260509193442 | 100 | 230 | 0.0 | 1.0 | 0.00 | 0.00 | 0.00 | 14 | 1009.3 |
| 20260509193329 | 100 | 230 | 0.0 | 1.0 | 0.00 | 0.00 | 0.00 | 12 | 1009.4 |
| 20260509193258 | 100 | 230 | 0.0 | 1.0 | 0.00 | 0.00 | 0.00 | 12 | 1009.4 |
| 20260509193118 | 100 | 212 | 0.0 | 1.0 | 0.00 | 0.00 | 0.00 | 12 | 1009.4 |
| 20260509193020 | 100 | 212 | 0.0 | 1.0 | 0.00 | 0.00 | 0.00 | 13 | 1009.4 |
| 20260509192922 | 100 | 185 | 0.0 | 1.0 | 0.00 | 0.00 | 0.00 | 14 | 1009.3 |
| 20260509192830 | 99 | 185 | 0.0 | 1.0 | 0.00 | 0.00 | 0.00 | 13 | 1009.4 |
| 20260509192716 | 99 | 202 | 0.0 | 1.0 | 0.00 | 0.00 | 0.00 | 13 | 1009.4 |
| 20260509192618 | 100 | 229 | 0.0 | 1.0 | 0.00 | 0.00 | 0.00 | 14 | 1009.5 |
| 20260509192546 | 100 | 229 | 0.0 | 0.0 | 0.00 | 0.00 | 0.00 | 12 | 1009.5 |
| 20260509192428 | 100 | 229 | 0.0 | 0.0 | 0.00 | 0.00 | 0.00 | 13 | 1009.5 |
| 20260509192336 | 100 | 261 | 0.0 | 0.0 | 0.00 | 0.00 | 0.00 | 12 | 1009.5 |
| 20260509192218 | 100 | 33 | 0.0 | 0.0 | 0.00 | 0.00 | 0.00 | 13 | 1009.6 |
| 20260509192125 | 100 | 36 | 0.0 | 0.0 | 0.00 | 0.00 | 0.00 | 13 | 1009.6 |
| 20260509192028 | 99 | 37 | 0.0 | 0.0 | 0.00 | 0.00 | 0.00 | 14 | 1009.6 |
| 20260509191936 | 99 | 39 | 0.0 | 0.0 | 0.00 | 0.00 | 0.00 | 13 | 1009.6 |
| 20260509191818 | 99 | 39 | 0.0 | 0.0 | 0.00 | 0.00 | 0.00 | 13 | 1009.6 |
| 20260509191722 | 100 | 39 | 0.0 | 0.0 | 0.00 | 0.00 | 0.00 | 13 | 1009.7 |
| 20260509191623 | 100 | 39 | 0.0 | 0.0 | 0.00 | 0.00 | 0.00 | 14 | 1009.7 |
| 20260509191552 | 100 | 39 | 0.0 | 0.0 | 0.00 | 0.00 | 0.00 | 15 | 1009.7 |
| 20260509191417 | 100 | 49 | 0.0 | 0.0 | 0.00 | 0.00 | 0.00 | 13 | 1009.6 |
| 20260509191319 | 100 | 49 | 0.0 | 0.0 | 0.00 | 0.00 | 0.00 | 15 | 1009.6 |
| 20260509191247 | 100 | 49 | 0.0 | 0.0 | 0.00 | 0.00 | 0.00 | 14 | 1009.6 |
| 20260509191136 | 100 | 184 | 0.0 | 0.0 | 0.00 | 0.00 | 0.00 | 14 | 1009.6 |
| 20260509191036 | 99 | 184 | 0.0 | 0.0 | 0.00 | 0.00 | 0.00 | 14 | 1009.7 |
| 20260509190918 | 99 | 184 | 0.0 | 0.0 | 0.00 | 0.00 | 0.00 | 15 | 1009.6 |
| 20260509190825 | 99 | 185 | 0.0 | 0.0 | 0.00 | 0.00 | 0.00 | 12 | 1009.8 |
| 20260509190734 | 99 | 185 | 0.0 | 0.0 | 0.00 | 0.00 | 0.00 | 13 | 1009.7 |
| 20260509190616 | 99 | 185 | 0.0 | 0.0 | 0.00 | 0.00 | 0.00 | 13 | 1009.8 |
| 20260509190517 | 99 | 186 | 0.0 | 4.0 | 0.00 | 0.00 | 0.00 | 13 | 1009.8 |
| 20260509190419 | 99 | 186 | 0.0 | 4.0 | 0.00 | 0.00 | 0.00 | 13 | 1009.8 |
| 20260509190328 | 99 | 186 | 0.0 | 4.0 | 0.00 | 0.00 | 0.00 | 15 | 1009.9 |
| 20260509190233 | 99 | 180 | 0.0 | 4.0 | 0.00 | 0.00 | 0.00 | 13 | 1009.8 |
| 20260509190135 | 99 | 180 | 0.0 | 4.0 | 0.00 | 0.00 | 0.00 | 13 | 1009.9 |
| 20260509190036 | 99 | 256 | 0.0 | 4.0 | 0.00 | 0.00 | 0.00 | 13 | 1009.8 |
| 20260509185922 | 99 | 256 | 0.0 | 4.0 | 0.00 | 0.00 | 0.00 | 14 | 1009.8 |
| 20260509185824 | 99 | 256 | 0.0 | 4.0 | 0.00 | 0.00 | 0.00 | 14 | 1009.8 |
| 20260509185752 | 99 | 256 | 1.0 | 4.0 | 0.00 | 0.00 | 0.00 | 14 | 1009.8 |
| 20260509185616 | 99 | 254 | 0.0 | 3.0 | 0.00 | 0.00 | 0.00 | 14 | 1009.8 |
| 20260509185518 | 99 | 254 | 0.0 | 3.0 | 0.00 | 0.00 | 0.00 | 15 | 1009.8 |
| 20260509185427 | 99 | 236 | 0.0 | 3.0 | 0.00 | 0.00 | 0.00 | 15 | 1009.8 |
| 20260509185329 | 98 | 236 | 0.0 | 3.0 | 0.00 | 0.00 | 0.00 | 15 | 1009.8 |
| 20260509185231 | 98 | 170 | 0.0 | 3.0 | 0.00 | 0.00 | 0.00 | 16 | 1009.8 |
| 20260509185141 | 98 | 170 | 0.0 | 3.0 | 0.00 | 0.00 | 0.00 | 16 | 1009.8 |
| 20260509185028 | 97 | 170 | 0.0 | 3.0 | 0.00 | 0.00 | 0.00 | 14 | 1010.0 |
| 20260509184929 | 97 | 170 | 1.0 | 3.0 | 0.00 | 0.00 | 0.00 | 13 | 1009.9 |
| 20260509184831 | 97 | 170 | 1.0 | 3.0 | 0.00 | 0.00 | 0.00 | 13 | 1010.0 |
| 20260509184740 | 98 | 169 | 0.0 | 1.0 | 0.00 | 0.00 | 0.00 | 13 | 1010.0 |
| 20260509184621 | 98 | 150 | 0.0 | 0.0 | 0.00 | 0.00 | 0.00 | 13 | 1010.0 |
| 20260509184523 | 98 | 150 | 0.0 | 0.0 | 0.00 | 0.00 | 0.00 | 13 | 1010.0 |
| 20260509184436 | 98 | 150 | 0.0 | 0.0 | 0.00 | 0.00 | 0.00 | 14 | 1010.1 |
| 20260509184335 | 98 | 149 | 0.0 | 0.0 | 0.00 | 0.00 | 0.00 | 14 | 1010.1 |
| 20260509184222 | 98 | 148 | 0.0 | 1.0 | 0.00 | 0.00 | 0.00 | 13 | 1010.1 |
| 20260509184143 | 98 | 201 | 0.0 | 2.0 | 0.00 | 0.00 | 0.00 | 14 | 1010.2 |
| 20260509184031 | 98 | 201 | 0.0 | 2.0 | 0.00 | 0.00 | 0.00 | 18 | 1010.1 |
| 20260509183934 | 98 | 201 | 0.0 | 2.0 | 0.00 | 0.00 | 0.00 | 15 | 1010.1 |
| 20260509183835 | 98 | 201 | 0.0 | 2.0 | 0.00 | 0.00 | 0.00 | 22 | 1010.3 |
| 20260509183720 | 98 | 201 | 0.0 | 3.0 | 0.00 | 0.00 | 0.00 | 17 | 1010.2 |
| 20260509183630 | 98 | 201 | 0.0 | 3.0 | 0.00 | 0.00 | 0.00 | 16 | 1010.2 |
| 20260509183533 | 98 | 201 | 0.0 | 3.0 | 0.00 | 0.00 | 0.00 | 18 | 1010.2 |
| 20260509183435 | 98 | 201 | 0.0 | 3.0 | 0.00 | 0.00 | 0.00 | 17 | 1010.3 |
| 20260509183317 | 98 | 200 | 0.0 | 3.0 | 0.00 | 0.00 | 0.00 | 20 | 1010.2 |
| 20260509183225 | 98 | 180 | 0.0 | 3.0 | 0.00 | 0.00 | 0.00 | 18 | 1010.1 |
| 20260509183131 | 98 | 179 | 0.0 | 3.0 | 0.00 | 0.00 | 0.00 | 16 | 1010.2 |
| 20260509183042 | 98 | 179 | 0.0 | 3.0 | 0.00 | 0.00 | 0.00 | 18 | 1010.2 |
| 20260509182923 | 98 | 179 | 0.0 | 3.0 | 0.00 | 0.00 | 0.00 | 23 | 1010.2 |
| 20260509182824 | 98 | 179 | 0.0 | 0.0 | 0.00 | 0.00 | 0.00 | 17 | 1010.2 |
| 20260509182725 | 97 | 179 | 0.0 | 0.0 | 0.00 | 0.00 | 0.00 | 20 | 1010.2 |
| 20260509182656 | 97 | 179 | 0.0 | 0.0 | 0.00 | 0.00 | 0.00 | 17 | 1010.2 |
| 20260509182540 | 97 | 179 | 0.0 | 0.0 | 0.00 | 0.00 | 0.00 | 20 | 1010.3 |
| 20260509182448 | 96 | 178 | 0.0 | 0.0 | 0.00 | 0.00 | 0.00 | 20 | 1010.3 |
| 20260509182328 | 96 | 182 | 0.0 | 0.0 | 0.00 | 0.00 | 0.00 | 17 | 1010.3 |
| 20260509182238 | 96 | 182 | 0.0 | 0.0 | 0.00 | 0.00 | 0.00 | 15 | 1010.3 |
| 20260509182140 | 96 | 182 | 0.0 | 0.0 | 0.00 | 0.00 | 0.00 | 16 | 1010.3 |
| 20260509182020 | 96 | 182 | 0.0 | 0.0 | 0.00 | 0.00 | 0.00 | 16 | 1010.3 |
| 20260509181929 | 96 | 182 | 0.0 | 0.0 | 0.00 | 0.00 | 0.00 | 18 | 1010.4 |
| 20260509181850 | 96 | 182 | 0.0 | 1.0 | 0.00 | 0.00 | 0.00 | 15 | 1010.4 |
| 20260509181743 | 95 | 182 | 0.0 | 2.0 | 0.00 | 0.00 | 0.00 | 16 | 1010.4 |
| 20260509181624 | 95 | 182 | 0.0 | 4.0 | 0.00 | 0.00 | 0.00 | 16 | 1010.4 |
| 20260509181526 | 95 | 182 | 0.0 | 4.0 | 0.00 | 0.00 | 0.00 | 15 | 1010.5 |
| 20260509181429 | 95 | 182 | 0.0 | 4.0 | 0.00 | 0.00 | 0.00 | 15 | 1010.6 |
| 20260509181339 | 95 | 182 | 0.0 | 4.0 | 0.00 | 0.00 | 0.00 | 15 | 1010.6 |
| 20260509181223 | 95 | 182 | 0.0 | 4.0 | 0.00 | 0.00 | 0.00 | 15 | 1010.6 |
| 20260509181125 | 96 | 182 | 0.0 | 4.0 | 0.00 | 0.00 | 0.00 | 14 | 1010.6 |
| 20260509181035 | 96 | 182 | 0.0 | 4.0 | 0.00 | 0.00 | 0.00 | 14 | 1010.6 |
| 20260509180917 | 96 | 182 | 1.0 | 4.0 | 0.00 | 0.00 | 0.00 | 15 | 1010.6 |
| 20260509180817 | 96 | 182 | 1.0 | 4.0 | 0.00 | 0.00 | 0.00 | 15 | 1010.5 |
| 20260509180726 | 96 | 182 | 0.0 | 1.0 | 0.00 | 0.00 | 0.00 | 16 | 1010.4 |
| 20260509180628 | 96 | 182 | 0.0 | 2.0 | 0.00 | 0.00 | 0.00 | 15 | 1010.4 |
| 20260509180535 | 96 | 182 | 0.0 | 2.0 | 0.00 | 0.00 | 0.00 | 15 | 1010.5 |
| 20260509180416 | 95 | 182 | 0.0 | 2.0 | 0.00 | 0.00 | 0.00 | 16 | 1010.5 |
| 20260509180325 | 95 | 182 | 0.0 | 2.0 | 0.00 | 0.00 | 0.00 | 17 | 1010.5 |
| 20260509180227 | 95 | 182 | 0.0 | 3.0 | 0.00 | 0.00 | 0.00 | 14 | 1010.6 |
| 20260509180129 | 95 | 182 | 0.0 | 3.0 | 0.00 | 0.00 | 0.00 | 15 | 1010.7 |
| 20260509180048 | 95 | 182 | 0.0 | 3.0 | 0.00 | 0.00 | 0.00 | 15 | 1010.6 |
| 20260509175949 | 95 | 182 | 0.0 | 3.0 | 0.00 | 0.00 | 0.00 | 15 | 1010.6 |
| 20260509175830 | 95 | 182 | 0.0 | 3.0 | 0.00 | 0.00 | 0.00 | 17 | 1010.6 |
| 20260509175800 | 95 | 182 | 0.0 | 3.0 | 0.00 | 0.00 | 0.00 | 19 | 1010.6 |
| 20260509175620 | 94 | 182 | 0.0 | 3.0 | 0.00 | 0.00 | 0.00 | 22 | 1010.6 |
| 20260509175522 | 94 | 182 | 0.0 | 3.0 | 0.00 | 0.00 | 0.00 | 17 | 1010.6 |
| 20260509175425 | 94 | 182 | 0.0 | 3.0 | 0.00 | 0.00 | 0.00 | 16 | 1010.6 |
| 20260509175354 | 94 | 181 | 0.0 | 3.0 | 0.00 | 0.00 | 0.00 | 15 | 1010.7 |
| 20260509175219 | 94 | 181 | 0.0 | 3.0 | 0.00 | 0.00 | 0.00 | 15 | 1010.7 |
| 20260509175127 | 94 | 181 | 0.0 | 2.0 | 0.00 | 0.00 | 0.00 | 15 | 1010.7 |
| 20260509175029 | 94 | 181 | 0.0 | 2.0 | 0.00 | 0.00 | 0.00 | 15 | 1010.8 |
| 20260509174931 | 94 | 165 | 0.0 | 2.0 | 0.00 | 0.00 | 0.00 | 15 | 1010.8 |
| 20260509174840 | 94 | 165 | 1.0 | 2.0 | 0.00 | 0.00 | 0.00 | 15 | 1010.8 |
| 20260509174741 | 94 | 165 | 0.0 | 2.0 | 0.00 | 0.00 | 0.00 | 17 | 1010.8 |
| 20260509174627 | 94 | 164 | 0.0 | 1.0 | 0.00 | 0.00 | 0.00 | 15 | 1010.7 |
| 20260509174533 | 94 | 229 | 0.0 | 0.0 | 0.00 | 0.00 | 0.00 | 16 | 1010.8 |
| 20260509174502 | 94 | 127 | 0.0 | 0.0 | 0.00 | 0.00 | 0.00 | 18 | 1010.8 |
| 20260509174323 | 93 | 127 | 0.0 | 0.0 | 0.00 | 0.00 | 0.00 | 16 | 1010.7 |
| 20260509174224 | 93 | 127 | 0.0 | 0.0 | 0.00 | 0.00 | 0.00 | 17 | 1010.7 |
| 20260509174126 | 93 | 127 | 0.0 | 0.0 | 0.00 | 0.00 | 0.00 | 16 | 1010.7 |
| 20260509174036 | 93 | 127 | 0.0 | 0.0 | 0.00 | 0.00 | 0.00 | 17 | 1010.7 |
| 20260509173941 | 94 | 127 | 0.0 | 2.0 | 0.00 | 0.00 | 0.00 | 17 | 1010.7 |
| 20260509173820 | 94 | 127 | 0.0 | 2.0 | 0.00 | 0.00 | 0.00 | 15 | 1010.7 |
| 20260509173729 | 94 | 127 | 0.0 | 2.0 | 0.00 | 0.00 | 0.00 | 16 | 1010.7 |
| 20260509173631 | 94 | 127 | 0.0 | 2.0 | 0.00 | 0.00 | 0.00 | 20 | 1010.8 |
| 20260509173539 | 93 | 127 | 0.0 | 2.0 | 0.00 | 0.00 | 0.00 | 18 | 1010.8 |
| 20260509173442 | 93 | 127 | 0.0 | 2.0 | 0.00 | 0.00 | 0.00 | 16 | 1010.8 |
| 20260509173329 | 93 | 127 | 0.0 | 2.0 | 0.00 | 0.00 | 0.00 | 16 | 1010.8 |
| 20260509173231 | 93 | 127 | 0.0 | 2.0 | 0.00 | 0.00 | 0.00 | 16 | 1010.9 |
| 20260509173116 | 93 | 127 | 0.0 | 1.0 | 0.00 | 0.00 | 0.00 | 19 | 1010.8 |
| 20260509173046 | 92 | 63 | 0.0 | 2.0 | 0.00 | 0.00 | 0.00 | 17 | 1010.8 |
| 20260509172925 | 92 | 63 | 0.0 | 2.0 | 0.00 | 0.00 | 0.00 | 16 | 1010.9 |
| 20260509172834 | 92 | 63 | 0.0 | 2.0 | 0.00 | 0.00 | 0.00 | 16 | 1010.9 |
| 20260509172716 | 93 | 63 | 0.0 | 2.0 | 0.00 | 0.00 | 0.00 | 16 | 1010.8 |
| 20260509172618 | 93 | 62 | 0.0 | 2.0 | 0.00 | 0.00 | 0.00 | 16 | 1010.8 |
| 20260509172523 | 93 | 62 | 0.0 | 2.0 | 0.00 | 0.00 | 0.00 | 17 | 1010.8 |
| 20260509172431 | 94 | 62 | 0.0 | 2.0 | 0.00 | 0.00 | 0.00 | 16 | 1010.8 |
| 20260509172334 | 94 | 62 | 0.0 | 2.0 | 0.00 | 0.00 | 0.00 | 18 | 1010.7 |
| 20260509172242 | 93 | 62 | 0.0 | 2.0 | 0.00 | 0.00 | 0.00 | 25 | 1010.8 |
| 20260509172123 | 93 | 62 | 0.0 | 0.0 | 0.00 | 0.00 | 0.00 | 19 | 1010.7 |
| 20260509172033 | 93 | 63 | 0.0 | 0.0 | 0.00 | 0.00 | 0.00 | 20 | 1010.7 |
| 20260509171917 | 93 | 77 | 0.0 | 0.0 | 0.00 | 0.00 | 0.00 | 19 | 1010.9 |
| 20260509171819 | 93 | 77 | 0.0 | 0.0 | 0.00 | 0.00 | 0.00 | 18 | 1010.9 |
| 20260509171720 | 93 | 270 | 0.0 | 0.0 | 0.00 | 0.00 | 0.00 | 17 | 1011.0 |
| 20260509171629 | 92 | 278 | 0.0 | 0.0 | 0.00 | 0.00 | 0.00 | 22 | 1011.0 |
| 20260509171552 | 92 | 80 | 0.0 | 0.0 | 0.00 | 0.00 | 0.00 | 17 | 1011.0 |
| 20260509171417 | 92 | 80 | 0.0 | 0.0 | 0.00 | 0.00 | 0.00 | 17 | 1010.9 |
| 20260509171320 | 92 | 80 | 0.0 | 0.0 | 0.00 | 0.00 | 0.00 | 15 | 1010.9 |
| 20260509171249 | 92 | 80 | 0.0 | 0.0 | 0.00 | 0.00 | 0.00 | 17 | 1010.9 |
| 20260509171133 | 92 | 80 | 0.0 | 0.0 | 0.00 | 0.00 | 0.00 | 15 | 1010.9 |
| 20260509171041 | 92 | 80 | 0.0 | 0.0 | 0.00 | 0.00 | 0.00 | 16 | 1010.9 |
| 20260509170924 | 92 | 79 | 0.0 | 0.0 | 0.00 | 0.00 | 0.00 | 20 | 1010.8 |
| 20260509170825 | 92 | 79 | 0.0 | 0.0 | 0.00 | 0.00 | 0.00 | 17 | 1010.9 |
| 20260509170733 | 92 | 79 | 0.0 | 0.0 | 0.00 | 0.00 | 0.00 | 16 | 1010.9 |
| 20260509170615 | 93 | 79 | 0.0 | 0.0 | 0.00 | 0.00 | 0.00 | 16 | 1011.0 |
| 20260509170544 | 92 | 78 | 0.0 | 0.0 | 0.00 | 0.00 | 0.00 | 16 | 1011.0 |
| 20260509170429 | 92 | 77 | 0.0 | 0.0 | 0.00 | 0.00 | 0.00 | 20 | 1011.0 |
| 20260509170331 | 92 | 77 | 0.0 | 0.0 | 0.00 | 0.00 | 0.00 | 17 | 1011.0 |
| 20260509170241 | 92 | 77 | 0.0 | 0.0 | 0.00 | 0.00 | 0.00 | 17 | 1011.0 |
| 20260509170122 | 92 | 78 | 0.0 | 0.0 | 0.00 | 0.00 | 0.00 | 17 | 1011.0 |
| 20260509170042 | 92 | 78 | 0.0 | 0.0 | 0.00 | 0.00 | 0.00 | 17 | 1011.0 |
| 20260509165933 | 91 | 78 | 0.0 | 0.0 | 0.00 | 0.00 | 0.00 | 19 | 1011.0 |
| 20260509165843 | 91 | 78 | 0.0 | 0.0 | 0.00 | 0.00 | 0.00 | 18 | 1010.9 |
| 20260509165728 | 91 | 78 | 0.0 | 0.0 | 0.00 | 0.00 | 0.00 | 17 | 1011.0 |
| 20260509165657 | 91 | 78 | 0.0 | 0.0 | 0.00 | 0.00 | 0.00 | 17 | 1011.0 |
| 20260509165519 | 91 | 78 | 0.0 | 0.0 | 0.00 | 0.00 | 0.00 | 16 | 1010.9 |
| 20260509165421 | 91 | 75 | 0.0 | 0.0 | 0.00 | 0.00 | 0.00 | 16 | 1010.8 |
| 20260509165323 | 91 | 75 | 0.0 | 0.0 | 0.00 | 0.00 | 0.00 | 16 | 1010.9 |
| 20260509165252 | 91 | 75 | 0.0 | 0.0 | 0.00 | 0.00 | 0.00 | 17 | 1011.0 |
| 20260509165118 | 91 | 82 | 0.0 | 0.0 | 0.00 | 0.00 | 0.00 | 18 | 1010.9 |
| 20260509165045 | 91 | 82 | 0.0 | 0.0 | 0.00 | 0.00 | 0.00 | 17 | 1011.0 |
| 20260509164926 | 91 | 82 | 0.0 | 0.0 | 0.00 | 0.00 | 0.00 | 17 | 1011.0 |
| 20260509164836 | 91 | 82 | 0.0 | 0.0 | 0.00 | 0.00 | 0.00 | 16 | 1010.9 |
| 20260509164716 | 91 | 82 | 0.0 | 0.0 | 0.00 | 0.00 | 0.00 | 17 | 1011.0 |
| 20260509164616 | 91 | 81 | 0.0 | 0.0 | 0.00 | 0.00 | 0.00 | 19 | 1011.0 |
| 20260509164524 | 91 | 81 | 0.0 | 0.0 | 0.00 | 0.00 | 0.00 | 17 | 1010.8 |
| 20260509164446 | 91 | 81 | 0.0 | 0.0 | 0.00 | 0.00 | 0.00 | 17 | 1011.0 |
| 20260509164338 | 91 | 81 | 0.0 | 0.0 | 0.00 | 0.00 | 0.00 | 17 | 1011.0 |
| 20260509164240 | 91 | 81 | 0.0 | 0.0 | 0.00 | 0.00 | 0.00 | 18 | 1010.9 |
| 20260509164121 | 91 | 80 | 0.0 | 0.0 | 0.00 | 0.00 | 0.00 | 17 | 1010.9 |
| 20260509164030 | 91 | 79 | 0.0 | 0.0 | 0.00 | 0.00 | 0.00 | 18 | 1010.9 |
| 20260509163952 | 91 | 79 | 0.0 | 0.0 | 0.00 | 0.00 | 0.00 | 19 | 1010.8 |
| 20260509163837 | 91 | 79 | 0.0 | 0.0 | 0.00 | 0.00 | 0.00 | 20 | 1010.8 |
| 20260509163722 | 91 | 79 | 0.0 | 0.0 | 0.00 | 0.00 | 0.00 | 18 | 1010.7 |
| 20260509163624 | 91 | 79 | 0.0 | 0.0 | 0.00 | 0.00 | 0.00 | 18 | 1010.8 |
| 20260509163526 | 91 | 79 | 0.0 | 0.0 | 0.00 | 0.00 | 0.00 | 19 | 1010.8 |
| 20260509163435 | 91 | 79 | 0.0 | 0.0 | 0.00 | 0.00 | 0.00 | 20 | 1010.8 |
| 20260509163355 | 91 | 79 | 0.0 | 0.0 | 0.00 | 0.00 | 0.00 | 20 | 1010.9 |
| 20260509163243 | 91 | 79 | 0.0 | 0.0 | 0.00 | 0.00 | 0.00 | 20 | 1010.9 |
| 20260509163144 | 90 | 79 | 0.0 | 0.0 | 0.00 | 0.00 | 0.00 | 19 | 1010.9 |
| 20260509163051 | 90 | 79 | 0.0 | 0.0 | 0.00 | 0.00 | 0.00 | 18 | 1010.9 |
| 20260509162917 | 90 | 78 | 0.0 | 0.0 | 0.00 | 0.00 | 0.00 | 20 | 1010.8 |
| 20260509162845 | 90 | 78 | 0.0 | 0.0 | 0.00 | 0.00 | 0.00 | 19 | 1010.9 |